Wetterdaten: Sonntag, 24.09.2023
Datum Zeit Temp. I. Temp. A. Feuchte I. Feuchte A. Luftdruck Regen Wind Richtung Richtung Sonnenschein Solar Taupunkt Windchill Windböen
24.09.2023 00:00 23,1 °C 11,2 °C 59 % 88 % 1021,4 hPa 0,0 l/m² 0,7 km/h (0 Bft) O-NO 68 ° 0 min 0 W/m² 9,3 °C 11,2 °C 3,2 km/h (1 Bft)
24.09.2023 00:02 23,1 °C 11,3 °C 59 % 88 % 1021,4 hPa 0,0 l/m² 2,2 km/h (1 Bft) O-NO 68 ° 0 min 0 W/m² 9,4 °C 11,3 °C 3,2 km/h (1 Bft)
24.09.2023 00:03 23,1 °C 11,3 °C 59 % 88 % 1021,4 hPa 0,0 l/m² 2,2 km/h (1 Bft) O-NO 68 ° 0 min 0 W/m² 9,4 °C 11,3 °C 3,2 km/h (1 Bft)
24.09.2023 00:05 23,1 °C 11,4 °C 59 % 87 % 1021,5 hPa 0,0 l/m² 3,7 km/h (1 Bft) O 95 ° 0 min 0 W/m² 9,3 °C 11,4 °C 4,8 km/h (1 Bft)
24.09.2023 00:07 23,1 °C 11,5 °C 59 % 87 % 1021,4 hPa 0,0 l/m² 2,5 km/h (1 Bft) O 96 ° 0 min 0 W/m² 9,4 °C 11,5 °C 4,8 km/h (1 Bft)
24.09.2023 00:09 23,1 °C 11,5 °C 59 % 87 % 1021,5 hPa 0,0 l/m² 4,2 km/h (1 Bft) O-SO 118 ° 0 min 0 W/m² 9,4 °C 11,5 °C 6,4 km/h (2 Bft)
24.09.2023 00:11 23,1 °C 11,5 °C 59 % 87 % 1021,5 hPa 0,0 l/m² 3,4 km/h (1 Bft) O-SO 120 ° 0 min 0 W/m² 9,4 °C 11,5 °C 6,4 km/h (2 Bft)
24.09.2023 00:12 23,1 °C 11,6 °C 59 % 87 % 1021,5 hPa 0,0 l/m² 3,2 km/h (1 Bft) O-SO 120 ° 0 min 0 W/m² 9,5 °C 11,6 °C 4,8 km/h (1 Bft)
24.09.2023 00:13 23,1 °C 11,6 °C 59 % 87 % 1021,5 hPa 0,0 l/m² 2,8 km/h (1 Bft) O-SO 120 ° 0 min 0 W/m² 9,5 °C 11,6 °C 3,2 km/h (1 Bft)
24.09.2023 00:15 23,1 °C 11,6 °C 59 % 87 % 1021,4 hPa 0,0 l/m² 0,6 km/h (0 Bft) O-SO 120 ° 0 min 0 W/m² 9,5 °C 11,6 °C 3,2 km/h (1 Bft)
24.09.2023 00:17 23,0 °C 11,7 °C 59 % 87 % 1021,5 hPa 0,0 l/m² 0,6 km/h (0 Bft) O-SO 120 ° 0 min 0 W/m² 9,6 °C 11,7 °C 3,2 km/h (1 Bft)
24.09.2023 00:19 23,0 °C 11,7 °C 59 % 86 % 1021,5 hPa 0,0 l/m² 0,0 km/h (0 Bft) O-SO 120 ° 0 min 0 W/m² 9,4 °C 11,7 °C 1,6 km/h (1 Bft)
24.09.2023 00:21 23,0 °C 11,7 °C 59 % 86 % 1021,5 hPa 0,0 l/m² 0,0 km/h (0 Bft) O-SO 120 ° 0 min 0 W/m² 9,4 °C 11,7 °C 0,0 km/h (0 Bft)
24.09.2023 00:22 23,0 °C 11,6 °C 59 % 86 % 1021,5 hPa 0,0 l/m² 0,0 km/h (0 Bft) O-SO 120 ° 0 min 0 W/m² 9,3 °C 11,6 °C 0,0 km/h (0 Bft)
24.09.2023 00:23 23,1 °C 11,7 °C 59 % 86 % 1021,5 hPa 0,0 l/m² 0,4 km/h (0 Bft) O-SO 120 ° 0 min 0 W/m² 9,4 °C 11,7 °C 1,6 km/h (1 Bft)
24.09.2023 00:25 23,1 °C 11,7 °C 59 % 86 % 1021,6 hPa 0,0 l/m² 1,4 km/h (1 Bft) O-SO 120 ° 0 min 0 W/m² 9,4 °C 11,7 °C 3,2 km/h (1 Bft)
24.09.2023 00:27 23,0 °C 11,7 °C 59 % 86 % 1021,6 hPa 0,0 l/m² 2,0 km/h (1 Bft) O-SO 120 ° 0 min 0 W/m² 9,4 °C 11,7 °C 4,8 km/h (1 Bft)
24.09.2023 00:28 23,1 °C 11,7 °C 59 % 86 % 1021,6 hPa 0,0 l/m² 3,5 km/h (1 Bft) SO 128 ° 0 min 0 W/m² 9,4 °C 11,7 °C 6,4 km/h (2 Bft)
24.09.2023 00:29 23,0 °C 11,8 °C 59 % 86 % 1021,6 hPa 0,0 l/m² 3,3 km/h (1 Bft) SO 128 ° 0 min 0 W/m² 9,5 °C 11,8 °C 4,8 km/h (1 Bft)
24.09.2023 00:31 23,0 °C 11,9 °C 59 % 86 % 1021,6 hPa 0,0 l/m² 4,1 km/h (1 Bft) SO 137 ° 0 min 0 W/m² 9,6 °C 11,9 °C 8,0 km/h (2 Bft)
24.09.2023 00:32 23,0 °C 11,9 °C 59 % 86 % 1021,6 hPa 0,0 l/m² 6,1 km/h (2 Bft) S 169 ° 0 min 0 W/m² 9,6 °C 11,9 °C 9,7 km/h (2 Bft)
24.09.2023 00:34 23,0 °C 12,1 °C 59 % 85 % 1021,5 hPa 0,0 l/m² 2,9 km/h (1 Bft) S 173 ° 0 min 0 W/m² 9,7 °C 12,1 °C 8,0 km/h (2 Bft)
24.09.2023 00:36 23,0 °C 12,1 °C 59 % 85 % 1021,6 hPa 0,0 l/m² 2,8 km/h (1 Bft) S 173 ° 0 min 0 W/m² 9,7 °C 12,1 °C 4,8 km/h (1 Bft)
24.09.2023 00:38 23,0 °C 12,2 °C 59 % 85 % 1021,6 hPa 0,0 l/m² 3,7 km/h (1 Bft) S 174 ° 0 min 0 W/m² 9,8 °C 12,2 °C 8,0 km/h (2 Bft)
24.09.2023 00:40 23,0 °C 12,3 °C 59 % 85 % 1021,7 hPa 0,0 l/m² 4,3 km/h (1 Bft) S 175 ° 0 min 0 W/m² 9,9 °C 12,3 °C 8,0 km/h (2 Bft)
24.09.2023 00:42 23,0 °C 12,3 °C 59 % 85 % 1021,7 hPa 0,0 l/m² 5,1 km/h (1 Bft) S 181 ° 0 min 0 W/m² 9,9 °C 12,3 °C 8,0 km/h (2 Bft)
24.09.2023 00:43 23,0 °C 12,4 °C 59 % 85 % 1021,7 hPa 0,0 l/m² 5,0 km/h (1 Bft) S 182 ° 0 min 0 W/m² 9,9 °C 12,4 °C 8,0 km/h (2 Bft)
24.09.2023 00:46 23,0 °C 12,4 °C 59 % 84 % 1021,6 hPa 0,0 l/m² 4,3 km/h (1 Bft) S 182 ° 0 min 0 W/m² 9,8 °C 12,4 °C 6,4 km/h (2 Bft)
24.09.2023 00:48 23,0 °C 12,4 °C 59 % 84 % 1021,6 hPa 0,0 l/m² 5,3 km/h (1 Bft) S 189 ° 0 min 0 W/m² 9,8 °C 12,4 °C 8,0 km/h (2 Bft)
24.09.2023 00:50 23,0 °C 12,4 °C 59 % 84 % 1021,7 hPa 0,0 l/m² 4,7 km/h (1 Bft) S 190 ° 0 min 0 W/m² 9,8 °C 12,4 °C 6,4 km/h (2 Bft)
24.09.2023 00:52 23,0 °C 12,5 °C 59 % 85 % 1021,7 hPa 0,0 l/m² 5,3 km/h (1 Bft) S-SW 193 ° 0 min 0 W/m² 10,0 °C 12,5 °C 8,0 km/h (2 Bft)
24.09.2023 00:53 23,0 °C 12,4 °C 59 % 85 % 1021,7 hPa 0,0 l/m² 5,0 km/h (1 Bft) S-SW 193 ° 0 min 0 W/m² 9,9 °C 12,4 °C 6,4 km/h (2 Bft)
24.09.2023 00:54 23,0 °C 12,4 °C 59 % 85 % 1021,7 hPa 0,0 l/m² 4,7 km/h (1 Bft) S-SW 193 ° 0 min 0 W/m² 9,9 °C 12,4 °C 6,4 km/h (2 Bft)
24.09.2023 00:56 23,0 °C 12,4 °C 59 % 85 % 1021,7 hPa 0,0 l/m² 4,3 km/h (1 Bft) S-SW 193 ° 0 min 0 W/m² 9,9 °C 12,4 °C 6,4 km/h (2 Bft)
24.09.2023 00:58 23,0 °C 12,4 °C 59 % 85 % 1021,7 hPa 0,0 l/m² 4,0 km/h (1 Bft) S-SW 193 ° 0 min 0 W/m² 9,9 °C 12,4 °C 6,4 km/h (2 Bft)
24.09.2023 01:00 23,0 °C 12,4 °C 59 % 84 % 1021,8 hPa 0,0 l/m² 2,7 km/h (1 Bft) S-SW 193 ° 0 min 0 W/m² 9,8 °C 12,4 °C 4,8 km/h (1 Bft)
24.09.2023 01:01 23,0 °C 12,4 °C 59 % 84 % 1021,7 hPa 0,0 l/m² 2,1 km/h (1 Bft) S-SW 193 ° 0 min 0 W/m² 9,8 °C 12,4 °C 3,2 km/h (1 Bft)
24.09.2023 01:02 23,0 °C 12,4 °C 59 % 84 % 1021,8 hPa 0,0 l/m² 0,5 km/h (0 Bft) S-SW 193 ° 0 min 0 W/m² 9,8 °C 12,4 °C 1,6 km/h (1 Bft)
24.09.2023 01:04 22,9 °C 12,5 °C 59 % 84 % 1021,8 hPa 0,0 l/m² 1,4 km/h (1 Bft) S-SW 193 ° 0 min 0 W/m² 9,9 °C 12,5 °C 4,8 km/h (1 Bft)
24.09.2023 01:05 23,0 °C 12,5 °C 59 % 84 % 1021,8 hPa 0,0 l/m² 0,6 km/h (0 Bft) S-SW 193 ° 0 min 0 W/m² 9,9 °C 12,5 °C 1,6 km/h (1 Bft)
24.09.2023 01:07 22,9 °C 12,6 °C 59 % 84 % 1021,8 hPa 0,0 l/m² 1,3 km/h (1 Bft) S-SW 193 ° 0 min 0 W/m² 10,0 °C 12,6 °C 3,2 km/h (1 Bft)
24.09.2023 01:09 22,9 °C 12,6 °C 59 % 84 % 1021,8 hPa 0,0 l/m² 1,0 km/h (0 Bft) S-SW 193 ° 0 min 0 W/m² 10,0 °C 12,6 °C 3,2 km/h (1 Bft)
24.09.2023 01:11 22,9 °C 12,6 °C 59 % 84 % 1021,8 hPa 0,0 l/m² 3,2 km/h (1 Bft) S-SW 193 ° 0 min 0 W/m² 10,0 °C 12,6 °C 4,8 km/h (1 Bft)
24.09.2023 01:12 22,9 °C 12,6 °C 59 % 84 % 1021,8 hPa 0,0 l/m² 4,0 km/h (1 Bft) S-SW 193 ° 0 min 0 W/m² 10,0 °C 12,6 °C 4,8 km/h (1 Bft)
24.09.2023 01:14 22,9 °C 12,6 °C 59 % 84 % 1021,8 hPa 0,0 l/m² 4,6 km/h (1 Bft) S-SW 194 ° 0 min 0 W/m² 10,0 °C 12,6 °C 8,0 km/h (2 Bft)
24.09.2023 01:16 22,9 °C 12,6 °C 59 % 84 % 1021,8 hPa 0,0 l/m² 4,0 km/h (1 Bft) S-SW 194 ° 0 min 0 W/m² 10,0 °C 12,6 °C 6,4 km/h (2 Bft)
24.09.2023 01:18 22,9 °C 12,6 °C 59 % 84 % 1021,8 hPa 0,0 l/m² 5,2 km/h (1 Bft) S-SW 211 ° 0 min 0 W/m² 10,0 °C 12,6 °C 9,7 km/h (2 Bft)
24.09.2023 01:20 22,9 °C 12,6 °C 59 % 84 % 1021,7 hPa 0,0 l/m² 4,8 km/h (1 Bft) S-SW 212 ° 0 min 0 W/m² 10,0 °C 12,6 °C 8,0 km/h (2 Bft)
24.09.2023 01:22 22,9 °C 12,6 °C 59 % 84 % 1021,8 hPa 0,0 l/m² 4,8 km/h (1 Bft) SW 217 ° 0 min 0 W/m² 10,0 °C 12,6 °C 8,0 km/h (2 Bft)
24.09.2023 01:23 22,9 °C 12,6 °C 59 % 84 % 1021,8 hPa 0,0 l/m² 4,1 km/h (1 Bft) SW 217 ° 0 min 0 W/m² 10,0 °C 12,6 °C 4,8 km/h (1 Bft)
24.09.2023 01:24 22,9 °C 12,5 °C 59 % 84 % 1021,8 hPa 0,0 l/m² 4,3 km/h (1 Bft) SW 217 ° 0 min 0 W/m² 9,9 °C 12,5 °C 4,8 km/h (1 Bft)
24.09.2023 01:26 22,9 °C 12,6 °C 59 % 84 % 1021,8 hPa 0,0 l/m² 4,6 km/h (1 Bft) SW 218 ° 0 min 0 W/m² 10,0 °C 12,6 °C 6,4 km/h (2 Bft)
24.09.2023 01:28 22,9 °C 12,6 °C 59 % 84 % 1021,8 hPa 0,0 l/m² 4,6 km/h (1 Bft) SW 221 ° 0 min 0 W/m² 10,0 °C 12,6 °C 8,0 km/h (2 Bft)
24.09.2023 01:30 22,9 °C 12,6 °C 59 % 84 % 1021,8 hPa 0,0 l/m² 4,3 km/h (1 Bft) SW 225 ° 0 min 0 W/m² 10,0 °C 12,6 °C 8,0 km/h (2 Bft)
24.09.2023 01:32 22,9 °C 12,6 °C 59 % 83 % 1021,8 hPa 0,0 l/m² 5,2 km/h (1 Bft) SW 236 ° 0 min 0 W/m² 9,8 °C 12,6 °C 8,0 km/h (2 Bft)
24.09.2023 01:33 22,9 °C 12,7 °C 59 % 83 % 1021,8 hPa 0,0 l/m² 3,3 km/h (1 Bft) W-SW 238 ° 0 min 0 W/m² 9,9 °C 12,7 °C 8,0 km/h (2 Bft)
24.09.2023 01:34 22,9 °C 12,7 °C 59 % 83 % 1021,8 hPa 0,0 l/m² 3,1 km/h (1 Bft) W-SW 238 ° 0 min 0 W/m² 9,9 °C 12,7 °C 4,8 km/h (1 Bft)
24.09.2023 01:36 22,9 °C 12,7 °C 59 % 83 % 1021,8 hPa 0,0 l/m² 3,7 km/h (1 Bft) W-SW 240 ° 0 min 0 W/m² 9,9 °C 12,7 °C 9,7 km/h (2 Bft)
24.09.2023 01:38 22,9 °C 12,7 °C 59 % 83 % 1021,9 hPa 0,0 l/m² 4,5 km/h (1 Bft) W-SW 242 ° 0 min 0 W/m² 9,9 °C 12,7 °C 6,4 km/h (2 Bft)
24.09.2023 01:40 22,9 °C 12,7 °C 59 % 83 % 1021,8 hPa 0,0 l/m² 4,4 km/h (1 Bft) W-SW 252 ° 0 min 0 W/m² 9,9 °C 12,7 °C 8,0 km/h (2 Bft)
24.09.2023 01:42 22,9 °C 12,7 °C 59 % 83 % 1021,8 hPa 0,0 l/m² 3,7 km/h (1 Bft) W-SW 252 ° 0 min 0 W/m² 9,9 °C 12,7 °C 6,4 km/h (2 Bft)
24.09.2023 01:43 22,9 °C 12,7 °C 59 % 83 % 1021,9 hPa 0,0 l/m² 3,6 km/h (1 Bft) W-SW 252 ° 0 min 0 W/m² 9,9 °C 12,7 °C 6,4 km/h (2 Bft)
24.09.2023 01:44 22,9 °C 12,7 °C 59 % 83 % 1021,9 hPa 0,0 l/m² 5,5 km/h (2 Bft) W-SW 253 ° 0 min 0 W/m² 9,9 °C 12,7 °C 8,0 km/h (2 Bft)
24.09.2023 01:46 22,9 °C 12,7 °C 59 % 83 % 1021,8 hPa 0,0 l/m² 3,8 km/h (1 Bft) W-SW 254 ° 0 min 0 W/m² 9,9 °C 12,7 °C 6,4 km/h (2 Bft)
24.09.2023 01:48 22,9 °C 12,7 °C 59 % 83 % 1021,9 hPa 0,0 l/m² 3,7 km/h (1 Bft) W-SW 256 ° 0 min 0 W/m² 9,9 °C 12,7 °C 6,4 km/h (2 Bft)
24.09.2023 01:50 22,9 °C 12,7 °C 59 % 83 % 1021,9 hPa 0,0 l/m² 4,3 km/h (1 Bft) W-SW 256 ° 0 min 0 W/m² 9,9 °C 12,7 °C 6,4 km/h (2 Bft)
24.09.2023 01:52 22,9 °C 12,7 °C 59 % 83 % 1022,0 hPa 0,0 l/m² 3,5 km/h (1 Bft) W 259 ° 0 min 0 W/m² 9,9 °C 12,7 °C 9,7 km/h (2 Bft)
24.09.2023 01:53 22,9 °C 12,7 °C 59 % 83 % 1022,0 hPa 0,0 l/m² 4,2 km/h (1 Bft) W 259 ° 0 min 0 W/m² 9,9 °C 12,7 °C 4,8 km/h (1 Bft)
24.09.2023 01:54 22,9 °C 12,7 °C 59 % 83 % 1022,0 hPa 0,0 l/m² 3,6 km/h (1 Bft) W 259 ° 0 min 0 W/m² 9,9 °C 12,7 °C 4,8 km/h (1 Bft)
24.09.2023 01:56 22,9 °C 12,7 °C 59 % 83 % 1022,0 hPa 0,0 l/m² 5,0 km/h (1 Bft) W 260 ° 0 min 0 W/m² 9,9 °C 12,7 °C 9,7 km/h (2 Bft)
24.09.2023 01:58 22,9 °C 12,7 °C 59 % 83 % 1022,0 hPa 0,0 l/m² 5,5 km/h (2 Bft) W 261 ° 0 min 0 W/m² 9,9 °C 12,7 °C 9,7 km/h (2 Bft)
24.09.2023 02:00 22,9 °C 12,7 °C 59 % 83 % 1022,0 hPa 0,0 l/m² 3,0 km/h (1 Bft) W 261 ° 0 min 0 W/m² 9,9 °C 12,7 °C 6,4 km/h (2 Bft)
24.09.2023 02:02 22,9 °C 12,7 °C 59 % 84 % 1022,0 hPa 0,0 l/m² 4,9 km/h (1 Bft) W-SW 258 ° 0 min 0 W/m² 10,1 °C 12,7 °C 12,9 km/h (3 Bft)
24.09.2023 02:03 22,9 °C 12,7 °C 59 % 83 % 1022,0 hPa 0,0 l/m² 5,0 km/h (1 Bft) W-SW 258 ° 0 min 0 W/m² 9,9 °C 12,7 °C 6,4 km/h (2 Bft)
24.09.2023 02:04 22,9 °C 12,7 °C 59 % 83 % 1022,1 hPa 0,0 l/m² 4,3 km/h (1 Bft) W 259 ° 0 min 0 W/m² 9,9 °C 12,7 °C 9,7 km/h (2 Bft)
24.09.2023 02:06 22,9 °C 12,6 °C 59 % 84 % 1022,2 hPa 0,0 l/m² 4,5 km/h (1 Bft) W 259 ° 0 min 0 W/m² 10,0 °C 12,6 °C 9,7 km/h (2 Bft)
24.09.2023 02:08 22,9 °C 12,7 °C 59 % 84 % 1022,2 hPa 0,0 l/m² 4,7 km/h (1 Bft) W-SW 257 ° 0 min 0 W/m² 10,1 °C 12,7 °C 6,4 km/h (2 Bft)
24.09.2023 02:10 22,9 °C 12,6 °C 59 % 84 % 1022,2 hPa 0,0 l/m² 4,0 km/h (1 Bft) W-SW 248 ° 0 min 0 W/m² 10,0 °C 12,6 °C 8,0 km/h (2 Bft)
24.09.2023 02:12 22,9 °C 12,6 °C 59 % 84 % 1022,3 hPa 0,0 l/m² 3,3 km/h (1 Bft) W-SW 250 ° 0 min 0 W/m² 10,0 °C 12,6 °C 8,0 km/h (2 Bft)
24.09.2023 02:13 22,9 °C 12,6 °C 59 % 84 % 1022,4 hPa 0,0 l/m² 5,9 km/h (2 Bft) W-SW 250 ° 0 min 0 W/m² 10,0 °C 12,6 °C 8,0 km/h (2 Bft)
24.09.2023 02:14 22,9 °C 12,6 °C 59 % 84 % 1022,3 hPa 0,0 l/m² 7,2 km/h (2 Bft) W-SW 256 ° 0 min 0 W/m² 10,0 °C 12,1 °C 11,3 km/h (2 Bft)
24.09.2023 02:16 22,9 °C 12,6 °C 59 % 83 % 1022,2 hPa 0,0 l/m² 4,9 km/h (1 Bft) W-SW 245 ° 0 min 0 W/m² 9,8 °C 12,6 °C 8,0 km/h (2 Bft)
24.09.2023 02:18 22,9 °C 12,7 °C 59 % 83 % 1022,4 hPa 0,0 l/m² 5,6 km/h (2 Bft) W-SW 245 ° 0 min 0 W/m² 9,9 °C 12,7 °C 8,0 km/h (2 Bft)
24.09.2023 02:20 22,9 °C 12,7 °C 59 % 83 % 1022,5 hPa 0,0 l/m² 3,9 km/h (1 Bft) W-SW 245 ° 0 min 0 W/m² 9,9 °C 12,7 °C 8,0 km/h (2 Bft)
24.09.2023 02:22 22,9 °C 12,7 °C 59 % 83 % 1022,4 hPa 0,0 l/m² 5,8 km/h (2 Bft) W-SW 248 ° 0 min 0 W/m² 9,9 °C 12,7 °C 8,0 km/h (2 Bft)
24.09.2023 02:23 22,9 °C 12,7 °C 59 % 83 % 1022,4 hPa 0,0 l/m² 6,0 km/h (2 Bft) W-SW 249 ° 0 min 0 W/m² 9,9 °C 12,7 °C 8,0 km/h (2 Bft)
24.09.2023 02:24 22,9 °C 12,7 °C 59 % 83 % 1022,4 hPa 0,0 l/m² 6,3 km/h (2 Bft) W-SW 250 ° 0 min 0 W/m² 9,9 °C 12,7 °C 8,0 km/h (2 Bft)
24.09.2023 02:26 22,9 °C 12,7 °C 59 % 83 % 1022,5 hPa 0,0 l/m² 5,1 km/h (1 Bft) W-SW 252 ° 0 min 0 W/m² 9,9 °C 12,7 °C 8,0 km/h (2 Bft)
24.09.2023 02:28 22,9 °C 12,7 °C 59 % 83 % 1022,5 hPa 0,0 l/m² 4,2 km/h (1 Bft) W-SW 252 ° 0 min 0 W/m² 9,9 °C 12,7 °C 6,4 km/h (2 Bft)
24.09.2023 02:30 22,9 °C 12,7 °C 59 % 83 % 1022,6 hPa 0,0 l/m² 4,6 km/h (1 Bft) W-SW 252 ° 0 min 0 W/m² 9,9 °C 12,7 °C 8,0 km/h (2 Bft)
24.09.2023 02:32 22,9 °C 12,6 °C 59 % 83 % 1022,6 hPa 0,0 l/m² 3,2 km/h (1 Bft) W-SW 252 ° 0 min 0 W/m² 9,8 °C 12,6 °C 4,8 km/h (1 Bft)
24.09.2023 02:33 22,9 °C 12,6 °C 59 % 83 % 1022,7 hPa 0,0 l/m² 1,6 km/h (1 Bft) W-SW 252 ° 0 min 0 W/m² 9,8 °C 12,6 °C 3,2 km/h (1 Bft)
24.09.2023 02:34 22,9 °C 12,6 °C 59 % 83 % 1022,7 hPa 0,0 l/m² 2,7 km/h (1 Bft) W-SW 252 ° 0 min 0 W/m² 9,8 °C 12,6 °C 4,8 km/h (1 Bft)
24.09.2023 02:36 22,9 °C 12,5 °C 59 % 83 % 1022,7 hPa 0,0 l/m² 1,2 km/h (1 Bft) W-SW 252 ° 0 min 0 W/m² 9,7 °C 12,5 °C 3,2 km/h (1 Bft)
24.09.2023 02:38 22,9 °C 12,4 °C 59 % 83 % 1022,7 hPa 0,0 l/m² 0,9 km/h (0 Bft) W-SW 252 ° 0 min 0 W/m² 9,6 °C 12,4 °C 3,2 km/h (1 Bft)
24.09.2023 02:40 22,8 °C 12,4 °C 59 % 84 % 1022,6 hPa 0,0 l/m² 0,8 km/h (0 Bft) W-SW 252 ° 0 min 0 W/m² 9,8 °C 12,4 °C 1,6 km/h (1 Bft)
24.09.2023 02:42 22,9 °C 12,3 °C 59 % 84 % 1022,7 hPa 0,0 l/m² 0,3 km/h (0 Bft) W-SW 252 ° 0 min 0 W/m² 9,7 °C 12,3 °C 1,6 km/h (1 Bft)
24.09.2023 02:43 22,8 °C 12,3 °C 59 % 84 % 1022,8 hPa 0,0 l/m² 0,0 km/h (0 Bft) W-SW 252 ° 0 min 0 W/m² 9,7 °C 12,3 °C 0,0 km/h (0 Bft)
24.09.2023 02:44 22,8 °C 12,2 °C 59 % 84 % 1022,7 hPa 0,0 l/m² 0,7 km/h (0 Bft) W-SW 252 ° 0 min 0 W/m² 9,6 °C 12,2 °C 3,2 km/h (1 Bft)
24.09.2023 02:46 22,8 °C 12,2 °C 59 % 84 % 1022,7 hPa 0,0 l/m² 1,0 km/h (0 Bft) W-SW 252 ° 0 min 0 W/m² 9,6 °C 12,2 °C 3,2 km/h (1 Bft)
24.09.2023 02:48 22,9 °C 12,1 °C 59 % 84 % 1022,7 hPa 0,0 l/m² 1,0 km/h (0 Bft) W-SW 252 ° 0 min 0 W/m² 9,5 °C 12,1 °C 3,2 km/h (1 Bft)
24.09.2023 02:50 22,8 °C 11,9 °C 59 % 84 % 1022,7 hPa 0,0 l/m² 0,9 km/h (0 Bft) W-SW 252 ° 0 min 0 W/m² 9,3 °C 11,9 °C 3,2 km/h (1 Bft)
24.09.2023 02:52 22,8 °C 11,8 °C 59 % 85 % 1022,7 hPa 0,0 l/m² 1,2 km/h (1 Bft) W-SW 252 ° 0 min 0 W/m² 9,4 °C 11,8 °C 4,8 km/h (1 Bft)
24.09.2023 02:53 22,8 °C 11,8 °C 59 % 85 % 1022,7 hPa 0,0 l/m² 2,0 km/h (1 Bft) W-SW 252 ° 0 min 0 W/m² 9,4 °C 11,8 °C 3,2 km/h (1 Bft)
24.09.2023 02:54 22,9 °C 11,8 °C 59 % 85 % 1022,7 hPa 0,0 l/m² 0,6 km/h (0 Bft) W-SW 252 ° 0 min 0 W/m² 9,4 °C 11,8 °C 1,6 km/h (1 Bft)
24.09.2023 02:56 22,8 °C 11,9 °C 59 % 85 % 1022,8 hPa 0,0 l/m² 2,2 km/h (1 Bft) W-SW 252 ° 0 min 0 W/m² 9,5 °C 11,9 °C 3,2 km/h (1 Bft)
24.09.2023 02:58 22,8 °C 11,8 °C 59 % 85 % 1022,8 hPa 0,0 l/m² 2,1 km/h (1 Bft) W-SW 252 ° 0 min 0 W/m² 9,4 °C 11,8 °C 3,2 km/h (1 Bft)
24.09.2023 03:00 22,8 °C 11,8 °C 59 % 85 % 1022,9 hPa 0,0 l/m² 3,9 km/h (1 Bft) W-SW 252 ° 0 min 0 W/m² 9,4 °C 11,8 °C 4,8 km/h (1 Bft)
24.09.2023 03:01 22,8 °C 11,8 °C 59 % 85 % 1022,9 hPa 0,0 l/m² 3,2 km/h (1 Bft) W-SW 247 ° 0 min 0 W/m² 9,4 °C 11,8 °C 4,8 km/h (1 Bft)
24.09.2023 03:07 22,8 °C 11,7 °C 59 % 86 % 1022,9 hPa 0,0 l/m² 4,9 km/h (1 Bft) W-SW 252 ° 0 min 0 W/m² 9,4 °C 11,7 °C 6,4 km/h (2 Bft)
24.09.2023 03:08 22,8 °C 11,7 °C 59 % 86 % 1022,9 hPa 0,0 l/m² 5,8 km/h (2 Bft) W-SW 252 ° 0 min 0 W/m² 9,4 °C 11,7 °C 6,4 km/h (2 Bft)
24.09.2023 03:09 22,8 °C 11,7 °C 59 % 86 % 1022,9 hPa 0,0 l/m² 4,3 km/h (1 Bft) W-SW 252 ° 0 min 0 W/m² 9,4 °C 11,7 °C 6,4 km/h (2 Bft)
24.09.2023 03:10 22,8 °C 11,7 °C 58 % 86 % 1022,9 hPa 0,0 l/m² 5,0 km/h (1 Bft) W-SW 252 ° 0 min 0 W/m² 9,4 °C 11,7 °C 6,4 km/h (2 Bft)
24.09.2023 03:12 22,8 °C 11,6 °C 58 % 86 % 1022,9 hPa 0,0 l/m² 3,7 km/h (1 Bft) W-SW 252 ° 0 min 0 W/m² 9,3 °C 11,6 °C 6,4 km/h (2 Bft)
24.09.2023 03:13 22,8 °C 11,6 °C 59 % 86 % 1022,9 hPa 0,0 l/m² 4,4 km/h (1 Bft) W-SW 252 ° 0 min 0 W/m² 9,3 °C 11,6 °C 6,4 km/h (2 Bft)
24.09.2023 03:15 22,8 °C 11,6 °C 58 % 86 % 1022,9 hPa 0,0 l/m² 4,0 km/h (1 Bft) W-SW 252 ° 0 min 0 W/m² 9,3 °C 11,6 °C 4,8 km/h (1 Bft)
24.09.2023 03:17 22,8 °C 11,6 °C 58 % 86 % 1023,0 hPa 0,0 l/m² 4,7 km/h (1 Bft) W-SW 252 ° 0 min 0 W/m² 9,3 °C 11,6 °C 6,4 km/h (2 Bft)
24.09.2023 03:19 22,8 °C 11,6 °C 59 % 86 % 1022,9 hPa 0,0 l/m² 4,7 km/h (1 Bft) W-SW 252 ° 0 min 0 W/m² 9,3 °C 11,6 °C 6,4 km/h (2 Bft)
24.09.2023 03:20 22,8 °C 11,6 °C 58 % 86 % 1022,9 hPa 0,0 l/m² 5,3 km/h (1 Bft) W-SW 252 ° 0 min 0 W/m² 9,3 °C 11,6 °C 6,4 km/h (2 Bft)
24.09.2023 03:22 22,8 °C 11,5 °C 58 % 86 % 1023,0 hPa 0,0 l/m² 3,3 km/h (1 Bft) W-SW 252 ° 0 min 0 W/m² 9,2 °C 11,5 °C 4,8 km/h (1 Bft)
24.09.2023 03:23 22,8 °C 11,4 °C 58 % 86 % 1023,0 hPa 0,0 l/m² 0,1 km/h (0 Bft) W-SW 252 ° 0 min 0 W/m² 9,1 °C 11,4 °C 1,6 km/h (1 Bft)
24.09.2023 03:25 22,8 °C 11,3 °C 58 % 86 % 1023,0 hPa 0,0 l/m² 1,6 km/h (1 Bft) W-SW 252 ° 0 min 0 W/m² 9,0 °C 11,3 °C 3,2 km/h (1 Bft)
24.09.2023 03:27 22,8 °C 11,2 °C 58 % 86 % 1023,0 hPa 0,0 l/m² 1,0 km/h (0 Bft) W-SW 252 ° 0 min 0 W/m² 8,9 °C 11,2 °C 3,2 km/h (1 Bft)
24.09.2023 03:29 22,8 °C 11,2 °C 58 % 87 % 1023,0 hPa 0,0 l/m² 1,2 km/h (1 Bft) W-SW 252 ° 0 min 0 W/m² 9,1 °C 11,2 °C 3,2 km/h (1 Bft)
24.09.2023 03:30 22,8 °C 11,2 °C 58 % 87 % 1023,0 hPa 0,0 l/m² 1,1 km/h (1 Bft) W-SW 252 ° 0 min 0 W/m² 9,1 °C 11,2 °C 3,2 km/h (1 Bft)
24.09.2023 03:32 22,8 °C 11,1 °C 58 % 87 % 1023,1 hPa 0,0 l/m² 0,6 km/h (0 Bft) W-SW 252 ° 0 min 0 W/m² 9,0 °C 11,1 °C 1,6 km/h (1 Bft)
24.09.2023 03:33 22,8 °C 11,0 °C 58 % 87 % 1023,1 hPa 0,0 l/m² 0,7 km/h (0 Bft) W-SW 252 ° 0 min 0 W/m² 8,9 °C 11,0 °C 3,2 km/h (1 Bft)
24.09.2023 03:35 22,8 °C 11,0 °C 58 % 87 % 1023,1 hPa 0,0 l/m² 1,8 km/h (1 Bft) W-SW 252 ° 0 min 0 W/m² 8,9 °C 11,0 °C 4,8 km/h (1 Bft)
24.09.2023 03:37 22,8 °C 10,9 °C 58 % 87 % 1023,1 hPa 0,0 l/m² 0,6 km/h (0 Bft) W-SW 252 ° 0 min 0 W/m² 8,8 °C 10,9 °C 3,2 km/h (1 Bft)
24.09.2023 03:39 22,8 °C 10,8 °C 58 % 88 % 1023,1 hPa 0,0 l/m² 0,0 km/h (0 Bft) W-SW 252 ° 0 min 0 W/m² 8,9 °C 10,8 °C 0,0 km/h (0 Bft)
24.09.2023 03:40 22,8 °C 10,8 °C 58 % 87 % 1023,2 hPa 0,0 l/m² 0,4 km/h (0 Bft) W-SW 252 ° 0 min 0 W/m² 8,7 °C 10,8 °C 3,2 km/h (1 Bft)
24.09.2023 03:42 22,8 °C 10,7 °C 58 % 88 % 1023,1 hPa 0,0 l/m² 0,5 km/h (0 Bft) W-SW 252 ° 0 min 0 W/m² 8,8 °C 10,7 °C 3,2 km/h (1 Bft)
24.09.2023 03:43 22,8 °C 10,7 °C 58 % 88 % 1023,2 hPa 0,0 l/m² 0,1 km/h (0 Bft) W-SW 252 ° 0 min 0 W/m² 8,8 °C 10,7 °C 1,6 km/h (1 Bft)
24.09.2023 03:45 22,8 °C 10,6 °C 58 % 88 % 1023,1 hPa 0,0 l/m² 0,0 km/h (0 Bft) W-SW 252 ° 0 min 0 W/m² 8,7 °C 10,6 °C 0,0 km/h (0 Bft)
24.09.2023 03:47 22,8 °C 10,4 °C 58 % 88 % 1023,1 hPa 0,0 l/m² 0,0 km/h (0 Bft) W-SW 252 ° 0 min 0 W/m² 8,5 °C 10,4 °C 0,0 km/h (0 Bft)
24.09.2023 03:48 22,8 °C 10,4 °C 58 % 88 % 1023,1 hPa 0,0 l/m² 0,0 km/h (0 Bft) W-SW 252 ° 0 min 0 W/m² 8,5 °C 10,4 °C 0,0 km/h (0 Bft)
24.09.2023 03:50 22,8 °C 10,2 °C 58 % 88 % 1023,1 hPa 0,0 l/m² 0,0 km/h (0 Bft) W-SW 252 ° 0 min 0 W/m² 8,3 °C 10,2 °C 0,0 km/h (0 Bft)
24.09.2023 03:51 22,8 °C 10,2 °C 58 % 89 % 1023,2 hPa 0,0 l/m² 0,1 km/h (0 Bft) W-SW 252 ° 0 min 0 W/m² 8,5 °C 10,2 °C 1,6 km/h (1 Bft)
24.09.2023 03:52 22,7 °C 10,2 °C 58 % 89 % 1023,2 hPa 0,0 l/m² 0,0 km/h (0 Bft) W-SW 252 ° 0 min 0 W/m² 8,5 °C 10,2 °C 0,0 km/h (0 Bft)
24.09.2023 03:54 22,8 °C 10,2 °C 58 % 89 % 1023,1 hPa 0,0 l/m² 0,4 km/h (0 Bft) W-SW 252 ° 0 min 0 W/m² 8,5 °C 10,2 °C 1,6 km/h (1 Bft)
24.09.2023 03:56 22,7 °C 10,2 °C 58 % 89 % 1023,2 hPa 0,0 l/m² 0,7 km/h (0 Bft) W-SW 252 ° 0 min 0 W/m² 8,5 °C 10,2 °C 1,6 km/h (1 Bft)
24.09.2023 03:58 22,8 °C 10,2 °C 58 % 89 % 1023,2 hPa 0,0 l/m² 0,7 km/h (0 Bft) W-SW 252 ° 0 min 0 W/m² 8,5 °C 10,2 °C 3,2 km/h (1 Bft)
24.09.2023 04:00 22,8 °C 10,2 °C 58 % 89 % 1023,3 hPa 0,0 l/m² 0,2 km/h (0 Bft) W-SW 252 ° 0 min 0 W/m² 8,5 °C 10,2 °C 1,6 km/h (1 Bft)
24.09.2023 04:01 22,8 °C 10,2 °C 58 % 89 % 1023,2 hPa 0,0 l/m² 2,0 km/h (1 Bft) W-SW 252 ° 0 min 0 W/m² 8,5 °C 10,2 °C 3,2 km/h (1 Bft)
24.09.2023 04:02 22,8 °C 10,2 °C 58 % 89 % 1023,3 hPa 0,0 l/m² 1,5 km/h (1 Bft) W-SW 252 ° 0 min 0 W/m² 8,5 °C 10,2 °C 3,2 km/h (1 Bft)
24.09.2023 04:04 22,8 °C 10,2 °C 58 % 89 % 1023,2 hPa 0,0 l/m² 1,0 km/h (0 Bft) W-SW 252 ° 0 min 0 W/m² 8,5 °C 10,2 °C 3,2 km/h (1 Bft)
24.09.2023 04:06 22,7 °C 10,1 °C 58 % 89 % 1023,3 hPa 0,0 l/m² 0,0 km/h (0 Bft) W-SW 252 ° 0 min 0 W/m² 8,4 °C 10,1 °C 1,6 km/h (1 Bft)
24.09.2023 04:08 22,7 °C 10,1 °C 58 % 89 % 1023,2 hPa 0,0 l/m² 0,0 km/h (0 Bft) W-SW 252 ° 0 min 0 W/m² 8,4 °C 10,1 °C 0,0 km/h (0 Bft)
24.09.2023 04:10 22,8 °C 10,1 °C 58 % 90 % 1023,3 hPa 0,0 l/m² 0,0 km/h (0 Bft) W-SW 252 ° 0 min 0 W/m² 8,5 °C 10,1 °C 0,0 km/h (0 Bft)
24.09.2023 04:11 22,7 °C 10,0 °C 58 % 90 % 1023,4 hPa 0,0 l/m² 0,0 km/h (0 Bft) W-SW 252 ° 0 min 0 W/m² 8,4 °C 10,0 °C 0,0 km/h (0 Bft)
24.09.2023 04:12 22,7 °C 9,9 °C 58 % 89 % 1023,4 hPa 0,0 l/m² 0,0 km/h (0 Bft) W-SW 252 ° 0 min 0 W/m² 8,2 °C 9,9 °C 0,0 km/h (0 Bft)
24.09.2023 04:14 22,8 °C 9,8 °C 58 % 89 % 1023,4 hPa 0,0 l/m² 0,0 km/h (0 Bft) W-SW 252 ° 0 min 0 W/m² 8,1 °C 9,8 °C 0,0 km/h (0 Bft)
24.09.2023 04:16 22,8 °C 9,7 °C 58 % 90 % 1023,4 hPa 0,0 l/m² 0,0 km/h (0 Bft) W-SW 252 ° 0 min 0 W/m² 8,1 °C 9,7 °C 0,0 km/h (0 Bft)
24.09.2023 04:18 22,7 °C 9,6 °C 58 % 90 % 1023,5 hPa 0,0 l/m² 0,0 km/h (0 Bft) W-SW 252 ° 0 min 0 W/m² 8,0 °C 9,6 °C 0,0 km/h (0 Bft)
24.09.2023 04:20 22,7 °C 9,6 °C 58 % 90 % 1023,6 hPa 0,0 l/m² 0,0 km/h (0 Bft) W-SW 252 ° 0 min 0 W/m² 8,0 °C 9,6 °C 0,0 km/h (0 Bft)
24.09.2023 04:21 22,7 °C 9,6 °C 58 % 91 % 1023,6 hPa 0,0 l/m² 0,0 km/h (0 Bft) W-SW 252 ° 0 min 0 W/m² 8,2 °C 9,6 °C 0,0 km/h (0 Bft)
24.09.2023 04:22 22,7 °C 9,7 °C 58 % 91 % 1023,7 hPa 0,0 l/m² 1,8 km/h (1 Bft) W-SW 252 ° 0 min 0 W/m² 8,3 °C 9,7 °C 3,2 km/h (1 Bft)
24.09.2023 04:24 22,7 °C 9,6 °C 58 % 91 % 1023,6 hPa 0,0 l/m² 0,8 km/h (0 Bft) W-SW 252 ° 0 min 0 W/m² 8,2 °C 9,6 °C 3,2 km/h (1 Bft)
24.09.2023 04:26 22,7 °C 9,7 °C 58 % 91 % 1023,7 hPa 0,0 l/m² 1,4 km/h (1 Bft) W-SW 252 ° 0 min 0 W/m² 8,3 °C 9,7 °C 3,2 km/h (1 Bft)
24.09.2023 04:28 22,7 °C 9,6 °C 58 % 91 % 1023,6 hPa 0,0 l/m² 3,0 km/h (1 Bft) W-SW 252 ° 0 min 0 W/m² 8,2 °C 9,6 °C 4,8 km/h (1 Bft)
24.09.2023 04:30 22,7 °C 9,6 °C 58 % 91 % 1023,7 hPa 0,0 l/m² 2,1 km/h (1 Bft) W-SW 252 ° 0 min 0 W/m² 8,2 °C 9,6 °C 3,2 km/h (1 Bft)
24.09.2023 04:31 22,7 °C 9,6 °C 58 % 91 % 1023,7 hPa 0,0 l/m² 2,1 km/h (1 Bft) W-SW 252 ° 0 min 0 W/m² 8,2 °C 9,6 °C 3,2 km/h (1 Bft)
24.09.2023 04:32 22,7 °C 9,7 °C 58 % 91 % 1023,7 hPa 0,0 l/m² 2,2 km/h (1 Bft) W-SW 252 ° 0 min 0 W/m² 8,3 °C 9,7 °C 3,2 km/h (1 Bft)
24.09.2023 04:33 22,7 °C 9,7 °C 58 % 92 % 1023,7 hPa 0,0 l/m² 2,8 km/h (1 Bft) W-SW 252 ° 0 min 0 W/m² 8,5 °C 9,7 °C 3,2 km/h (1 Bft)
24.09.2023 04:35 22,7 °C 9,7 °C 58 % 92 % 1023,7 hPa 0,0 l/m² 1,4 km/h (1 Bft) W-SW 252 ° 0 min 0 W/m² 8,5 °C 9,7 °C 3,2 km/h (1 Bft)
24.09.2023 04:37 22,7 °C 9,8 °C 58 % 92 % 1023,8 hPa 0,0 l/m² 0,0 km/h (0 Bft) W-SW 252 ° 0 min 0 W/m² 8,6 °C 9,8 °C 0,0 km/h (0 Bft)
24.09.2023 04:39 22,7 °C 9,8 °C 58 % 92 % 1023,8 hPa 0,0 l/m² 0,0 km/h (0 Bft) W-SW 252 ° 0 min 0 W/m² 8,6 °C 9,8 °C 0,0 km/h (0 Bft)
24.09.2023 04:41 22,7 °C 9,8 °C 58 % 92 % 1023,8 hPa 0,0 l/m² 0,0 km/h (0 Bft) W-SW 252 ° 0 min 0 W/m² 8,6 °C 9,8 °C 0,0 km/h (0 Bft)
24.09.2023 04:42 22,7 °C 9,8 °C 58 % 92 % 1023,8 hPa 0,0 l/m² 0,0 km/h (0 Bft) W-SW 252 ° 0 min 0 W/m² 8,6 °C 9,8 °C 0,0 km/h (0 Bft)
24.09.2023 04:43 22,7 °C 9,8 °C 58 % 92 % 1023,8 hPa 0,0 l/m² 0,0 km/h (0 Bft) W-SW 252 ° 0 min 0 W/m² 8,6 °C 9,8 °C 0,0 km/h (0 Bft)
24.09.2023 04:45 22,7 °C 9,9 °C 58 % 92 % 1023,8 hPa 0,0 l/m² 0,0 km/h (0 Bft) W-SW 252 ° 0 min 0 W/m² 8,7 °C 9,9 °C 0,0 km/h (0 Bft)
24.09.2023 04:47 22,7 °C 10,0 °C 58 % 92 % 1023,9 hPa 0,0 l/m² 0,0 km/h (0 Bft) W-SW 252 ° 0 min 0 W/m² 8,8 °C 10,0 °C 0,0 km/h (0 Bft)
24.09.2023 04:49 22,7 °C 10,0 °C 58 % 92 % 1023,8 hPa 0,0 l/m² 0,0 km/h (0 Bft) W-SW 252 ° 0 min 0 W/m² 8,8 °C 10,0 °C 0,0 km/h (0 Bft)
24.09.2023 04:51 22,7 °C 10,1 °C 58 % 93 % 1023,8 hPa 0,0 l/m² 0,0 km/h (0 Bft) W-SW 252 ° 0 min 0 W/m² 9,0 °C 10,1 °C 0,0 km/h (0 Bft)
24.09.2023 04:52 22,7 °C 10,1 °C 58 % 92 % 1023,8 hPa 0,0 l/m² 0,0 km/h (0 Bft) W-SW 252 ° 0 min 0 W/m² 8,9 °C 10,1 °C 0,0 km/h (0 Bft)
24.09.2023 04:53 22,7 °C 10,1 °C 58 % 92 % 1023,9 hPa 0,0 l/m² 0,0 km/h (0 Bft) W-SW 252 ° 0 min 0 W/m² 8,9 °C 10,1 °C 0,0 km/h (0 Bft)
24.09.2023 04:55 22,7 °C 10,1 °C 58 % 92 % 1023,9 hPa 0,0 l/m² 0,0 km/h (0 Bft) W-SW 252 ° 0 min 0 W/m² 8,9 °C 10,1 °C 0,0 km/h (0 Bft)
24.09.2023 04:57 22,7 °C 10,1 °C 58 % 92 % 1023,8 hPa 0,0 l/m² 0,0 km/h (0 Bft) W-SW 252 ° 0 min 0 W/m² 8,9 °C 10,1 °C 0,0 km/h (0 Bft)
24.09.2023 04:59 22,7 °C 10,1 °C 58 % 92 % 1023,8 hPa 0,0 l/m² 0,0 km/h (0 Bft) W-SW 252 ° 0 min 0 W/m² 8,9 °C 10,1 °C 0,0 km/h (0 Bft)
24.09.2023 05:01 22,7 °C 10,2 °C 58 % 93 % 1023,9 hPa 0,0 l/m² 0,0 km/h (0 Bft) W-SW 252 ° 0 min 0 W/m² 9,1 °C 10,2 °C 0,0 km/h (0 Bft)
24.09.2023 05:02 22,7 °C 10,2 °C 58 % 92 % 1023,9 hPa 0,0 l/m² 0,0 km/h (0 Bft) W-SW 252 ° 0 min 0 W/m² 9,0 °C 10,2 °C 0,0 km/h (0 Bft)
24.09.2023 05:03 22,7 °C 10,2 °C 58 % 93 % 1023,9 hPa 0,0 l/m² 0,0 km/h (0 Bft) W-SW 252 ° 0 min 0 W/m² 9,1 °C 10,2 °C 0,0 km/h (0 Bft)
24.09.2023 05:05 22,7 °C 10,2 °C 58 % 93 % 1023,9 hPa 0,0 l/m² 0,0 km/h (0 Bft) W-SW 252 ° 0 min 0 W/m² 9,1 °C 10,2 °C 0,0 km/h (0 Bft)
24.09.2023 05:07 22,7 °C 10,2 °C 58 % 93 % 1024,0 hPa 0,0 l/m² 0,0 km/h (0 Bft) W-SW 252 ° 0 min 0 W/m² 9,1 °C 10,2 °C 0,0 km/h (0 Bft)
24.09.2023 05:09 22,7 °C 10,2 °C 58 % 92 % 1024,0 hPa 0,0 l/m² 0,0 km/h (0 Bft) W-SW 252 ° 0 min 0 W/m² 9,0 °C 10,2 °C 0,0 km/h (0 Bft)
24.09.2023 05:11 22,7 °C 10,2 °C 58 % 93 % 1024,0 hPa 0,0 l/m² 0,0 km/h (0 Bft) W-SW 252 ° 0 min 0 W/m² 9,1 °C 10,2 °C 0,0 km/h (0 Bft)
24.09.2023 05:12 22,7 °C 10,2 °C 58 % 93 % 1023,9 hPa 0,0 l/m² 0,0 km/h (0 Bft) W-SW 252 ° 0 min 0 W/m² 9,1 °C 10,2 °C 0,0 km/h (0 Bft)
24.09.2023 05:13 22,7 °C 10,2 °C 58 % 93 % 1024,0 hPa 0,0 l/m² 0,0 km/h (0 Bft) W-SW 252 ° 0 min 0 W/m² 9,1 °C 10,2 °C 0,0 km/h (0 Bft)
24.09.2023 05:15 22,7 °C 10,3 °C 58 % 93 % 1024,0 hPa 0,0 l/m² 0,0 km/h (0 Bft) W-SW 252 ° 0 min 0 W/m² 9,2 °C 10,3 °C 0,0 km/h (0 Bft)
24.09.2023 05:17 22,7 °C 10,3 °C 58 % 92 % 1024,0 hPa 0,0 l/m² 0,0 km/h (0 Bft) W-SW 252 ° 0 min 0 W/m² 9,1 °C 10,3 °C 0,0 km/h (0 Bft)
24.09.2023 05:19 22,7 °C 10,3 °C 58 % 92 % 1024,0 hPa 0,0 l/m² 0,0 km/h (0 Bft) W-SW 252 ° 0 min 0 W/m² 9,1 °C 10,3 °C 0,0 km/h (0 Bft)
24.09.2023 05:21 22,7 °C 10,3 °C 58 % 92 % 1024,0 hPa 0,0 l/m² 0,0 km/h (0 Bft) W-SW 252 ° 0 min 0 W/m² 9,1 °C 10,3 °C 0,0 km/h (0 Bft)
24.09.2023 05:22 22,6 °C 10,3 °C 58 % 92 % 1024,0 hPa 0,0 l/m² 0,0 km/h (0 Bft) W-SW 252 ° 0 min 0 W/m² 9,1 °C 10,3 °C 0,0 km/h (0 Bft)
24.09.2023 05:23 22,6 °C 10,3 °C 58 % 92 % 1024,0 hPa 0,0 l/m² 0,0 km/h (0 Bft) W-SW 252 ° 0 min 0 W/m² 9,1 °C 10,3 °C 0,0 km/h (0 Bft)
24.09.2023 05:25 22,7 °C 10,3 °C 58 % 92 % 1024,1 hPa 0,0 l/m² 0,0 km/h (0 Bft) W-SW 252 ° 0 min 0 W/m² 9,1 °C 10,3 °C 0,0 km/h (0 Bft)
24.09.2023 05:27 22,6 °C 10,3 °C 58 % 92 % 1024,0 hPa 0,0 l/m² 0,0 km/h (0 Bft) W-SW 252 ° 0 min 0 W/m² 9,1 °C 10,3 °C 0,0 km/h (0 Bft)
24.09.2023 05:29 22,6 °C 10,2 °C 58 % 92 % 1024,0 hPa 0,0 l/m² 0,0 km/h (0 Bft) W-SW 252 ° 0 min 0 W/m² 9,0 °C 10,2 °C 0,0 km/h (0 Bft)
24.09.2023 05:31 22,6 °C 10,2 °C 58 % 92 % 1024,1 hPa 0,0 l/m² 0,0 km/h (0 Bft) W-SW 252 ° 0 min 0 W/m² 9,0 °C 10,2 °C 0,0 km/h (0 Bft)
24.09.2023 05:32 22,6 °C 10,2 °C 58 % 92 % 1024,0 hPa 0,0 l/m² 0,0 km/h (0 Bft) W-SW 252 ° 0 min 0 W/m² 9,0 °C 10,2 °C 0,0 km/h (0 Bft)
24.09.2023 05:33 22,7 °C 10,2 °C 58 % 92 % 1024,1 hPa 0,0 l/m² 0,0 km/h (0 Bft) W-SW 252 ° 0 min 0 W/m² 9,0 °C 10,2 °C 0,0 km/h (0 Bft)
24.09.2023 05:35 22,6 °C 10,2 °C 58 % 92 % 1024,0 hPa 0,0 l/m² 0,0 km/h (0 Bft) W-SW 252 ° 0 min 0 W/m² 9,0 °C 10,2 °C 0,0 km/h (0 Bft)
24.09.2023 05:37 22,6 °C 10,1 °C 58 % 92 % 1024,0 hPa 0,0 l/m² 0,0 km/h (0 Bft) W-SW 252 ° 0 min 0 W/m² 8,9 °C 10,1 °C 0,0 km/h (0 Bft)
24.09.2023 05:39 22,6 °C 10,1 °C 58 % 92 % 1024,1 hPa 0,0 l/m² 0,0 km/h (0 Bft) W-SW 252 ° 0 min 0 W/m² 8,9 °C 10,1 °C 0,0 km/h (0 Bft)
24.09.2023 05:41 22,6 °C 9,9 °C 58 % 92 % 1024,1 hPa 0,0 l/m² 0,0 km/h (0 Bft) W-SW 252 ° 0 min 0 W/m² 8,7 °C 9,9 °C 0,0 km/h (0 Bft)
24.09.2023 05:42 22,6 °C 9,8 °C 58 % 92 % 1024,1 hPa 0,0 l/m² 0,0 km/h (0 Bft) W-SW 252 ° 0 min 0 W/m² 8,6 °C 9,8 °C 0,0 km/h (0 Bft)
24.09.2023 05:43 22,6 °C 9,8 °C 58 % 92 % 1024,2 hPa 0,0 l/m² 0,0 km/h (0 Bft) W-SW 252 ° 0 min 0 W/m² 8,6 °C 9,8 °C 0,0 km/h (0 Bft)
24.09.2023 05:44 22,6 °C 9,8 °C 58 % 92 % 1024,1 hPa 0,0 l/m² 0,0 km/h (0 Bft) W-SW 252 ° 0 min 0 W/m² 8,6 °C 9,8 °C 0,0 km/h (0 Bft)
24.09.2023 05:45 22,6 °C 9,8 °C 58 % 92 % 1024,2 hPa 0,0 l/m² 0,0 km/h (0 Bft) W-SW 252 ° 0 min 0 W/m² 8,6 °C 9,8 °C 0,0 km/h (0 Bft)
24.09.2023 05:47 22,6 °C 9,8 °C 58 % 92 % 1024,1 hPa 0,0 l/m² 0,0 km/h (0 Bft) W-SW 252 ° 0 min 0 W/m² 8,6 °C 9,8 °C 0,0 km/h (0 Bft)
24.09.2023 05:49 22,6 °C 9,7 °C 58 % 92 % 1024,1 hPa 0,0 l/m² 0,0 km/h (0 Bft) W-SW 252 ° 0 min 0 W/m² 8,5 °C 9,7 °C 0,0 km/h (0 Bft)
24.09.2023 05:51 22,6 °C 9,8 °C 58 % 92 % 1024,2 hPa 0,0 l/m² 0,9 km/h (0 Bft) W-SW 252 ° 0 min 0 W/m² 8,6 °C 9,8 °C 3,2 km/h (1 Bft)
24.09.2023 05:52 22,6 °C 9,7 °C 58 % 92 % 1024,2 hPa 0,0 l/m² 1,4 km/h (1 Bft) W-SW 252 ° 0 min 0 W/m² 8,5 °C 9,7 °C 3,2 km/h (1 Bft)
24.09.2023 05:53 22,6 °C 9,7 °C 58 % 92 % 1024,2 hPa 0,0 l/m² 1,3 km/h (1 Bft) W-SW 252 ° 0 min 0 W/m² 8,5 °C 9,7 °C 1,6 km/h (1 Bft)
24.09.2023 05:55 22,6 °C 9,7 °C 58 % 92 % 1024,2 hPa 0,0 l/m² 1,9 km/h (1 Bft) W-SW 252 ° 0 min 0 W/m² 8,5 °C 9,7 °C 3,2 km/h (1 Bft)
24.09.2023 05:57 22,6 °C 9,6 °C 58 % 92 % 1024,2 hPa 0,0 l/m² 2,2 km/h (1 Bft) W-SW 252 ° 0 min 0 W/m² 8,4 °C 9,6 °C 3,2 km/h (1 Bft)
24.09.2023 05:59 22,6 °C 9,6 °C 58 % 92 % 1024,3 hPa 0,0 l/m² 3,2 km/h (1 Bft) W-SW 252 ° 0 min 0 W/m² 8,4 °C 9,6 °C 4,8 km/h (1 Bft)
24.09.2023 06:01 22,6 °C 9,6 °C 58 % 92 % 1024,5 hPa 0,0 l/m² 2,2 km/h (1 Bft) W-SW 252 ° 0 min 0 W/m² 8,4 °C 9,6 °C 3,2 km/h (1 Bft)
24.09.2023 06:02 22,6 °C 9,6 °C 58 % 92 % 1024,3 hPa 0,0 l/m² 1,7 km/h (1 Bft) W-SW 252 ° 0 min 0 W/m² 8,4 °C 9,6 °C 3,2 km/h (1 Bft)
24.09.2023 06:03 22,6 °C 9,6 °C 58 % 92 % 1024,3 hPa 0,0 l/m² 1,4 km/h (1 Bft) W-SW 252 ° 0 min 0 W/m² 8,4 °C 9,6 °C 1,6 km/h (1 Bft)
24.09.2023 06:05 22,6 °C 9,6 °C 58 % 93 % 1024,4 hPa 0,0 l/m² 1,9 km/h (1 Bft) W-SW 252 ° 0 min 0 W/m² 8,5 °C 9,6 °C 3,2 km/h (1 Bft)
24.09.2023 06:07 22,6 °C 9,6 °C 58 % 93 % 1024,4 hPa 0,0 l/m² 2,0 km/h (1 Bft) W-SW 252 ° 0 min 0 W/m² 8,5 °C 9,6 °C 3,2 km/h (1 Bft)
24.09.2023 06:09 22,6 °C 9,6 °C 58 % 93 % 1024,5 hPa 0,0 l/m² 2,4 km/h (1 Bft) W-SW 252 ° 0 min 0 W/m² 8,5 °C 9,6 °C 3,2 km/h (1 Bft)
24.09.2023 06:11 22,6 °C 9,6 °C 58 % 93 % 1024,4 hPa 0,0 l/m² 1,2 km/h (1 Bft) W-SW 252 ° 0 min 0 W/m² 8,5 °C 9,6 °C 3,2 km/h (1 Bft)
24.09.2023 06:12 22,6 °C 9,5 °C 58 % 92 % 1024,6 hPa 0,0 l/m² 0,1 km/h (0 Bft) W-SW 252 ° 0 min 0 W/m² 8,3 °C 9,5 °C 1,6 km/h (1 Bft)
24.09.2023 06:13 22,6 °C 9,5 °C 58 % 93 % 1024,6 hPa 0,0 l/m² 0,0 km/h (0 Bft) W-SW 252 ° 0 min 0 W/m² 8,4 °C 9,5 °C 0,0 km/h (0 Bft)
24.09.2023 06:15 22,6 °C 9,5 °C 58 % 93 % 1024,6 hPa 0,0 l/m² 0,0 km/h (0 Bft) W-SW 252 ° 0 min 0 W/m² 8,4 °C 9,5 °C 0,0 km/h (0 Bft)
24.09.2023 06:17 22,6 °C 9,5 °C 58 % 93 % 1024,6 hPa 0,0 l/m² 0,0 km/h (0 Bft) W-SW 252 ° 0 min 0 W/m² 8,4 °C 9,5 °C 0,0 km/h (0 Bft)
24.09.2023 06:19 22,6 °C 9,5 °C 58 % 93 % 1024,7 hPa 0,0 l/m² 0,0 km/h (0 Bft) W-SW 252 ° 0 min 0 W/m² 8,4 °C 9,5 °C 0,0 km/h (0 Bft)
24.09.2023 06:21 22,6 °C 9,5 °C 58 % 93 % 1024,7 hPa 0,0 l/m² 0,0 km/h (0 Bft) W-SW 252 ° 0 min 0 W/m² 8,4 °C 9,5 °C 0,0 km/h (0 Bft)
24.09.2023 06:22 22,6 °C 9,5 °C 58 % 93 % 1024,7 hPa 0,0 l/m² 0,0 km/h (0 Bft) W-SW 252 ° 0 min 0 W/m² 8,4 °C 9,5 °C 0,0 km/h (0 Bft)
24.09.2023 06:23 22,6 °C 9,4 °C 58 % 93 % 1024,7 hPa 0,0 l/m² 0,0 km/h (0 Bft) W-SW 252 ° 0 min 0 W/m² 8,3 °C 9,4 °C 0,0 km/h (0 Bft)
24.09.2023 06:25 22,6 °C 9,5 °C 58 % 93 % 1024,9 hPa 0,0 l/m² 0,0 km/h (0 Bft) W-SW 252 ° 0 min 0 W/m² 8,4 °C 9,5 °C 0,0 km/h (0 Bft)
24.09.2023 06:27 22,6 °C 9,5 °C 58 % 93 % 1024,9 hPa 0,0 l/m² 0,0 km/h (0 Bft) W-SW 252 ° 0 min 0 W/m² 8,4 °C 9,5 °C 0,0 km/h (0 Bft)
24.09.2023 06:29 22,6 °C 9,5 °C 58 % 93 % 1025,0 hPa 0,0 l/m² 0,0 km/h (0 Bft) W-SW 252 ° 0 min 0 W/m² 8,4 °C 9,5 °C 0,0 km/h (0 Bft)
24.09.2023 06:31 22,6 °C 9,4 °C 58 % 92 % 1025,0 hPa 0,0 l/m² 0,0 km/h (0 Bft) W-SW 252 ° 0 min 0 W/m² 8,2 °C 9,4 °C 0,0 km/h (0 Bft)
24.09.2023 06:32 22,6 °C 9,3 °C 58 % 92 % 1025,0 hPa 0,0 l/m² 0,0 km/h (0 Bft) W-SW 252 ° 0 min 0 W/m² 8,1 °C 9,3 °C 0,0 km/h (0 Bft)
24.09.2023 06:33 22,6 °C 9,3 °C 58 % 93 % 1025,0 hPa 0,0 l/m² 0,0 km/h (0 Bft) W-SW 252 ° 0 min 0 W/m² 8,2 °C 9,3 °C 0,0 km/h (0 Bft)
24.09.2023 06:34 22,6 °C 9,3 °C 58 % 93 % 1025,0 hPa 0,0 l/m² 0,0 km/h (0 Bft) W-SW 252 ° 0 min 0 W/m² 8,2 °C 9,3 °C 0,0 km/h (0 Bft)
24.09.2023 06:35 22,6 °C 9,3 °C 58 % 93 % 1024,8 hPa 0,0 l/m² 0,0 km/h (0 Bft) W-SW 252 ° 0 min 0 W/m² 8,2 °C 9,3 °C 0,0 km/h (0 Bft)
24.09.2023 06:37 22,6 °C 9,3 °C 58 % 93 % 1025,0 hPa 0,0 l/m² 0,0 km/h (0 Bft) W-SW 252 ° 0 min 0 W/m² 8,2 °C 9,3 °C 0,0 km/h (0 Bft)
24.09.2023 06:39 22,6 °C 9,3 °C 58 % 93 % 1025,0 hPa 0,0 l/m² 0,0 km/h (0 Bft) W-SW 252 ° 0 min 0 W/m² 8,2 °C 9,3 °C 0,0 km/h (0 Bft)
24.09.2023 06:41 22,6 °C 9,4 °C 58 % 93 % 1025,0 hPa 0,0 l/m² 0,0 km/h (0 Bft) W-SW 252 ° 0 min 0 W/m² 8,3 °C 9,4 °C 0,0 km/h (0 Bft)
24.09.2023 06:42 22,6 °C 9,4 °C 58 % 93 % 1025,0 hPa 0,0 l/m² 0,0 km/h (0 Bft) W-SW 252 ° 0 min 0 W/m² 8,3 °C 9,4 °C 0,0 km/h (0 Bft)
24.09.2023 06:43 22,5 °C 9,4 °C 58 % 93 % 1025,1 hPa 0,0 l/m² 0,0 km/h (0 Bft) W-SW 252 ° 0 min 0 W/m² 8,3 °C 9,4 °C 0,0 km/h (0 Bft)
24.09.2023 06:45 22,6 °C 9,3 °C 58 % 93 % 1025,1 hPa 0,0 l/m² 0,0 km/h (0 Bft) W-SW 252 ° 0 min 0 W/m² 8,2 °C 9,3 °C 0,0 km/h (0 Bft)
24.09.2023 06:47 22,6 °C 9,2 °C 58 % 93 % 1025,1 hPa 0,0 l/m² 0,0 km/h (0 Bft) W-SW 252 ° 0 min 0 W/m² 8,1 °C 9,2 °C 0,0 km/h (0 Bft)
24.09.2023 06:48 22,6 °C 9,2 °C 58 % 93 % 1025,1 hPa 0,0 l/m² 0,0 km/h (0 Bft) W-SW 252 ° 0 min 0 W/m² 8,1 °C 9,2 °C 0,0 km/h (0 Bft)
24.09.2023 06:50 22,6 °C 9,2 °C 58 % 93 % 1025,2 hPa 0,0 l/m² 0,0 km/h (0 Bft) W-SW 252 ° 0 min 0 W/m² 8,1 °C 9,2 °C 0,0 km/h (0 Bft)
24.09.2023 06:51 22,6 °C 9,2 °C 58 % 92 % 1025,2 hPa 0,0 l/m² 0,0 km/h (0 Bft) W-SW 252 ° 0 min 0 W/m² 8,0 °C 9,2 °C 0,0 km/h (0 Bft)
24.09.2023 06:52 22,6 °C 9,1 °C 58 % 92 % 1025,2 hPa 0,0 l/m² 0,0 km/h (0 Bft) W-SW 252 ° 0 min 0 W/m² 7,9 °C 9,1 °C 0,0 km/h (0 Bft)
24.09.2023 06:53 22,5 °C 9,1 °C 58 % 92 % 1025,2 hPa 0,0 l/m² 0,0 km/h (0 Bft) W-SW 252 ° 0 min 0 W/m² 7,9 °C 9,1 °C 0,0 km/h (0 Bft)
24.09.2023 06:54 22,6 °C 9,1 °C 58 % 92 % 1025,3 hPa 0,0 l/m² 0,0 km/h (0 Bft) W-SW 252 ° 0 min 0 W/m² 7,9 °C 9,1 °C 0,0 km/h (0 Bft)
24.09.2023 06:55 22,5 °C 9,1 °C 58 % 92 % 1025,3 hPa 0,0 l/m² 0,0 km/h (0 Bft) W-SW 252 ° 0 min 0 W/m² 7,9 °C 9,1 °C 0,0 km/h (0 Bft)
24.09.2023 06:57 22,6 °C 8,9 °C 58 % 92 % 1025,3 hPa 0,0 l/m² 0,0 km/h (0 Bft) W-SW 252 ° 0 min 0 W/m² 7,7 °C 8,9 °C 0,0 km/h (0 Bft)
24.09.2023 06:59 22,6 °C 8,9 °C 58 % 92 % 1025,3 hPa 0,0 l/m² 0,0 km/h (0 Bft) W-SW 252 ° 0 min 0 W/m² 7,7 °C 8,9 °C 0,0 km/h (0 Bft)
24.09.2023 07:00 22,6 °C 8,9 °C 58 % 93 % 1025,3 hPa 0,0 l/m² 0,0 km/h (0 Bft) W-SW 252 ° 0 min 0 W/m² 7,8 °C 8,9 °C 0,0 km/h (0 Bft)
24.09.2023 07:02 22,6 °C 8,9 °C 58 % 93 % 1025,3 hPa 0,0 l/m² 0,0 km/h (0 Bft) W-SW 252 ° 0 min 0 W/m² 7,8 °C 8,9 °C 0,0 km/h (0 Bft)
24.09.2023 07:04 22,6 °C 8,8 °C 58 % 93 % 1025,4 hPa 0,0 l/m² 0,0 km/h (0 Bft) W-SW 252 ° 0 min 0 W/m² 7,7 °C 8,8 °C 0,0 km/h (0 Bft)
24.09.2023 07:06 22,6 °C 8,8 °C 58 % 93 % 1025,5 hPa 0,0 l/m² 0,0 km/h (0 Bft) W-SW 252 ° 0 min 0 W/m² 7,7 °C 8,8 °C 0,0 km/h (0 Bft)
24.09.2023 07:08 22,5 °C 8,7 °C 58 % 92 % 1025,5 hPa 0,0 l/m² 0,0 km/h (0 Bft) W-SW 252 ° 0 min 5 W/m² 7,5 °C 8,7 °C 0,0 km/h (0 Bft)
24.09.2023 07:10 22,5 °C 8,7 °C 58 % 92 % 1025,5 hPa 0,0 l/m² 0,0 km/h (0 Bft) W-SW 252 ° 0 min 5 W/m² 7,5 °C 8,7 °C 0,0 km/h (0 Bft)
24.09.2023 07:11 22,6 °C 8,7 °C 58 % 93 % 1025,5 hPa 0,0 l/m² 0,0 km/h (0 Bft) W-SW 252 ° 0 min 5 W/m² 7,6 °C 8,7 °C 0,0 km/h (0 Bft)
24.09.2023 07:13 22,5 °C 8,6 °C 58 % 93 % 1025,5 hPa 0,0 l/m² 0,1 km/h (0 Bft) W-SW 252 ° 0 min 5 W/m² 7,5 °C 8,6 °C 1,6 km/h (1 Bft)
24.09.2023 07:15 22,6 °C 8,6 °C 58 % 93 % 1025,5 hPa 0,0 l/m² 0,0 km/h (0 Bft) W-SW 252 ° 0 min 7 W/m² 7,5 °C 8,6 °C 0,0 km/h (0 Bft)
24.09.2023 07:17 22,5 °C 8,6 °C 58 % 93 % 1025,4 hPa 0,0 l/m² 0,7 km/h (0 Bft) W-SW 252 ° 0 min 7 W/m² 7,5 °C 8,6 °C 3,2 km/h (1 Bft)
24.09.2023 07:19 22,5 °C 8,7 °C 58 % 93 % 1025,5 hPa 0,0 l/m² 1,4 km/h (1 Bft) W-SW 252 ° 0 min 9 W/m² 7,6 °C 8,7 °C 3,2 km/h (1 Bft)
24.09.2023 07:20 22,5 °C 8,8 °C 58 % 93 % 1025,5 hPa 0,0 l/m² 0,0 km/h (0 Bft) W-SW 252 ° 0 min 9 W/m² 7,7 °C 8,8 °C 0,0 km/h (0 Bft)
24.09.2023 07:22 22,5 °C 8,8 °C 58 % 93 % 1025,6 hPa 0,0 l/m² 0,1 km/h (0 Bft) W-SW 252 ° 0 min 11 W/m² 7,7 °C 8,8 °C 1,6 km/h (1 Bft)
24.09.2023 07:24 22,6 °C 8,8 °C 58 % 93 % 1025,7 hPa 0,0 l/m² 0,1 km/h (0 Bft) W-SW 252 ° 0 min 11 W/m² 7,7 °C 8,8 °C 1,6 km/h (1 Bft)
24.09.2023 07:26 22,5 °C 8,8 °C 58 % 93 % 1025,7 hPa 0,0 l/m² 0,0 km/h (0 Bft) W-SW 252 ° 0 min 14 W/m² 7,7 °C 8,8 °C 0,0 km/h (0 Bft)
24.09.2023 07:28 22,5 °C 8,9 °C 58 % 93 % 1025,8 hPa 0,0 l/m² 0,1 km/h (0 Bft) W-SW 252 ° 0 min 16 W/m² 7,8 °C 8,9 °C 1,6 km/h (1 Bft)
24.09.2023 07:30 22,5 °C 8,9 °C 58 % 93 % 1025,8 hPa 0,0 l/m² 0,3 km/h (0 Bft) W-SW 252 ° 0 min 16 W/m² 7,8 °C 8,9 °C 1,6 km/h (1 Bft)
24.09.2023 07:31 22,5 °C 8,9 °C 58 % 93 % 1025,7 hPa 0,0 l/m² 0,0 km/h (0 Bft) W-SW 252 ° 0 min 16 W/m² 7,8 °C 8,9 °C 0,0 km/h (0 Bft)
24.09.2023 07:33 22,5 °C 9,0 °C 58 % 93 % 1025,8 hPa 0,0 l/m² 0,1 km/h (0 Bft) W-SW 252 ° 0 min 14 W/m² 7,9 °C 9,0 °C 1,6 km/h (1 Bft)
24.09.2023 07:35 22,6 °C 9,1 °C 58 % 93 % 1025,9 hPa 0,0 l/m² 1,0 km/h (0 Bft) W-SW 252 ° 0 min 14 W/m² 8,0 °C 9,1 °C 3,2 km/h (1 Bft)
24.09.2023 07:37 22,5 °C 9,1 °C 58 % 93 % 1025,9 hPa 0,0 l/m² 1,0 km/h (0 Bft) W-SW 252 ° 0 min 16 W/m² 8,0 °C 9,1 °C 3,2 km/h (1 Bft)
24.09.2023 07:39 22,5 °C 9,2 °C 58 % 93 % 1025,8 hPa 0,0 l/m² 0,0 km/h (0 Bft) W-SW 252 ° 0 min 18 W/m² 8,1 °C 9,2 °C 0,0 km/h (0 Bft)
24.09.2023 07:40 22,5 °C 9,2 °C 58 % 93 % 1025,9 hPa 0,0 l/m² 0,0 km/h (0 Bft) W-SW 252 ° 0 min 18 W/m² 8,1 °C 9,2 °C 0,0 km/h (0 Bft)
24.09.2023 07:42 22,5 °C 9,2 °C 58 % 93 % 1025,9 hPa 0,0 l/m² 0,7 km/h (0 Bft) W-SW 252 ° 0 min 18 W/m² 8,1 °C 9,2 °C 1,6 km/h (1 Bft)
24.09.2023 07:44 22,5 °C 9,2 °C 58 % 93 % 1025,9 hPa 0,0 l/m² 0,2 km/h (0 Bft) W-SW 252 ° 0 min 19 W/m² 8,1 °C 9,2 °C 1,6 km/h (1 Bft)
24.09.2023 07:46 22,5 °C 9,3 °C 58 % 93 % 1025,8 hPa 0,0 l/m² 0,0 km/h (0 Bft) W-SW 252 ° 0 min 21 W/m² 8,2 °C 9,3 °C 1,6 km/h (1 Bft)
24.09.2023 07:48 22,5 °C 9,4 °C 58 % 93 % 1025,9 hPa 0,0 l/m² 0,0 km/h (0 Bft) W-SW 252 ° 0 min 23 W/m² 8,3 °C 9,4 °C 0,0 km/h (0 Bft)
24.09.2023 07:50 22,4 °C 9,6 °C 58 % 93 % 1026,0 hPa 0,0 l/m² 0,0 km/h (0 Bft) W-SW 252 ° 0 min 25 W/m² 8,5 °C 9,6 °C 1,6 km/h (1 Bft)
24.09.2023 07:51 22,5 °C 9,6 °C 58 % 93 % 1026,0 hPa 0,0 l/m² 0,0 km/h (0 Bft) W-SW 252 ° 0 min 23 W/m² 8,5 °C 9,6 °C 0,0 km/h (0 Bft)
24.09.2023 07:53 22,5 °C 9,6 °C 58 % 93 % 1026,0 hPa 0,0 l/m² 0,0 km/h (0 Bft) W-SW 252 ° 0 min 21 W/m² 8,5 °C 9,6 °C 1,6 km/h (1 Bft)
24.09.2023 07:55 22,5 °C 9,7 °C 58 % 93 % 1026,1 hPa 0,0 l/m² 0,0 km/h (0 Bft) W-SW 252 ° 0 min 21 W/m² 8,6 °C 9,7 °C 0,0 km/h (0 Bft)
24.09.2023 07:57 22,5 °C 9,8 °C 58 % 93 % 1026,1 hPa 0,0 l/m² 0,0 km/h (0 Bft) W-SW 252 ° 0 min 21 W/m² 8,7 °C 9,8 °C 0,0 km/h (0 Bft)
24.09.2023 07:59 22,4 °C 9,8 °C 58 % 93 % 1026,1 hPa 0,0 l/m² 0,0 km/h (0 Bft) W-SW 252 ° 0 min 23 W/m² 8,7 °C 9,8 °C 0,0 km/h (0 Bft)
24.09.2023 08:00 22,5 °C 9,8 °C 58 % 93 % 1026,1 hPa 0,0 l/m² 0,0 km/h (0 Bft) W-SW 252 ° 0 min 25 W/m² 8,7 °C 9,8 °C 0,0 km/h (0 Bft)
24.09.2023 08:02 22,5 °C 9,9 °C 58 % 93 % 1026,1 hPa 0,0 l/m² 0,0 km/h (0 Bft) W-SW 252 ° 0 min 25 W/m² 8,8 °C 9,9 °C 0,0 km/h (0 Bft)
24.09.2023 08:04 22,5 °C 9,9 °C 58 % 93 % 1026,1 hPa 0,0 l/m² 0,0 km/h (0 Bft) W-SW 252 ° 0 min 23 W/m² 8,8 °C 9,9 °C 1,6 km/h (1 Bft)
24.09.2023 08:06 22,5 °C 10,0 °C 58 % 93 % 1026,2 hPa 0,0 l/m² 0,1 km/h (0 Bft) W-SW 252 ° 0 min 25 W/m² 8,9 °C 10,0 °C 1,6 km/h (1 Bft)
24.09.2023 08:08 22,5 °C 10,1 °C 58 % 93 % 1026,3 hPa 0,0 l/m² 0,3 km/h (0 Bft) W-SW 252 ° 0 min 25 W/m² 9,0 °C 10,1 °C 1,6 km/h (1 Bft)
24.09.2023 08:10 22,5 °C 10,2 °C 58 % 93 % 1026,2 hPa 0,0 l/m² 0,2 km/h (0 Bft) W-SW 252 ° 0 min 28 W/m² 9,1 °C 10,2 °C 1,6 km/h (1 Bft)
24.09.2023 08:11 22,5 °C 10,2 °C 58 % 93 % 1026,2 hPa 0,0 l/m² 0,6 km/h (0 Bft) W-SW 252 ° 0 min 28 W/m² 9,1 °C 10,2 °C 1,6 km/h (1 Bft)
24.09.2023 08:12 22,5 °C 10,2 °C 58 % 93 % 1026,2 hPa 0,0 l/m² 0,3 km/h (0 Bft) W-SW 252 ° 0 min 32 W/m² 9,1 °C 10,2 °C 1,6 km/h (1 Bft)
24.09.2023 08:13 22,5 °C 10,3 °C 58 % 93 % 1026,3 hPa 0,0 l/m² 1,6 km/h (1 Bft) W-SW 252 ° 0 min 32 W/m² 9,2 °C 10,3 °C 3,2 km/h (1 Bft)
24.09.2023 08:15 22,5 °C 10,3 °C 59 % 93 % 1026,3 hPa 0,0 l/m² 0,0 km/h (0 Bft) W-SW 253 ° 0 min 32 W/m² 9,2 °C 10,3 °C 0,0 km/h (0 Bft)
24.09.2023 08:17 22,5 °C 10,4 °C 59 % 93 % 1026,4 hPa 0,0 l/m² 1,4 km/h (1 Bft) W-SW 253 ° 0 min 33 W/m² 9,3 °C 10,4 °C 3,2 km/h (1 Bft)
24.09.2023 08:19 22,6 °C 10,5 °C 59 % 93 % 1026,4 hPa 0,0 l/m² 0,7 km/h (0 Bft) W-SW 253 ° 0 min 35 W/m² 9,4 °C 10,5 °C 3,2 km/h (1 Bft)
24.09.2023 08:20 22,5 °C 10,5 °C 59 % 93 % 1026,4 hPa 0,0 l/m² 0,3 km/h (0 Bft) W-SW 253 ° 0 min 35 W/m² 9,4 °C 10,5 °C 1,6 km/h (1 Bft)
24.09.2023 08:22 22,6 °C 10,6 °C 59 % 92 % 1026,4 hPa 0,0 l/m² 0,8 km/h (0 Bft) W-SW 253 ° 0 min 37 W/m² 9,4 °C 10,6 °C 3,2 km/h (1 Bft)
24.09.2023 08:24 22,6 °C 10,6 °C 59 % 93 % 1026,4 hPa 0,0 l/m² 0,0 km/h (0 Bft) W-SW 253 ° 0 min 42 W/m² 9,5 °C 10,6 °C 0,0 km/h (0 Bft)
24.09.2023 08:26 22,6 °C 10,7 °C 59 % 93 % 1026,4 hPa 0,0 l/m² 0,0 km/h (0 Bft) W-SW 253 ° 0 min 47 W/m² 9,6 °C 10,7 °C 0,0 km/h (0 Bft)
24.09.2023 08:28 22,6 °C 10,7 °C 59 % 92 % 1026,4 hPa 0,0 l/m² 0,0 km/h (0 Bft) W-SW 253 ° 0 min 51 W/m² 9,5 °C 10,7 °C 0,0 km/h (0 Bft)
24.09.2023 08:30 22,6 °C 10,8 °C 59 % 92 % 1026,4 hPa 0,0 l/m² 0,0 km/h (0 Bft) W-SW 253 ° 0 min 51 W/m² 9,6 °C 10,8 °C 0,0 km/h (0 Bft)
24.09.2023 08:31 22,6 °C 10,8 °C 59 % 92 % 1026,4 hPa 0,0 l/m² 0,0 km/h (0 Bft) W-SW 253 ° 0 min 51 W/m² 9,6 °C 10,8 °C 0,0 km/h (0 Bft)
24.09.2023 08:32 22,6 °C 10,8 °C 59 % 92 % 1026,4 hPa 0,0 l/m² 0,0 km/h (0 Bft) W-SW 253 ° 0 min 51 W/m² 9,6 °C 10,8 °C 0,0 km/h (0 Bft)
24.09.2023 08:33 22,6 °C 10,8 °C 59 % 92 % 1026,5 hPa 0,0 l/m² 0,1 km/h (0 Bft) W-SW 253 ° 0 min 51 W/m² 9,6 °C 10,8 °C 1,6 km/h (1 Bft)
24.09.2023 08:35 22,6 °C 10,9 °C 59 % 92 % 1026,5 hPa 0,0 l/m² 0,1 km/h (0 Bft) W-SW 253 ° 0 min 49 W/m² 9,7 °C 10,9 °C 1,6 km/h (1 Bft)
24.09.2023 08:37 22,6 °C 10,9 °C 59 % 92 % 1026,6 hPa 0,0 l/m² 0,0 km/h (0 Bft) W-SW 253 ° 0 min 46 W/m² 9,7 °C 10,9 °C 0,0 km/h (0 Bft)
24.09.2023 08:39 22,6 °C 11,0 °C 59 % 92 % 1026,6 hPa 0,0 l/m² 0,0 km/h (0 Bft) W-SW 253 ° 0 min 46 W/m² 9,8 °C 11,0 °C 1,6 km/h (1 Bft)
24.09.2023 08:40 22,6 °C 11,0 °C 59 % 92 % 1026,7 hPa 0,0 l/m² 0,0 km/h (0 Bft) W-SW 253 ° 0 min 47 W/m² 9,8 °C 11,0 °C 0,0 km/h (0 Bft)
24.09.2023 08:42 22,6 °C 11,1 °C 59 % 92 % 1026,8 hPa 0,0 l/m² 0,0 km/h (0 Bft) W-SW 253 ° 0 min 49 W/m² 9,8 °C 11,1 °C 0,0 km/h (0 Bft)
24.09.2023 08:44 22,7 °C 11,1 °C 59 % 91 % 1026,8 hPa 0,0 l/m² 0,0 km/h (0 Bft) W-SW 253 ° 0 min 44 W/m² 9,7 °C 11,1 °C 0,0 km/h (0 Bft)
24.09.2023 08:46 22,6 °C 11,2 °C 59 % 91 % 1026,8 hPa 0,0 l/m² 0,0 km/h (0 Bft) W-SW 253 ° 0 min 40 W/m² 9,8 °C 11,2 °C 0,0 km/h (0 Bft)
24.09.2023 08:48 22,6 °C 11,2 °C 59 % 92 % 1026,8 hPa 0,0 l/m² 0,0 km/h (0 Bft) W-SW 253 ° 0 min 35 W/m² 9,9 °C 11,2 °C 0,0 km/h (0 Bft)
24.09.2023 08:50 22,7 °C 11,2 °C 59 % 91 % 1026,8 hPa 0,0 l/m² 0,0 km/h (0 Bft) W-SW 253 ° 0 min 32 W/m² 9,8 °C 11,2 °C 1,6 km/h (1 Bft)
24.09.2023 08:51 22,6 °C 11,2 °C 59 % 91 % 1026,9 hPa 0,0 l/m² 0,0 km/h (0 Bft) W-SW 253 ° 0 min 32 W/m² 9,8 °C 11,2 °C 0,0 km/h (0 Bft)
24.09.2023 08:53 22,6 °C 11,3 °C 59 % 91 % 1026,8 hPa 0,0 l/m² 0,0 km/h (0 Bft) W 266 ° 0 min 33 W/m² 9,9 °C 11,3 °C 0,0 km/h (0 Bft)
24.09.2023 08:55 22,7 °C 11,3 °C 59 % 91 % 1026,8 hPa 0,0 l/m² 0,0 km/h (0 Bft) W 266 ° 0 min 35 W/m² 9,9 °C 11,3 °C 0,0 km/h (0 Bft)
24.09.2023 08:57 22,7 °C 11,3 °C 59 % 91 % 1026,8 hPa 0,0 l/m² 0,0 km/h (0 Bft) W 266 ° 0 min 39 W/m² 9,9 °C 11,3 °C 0,0 km/h (0 Bft)
24.09.2023 08:59 22,7 °C 11,3 °C 59 % 91 % 1026,9 hPa 0,0 l/m² 0,0 km/h (0 Bft) W 266 ° 0 min 40 W/m² 9,9 °C 11,3 °C 0,0 km/h (0 Bft)
24.09.2023 09:01 22,6 °C 11,4 °C 59 % 91 % 1026,9 hPa 0,0 l/m² 0,0 km/h (0 Bft) W 266 ° 0 min 39 W/m² 10,0 °C 11,4 °C 0,0 km/h (0 Bft)
24.09.2023 09:02 22,7 °C 11,4 °C 59 % 91 % 1026,9 hPa 0,0 l/m² 0,0 km/h (0 Bft) W 266 ° 0 min 40 W/m² 10,0 °C 11,4 °C 0,0 km/h (0 Bft)
24.09.2023 09:03 22,6 °C 11,4 °C 59 % 91 % 1027,0 hPa 0,0 l/m² 0,0 km/h (0 Bft) W 266 ° 0 min 40 W/m² 10,0 °C 11,4 °C 0,0 km/h (0 Bft)
24.09.2023 09:04 22,7 °C 11,3 °C 59 % 91 % 1027,0 hPa 0,0 l/m² 0,0 km/h (0 Bft) W 266 ° 0 min 42 W/m² 9,9 °C 11,3 °C 0,0 km/h (0 Bft)
24.09.2023 09:06 22,7 °C 11,4 °C 59 % 91 % 1027,0 hPa 0,0 l/m² 0,0 km/h (0 Bft) W 266 ° 0 min 47 W/m² 10,0 °C 11,4 °C 0,0 km/h (0 Bft)
24.09.2023 09:08 22,6 °C 11,4 °C 59 % 91 % 1027,1 hPa 0,0 l/m² 0,0 km/h (0 Bft) W 266 ° 2 min 54 W/m² 10,0 °C 11,4 °C 0,0 km/h (0 Bft)
24.09.2023 09:10 22,6 °C 11,5 °C 59 % 91 % 1027,1 hPa 0,0 l/m² 0,0 km/h (0 Bft) W 266 ° 2 min 62 W/m² 10,1 °C 11,5 °C 0,0 km/h (0 Bft)
24.09.2023 09:11 22,7 °C 11,5 °C 59 % 91 % 1027,1 hPa 0,0 l/m² 0,0 km/h (0 Bft) W 266 ° 1 min 65 W/m² 10,1 °C 11,5 °C 0,0 km/h (0 Bft)
24.09.2023 09:12 22,7 °C 11,5 °C 59 % 91 % 1027,1 hPa 0,0 l/m² 0,0 km/h (0 Bft) W 266 ° 1 min 69 W/m² 10,1 °C 11,5 °C 0,0 km/h (0 Bft)
24.09.2023 09:13 22,6 °C 11,6 °C 59 % 91 % 1027,0 hPa 0,0 l/m² 0,0 km/h (0 Bft) W 266 ° 1 min 70 W/m² 10,2 °C 11,6 °C 0,0 km/h (0 Bft)
24.09.2023 09:15 22,6 °C 11,7 °C 59 % 91 % 1027,0 hPa 0,0 l/m² 0,0 km/h (0 Bft) W 266 ° 2 min 76 W/m² 10,3 °C 11,7 °C 0,0 km/h (0 Bft)
24.09.2023 09:17 22,6 °C 11,7 °C 59 % 91 % 1027,1 hPa 0,0 l/m² 0,0 km/h (0 Bft) W 266 ° 2 min 74 W/m² 10,3 °C 11,7 °C 0,0 km/h (0 Bft)
24.09.2023 09:19 22,6 °C 11,7 °C 59 % 91 % 1027,2 hPa 0,0 l/m² 0,0 km/h (0 Bft) W 266 ° 2 min 76 W/m² 10,3 °C 11,7 °C 0,0 km/h (0 Bft)
24.09.2023 09:21 22,6 °C 11,8 °C 59 % 91 % 1027,1 hPa 0,0 l/m² 0,0 km/h (0 Bft) W 266 ° 2 min 83 W/m² 10,4 °C 11,8 °C 0,0 km/h (0 Bft)
24.09.2023 09:22 22,6 °C 11,8 °C 59 % 91 % 1027,1 hPa 0,0 l/m² 0,0 km/h (0 Bft) W 266 ° 1 min 91 W/m² 10,4 °C 11,8 °C 0,0 km/h (0 Bft)
24.09.2023 09:23 22,6 °C 11,8 °C 59 % 91 % 1027,1 hPa 0,0 l/m² 0,0 km/h (0 Bft) W 266 ° 1 min 95 W/m² 10,4 °C 11,8 °C 0,0 km/h (0 Bft)
24.09.2023 09:24 22,6 °C 11,8 °C 59 % 91 % 1027,1 hPa 0,0 l/m² 0,0 km/h (0 Bft) W 266 ° 1 min 97 W/m² 10,4 °C 11,8 °C 0,0 km/h (0 Bft)
24.09.2023 09:26 22,6 °C 11,9 °C 59 % 91 % 1027,1 hPa 0,0 l/m² 0,0 km/h (0 Bft) W 266 ° 2 min 98 W/m² 10,5 °C 11,9 °C 0,0 km/h (0 Bft)
24.09.2023 09:28 22,6 °C 12,0 °C 59 % 91 % 1027,1 hPa 0,0 l/m² 0,0 km/h (0 Bft) W 266 ° 2 min 100 W/m² 10,6 °C 12,0 °C 0,0 km/h (0 Bft)
24.09.2023 09:30 22,6 °C 12,1 °C 59 % 91 % 1027,2 hPa 0,0 l/m² 0,1 km/h (0 Bft) W 266 ° 2 min 100 W/m² 10,7 °C 12,1 °C 1,6 km/h (1 Bft)
24.09.2023 09:31 22,6 °C 12,1 °C 59 % 91 % 1027,2 hPa 0,0 l/m² 1,8 km/h (1 Bft) W 266 ° 1 min 98 W/m² 10,7 °C 12,1 °C 4,8 km/h (1 Bft)
24.09.2023 09:32 22,6 °C 12,1 °C 59 % 91 % 1027,2 hPa 0,0 l/m² 1,5 km/h (1 Bft) W 266 ° 1 min 95 W/m² 10,7 °C 12,1 °C 3,2 km/h (1 Bft)
24.09.2023 09:33 22,6 °C 12,2 °C 59 % 91 % 1027,2 hPa 0,0 l/m² 2,1 km/h (1 Bft) W 266 ° 1 min 93 W/m² 10,8 °C 12,2 °C 3,2 km/h (1 Bft)
24.09.2023 09:35 22,6 °C 12,2 °C 58 % 91 % 1027,1 hPa 0,0 l/m² 2,4 km/h (1 Bft) W 266 ° 2 min 97 W/m² 10,8 °C 12,2 °C 4,8 km/h (1 Bft)
24.09.2023 09:37 22,6 °C 12,3 °C 58 % 90 % 1027,2 hPa 0,0 l/m² 2,9 km/h (1 Bft) W 266 ° 2 min 102 W/m² 10,7 °C 12,3 °C 4,8 km/h (1 Bft)
24.09.2023 09:39 22,6 °C 12,3 °C 58 % 90 % 1027,1 hPa 0,0 l/m² 2,2 km/h (1 Bft) W 266 ° 2 min 104 W/m² 10,7 °C 12,3 °C 3,2 km/h (1 Bft)
24.09.2023 09:41 22,6 °C 12,3 °C 58 % 90 % 1027,2 hPa 0,0 l/m² 1,5 km/h (1 Bft) W 266 ° 2 min 107 W/m² 10,7 °C 12,3 °C 3,2 km/h (1 Bft)
24.09.2023 09:42 22,6 °C 12,4 °C 58 % 90 % 1027,3 hPa 0,0 l/m² 1,0 km/h (0 Bft) W 266 ° 1 min 109 W/m² 10,8 °C 12,4 °C 1,6 km/h (1 Bft)
24.09.2023 09:43 22,6 °C 12,4 °C 58 % 90 % 1027,3 hPa 0,0 l/m² 0,6 km/h (0 Bft) W 266 ° 1 min 113 W/m² 10,8 °C 12,4 °C 1,6 km/h (1 Bft)
24.09.2023 09:44 22,6 °C 12,4 °C 58 % 89 % 1027,3 hPa 0,0 l/m² 1,6 km/h (1 Bft) W 266 ° 1 min 114 W/m² 10,6 °C 12,4 °C 3,2 km/h (1 Bft)
24.09.2023 09:47 22,6 °C 12,6 °C 58 % 89 % 1027,3 hPa 0,0 l/m² 1,1 km/h (1 Bft) W 266 ° 3 min 118 W/m² 10,8 °C 12,6 °C 3,2 km/h (1 Bft)
24.09.2023 09:49 22,6 °C 12,7 °C 58 % 89 % 1027,4 hPa 0,0 l/m² 0,9 km/h (0 Bft) W 266 ° 2 min 118 W/m² 10,9 °C 12,7 °C 3,2 km/h (1 Bft)
24.09.2023 09:51 22,6 °C 12,7 °C 58 % 89 % 1027,4 hPa 0,0 l/m² 0,5 km/h (0 Bft) W 266 ° 2 min 114 W/m² 10,9 °C 12,7 °C 1,6 km/h (1 Bft)
24.09.2023 09:52 22,6 °C 12,7 °C 58 % 89 % 1027,5 hPa 0,0 l/m² 1,5 km/h (1 Bft) W 266 ° 1 min 109 W/m² 10,9 °C 12,7 °C 3,2 km/h (1 Bft)
24.09.2023 09:53 22,6 °C 12,7 °C 58 % 89 % 1027,5 hPa 0,0 l/m² 1,4 km/h (1 Bft) W 266 ° 1 min 107 W/m² 10,9 °C 12,7 °C 3,2 km/h (1 Bft)
24.09.2023 09:54 22,6 °C 12,8 °C 58 % 89 % 1027,5 hPa 0,0 l/m² 2,3 km/h (1 Bft) W 266 ° 1 min 105 W/m² 11,0 °C 12,8 °C 4,8 km/h (1 Bft)
24.09.2023 09:56 22,6 °C 12,8 °C 58 % 89 % 1027,5 hPa 0,0 l/m² 2,0 km/h (1 Bft) W 266 ° 2 min 105 W/m² 11,0 °C 12,8 °C 3,2 km/h (1 Bft)
24.09.2023 09:58 22,6 °C 12,8 °C 58 % 89 % 1027,5 hPa 0,0 l/m² 1,6 km/h (1 Bft) W 266 ° 2 min 107 W/m² 11,0 °C 12,8 °C 3,2 km/h (1 Bft)
24.09.2023 10:00 22,6 °C 12,9 °C 58 % 89 % 1027,5 hPa 0,0 l/m² 1,1 km/h (1 Bft) W 266 ° 2 min 114 W/m² 11,1 °C 12,9 °C 3,2 km/h (1 Bft)
24.09.2023 10:01 22,6 °C 12,9 °C 58 % 88 % 1027,5 hPa 0,0 l/m² 0,6 km/h (0 Bft) W 266 ° 1 min 116 W/m² 11,0 °C 12,9 °C 1,6 km/h (1 Bft)
24.09.2023 10:02 22,6 °C 12,9 °C 58 % 89 % 1027,5 hPa 0,0 l/m² 0,7 km/h (0 Bft) W 266 ° 1 min 120 W/m² 11,1 °C 12,9 °C 3,2 km/h (1 Bft)
24.09.2023 10:03 22,6 °C 13,0 °C 58 % 88 % 1027,5 hPa 0,0 l/m² 1,2 km/h (1 Bft) W 266 ° 1 min 123 W/m² 11,1 °C 13,0 °C 3,2 km/h (1 Bft)
24.09.2023 10:05 22,6 °C 13,0 °C 58 % 88 % 1027,4 hPa 0,0 l/m² 1,3 km/h (1 Bft) W 266 ° 2 min 130 W/m² 11,1 °C 13,0 °C 3,2 km/h (1 Bft)
24.09.2023 10:07 22,6 °C 13,1 °C 58 % 88 % 1027,4 hPa 0,0 l/m² 0,6 km/h (0 Bft) W 266 ° 2 min 137 W/m² 11,2 °C 13,1 °C 1,6 km/h (1 Bft)
24.09.2023 10:09 22,6 °C 13,1 °C 58 % 88 % 1027,5 hPa 0,0 l/m² 0,9 km/h (0 Bft) W 266 ° 2 min 142 W/m² 11,2 °C 13,1 °C 3,2 km/h (1 Bft)
24.09.2023 10:11 22,6 °C 13,1 °C 58 % 88 % 1027,4 hPa 0,0 l/m² 2,1 km/h (1 Bft) W 266 ° 2 min 139 W/m² 11,2 °C 13,1 °C 4,8 km/h (1 Bft)
24.09.2023 10:12 22,6 °C 13,2 °C 58 % 88 % 1027,4 hPa 0,0 l/m² 0,7 km/h (0 Bft) W 266 ° 1 min 139 W/m² 11,3 °C 13,2 °C 3,2 km/h (1 Bft)
24.09.2023 10:13 22,6 °C 13,2 °C 58 % 88 % 1027,4 hPa 0,0 l/m² 2,7 km/h (1 Bft) W 266 ° 1 min 141 W/m² 11,3 °C 13,2 °C 3,2 km/h (1 Bft)
24.09.2023 10:14 22,6 °C 13,2 °C 58 % 88 % 1027,4 hPa 0,0 l/m² 2,8 km/h (1 Bft) W 266 ° 1 min 144 W/m² 11,3 °C 13,2 °C 4,8 km/h (1 Bft)
24.09.2023 10:16 22,6 °C 13,2 °C 58 % 87 % 1027,4 hPa 0,0 l/m² 2,5 km/h (1 Bft) W 266 ° 2 min 160 W/m² 11,1 °C 13,2 °C 4,8 km/h (1 Bft)
24.09.2023 10:18 22,6 °C 13,3 °C 58 % 87 % 1027,5 hPa 0,0 l/m² 2,7 km/h (1 Bft) W 265 ° 2 min 169 W/m² 11,2 °C 13,3 °C 6,4 km/h (2 Bft)
24.09.2023 10:20 22,6 °C 13,3 °C 58 % 87 % 1027,5 hPa 0,0 l/m² 3,7 km/h (1 Bft) W 265 ° 2 min 169 W/m² 11,2 °C 13,3 °C 4,8 km/h (1 Bft)
24.09.2023 10:21 22,6 °C 13,3 °C 58 % 87 % 1027,5 hPa 0,0 l/m² 3,2 km/h (1 Bft) W 265 ° 1 min 165 W/m² 11,2 °C 13,3 °C 4,8 km/h (1 Bft)
24.09.2023 10:22 22,6 °C 13,3 °C 58 % 87 % 1027,6 hPa 0,0 l/m² 2,3 km/h (1 Bft) W 265 ° 1 min 162 W/m² 11,2 °C 13,3 °C 3,2 km/h (1 Bft)
24.09.2023 10:23 22,6 °C 13,4 °C 58 % 87 % 1027,6 hPa 0,0 l/m² 2,8 km/h (1 Bft) W 265 ° 1 min 160 W/m² 11,3 °C 13,4 °C 3,2 km/h (1 Bft)
24.09.2023 10:25 22,6 °C 13,4 °C 58 % 87 % 1027,6 hPa 0,0 l/m² 3,8 km/h (1 Bft) W 265 ° 2 min 162 W/m² 11,3 °C 13,4 °C 4,8 km/h (1 Bft)
24.09.2023 10:27 22,6 °C 13,4 °C 58 % 87 % 1027,6 hPa 0,0 l/m² 2,4 km/h (1 Bft) W 265 ° 2 min 172 W/m² 11,3 °C 13,4 °C 3,2 km/h (1 Bft)
24.09.2023 10:29 22,6 °C 13,6 °C 58 % 87 % 1027,6 hPa 0,0 l/m² 3,3 km/h (1 Bft) W 265 ° 2 min 178 W/m² 11,5 °C 13,6 °C 4,8 km/h (1 Bft)
24.09.2023 10:31 22,6 °C 13,6 °C 58 % 87 % 1027,6 hPa 0,0 l/m² 2,4 km/h (1 Bft) W 265 ° 2 min 179 W/m² 11,5 °C 13,6 °C 3,2 km/h (1 Bft)
24.09.2023 10:32 22,6 °C 13,6 °C 58 % 87 % 1027,6 hPa 0,0 l/m² 2,6 km/h (1 Bft) W 265 ° 1 min 179 W/m² 11,5 °C 13,6 °C 3,2 km/h (1 Bft)
24.09.2023 10:33 22,6 °C 13,6 °C 58 % 86 % 1027,6 hPa 0,0 l/m² 1,7 km/h (1 Bft) W 265 ° 1 min 179 W/m² 11,3 °C 13,6 °C 3,2 km/h (1 Bft)
24.09.2023 10:34 22,6 °C 13,7 °C 58 % 87 % 1027,6 hPa 0,0 l/m² 2,3 km/h (1 Bft) W 265 ° 1 min 179 W/m² 11,6 °C 13,7 °C 3,2 km/h (1 Bft)
24.09.2023 10:36 22,6 °C 13,7 °C 58 % 86 % 1027,5 hPa 0,0 l/m² 1,7 km/h (1 Bft) W 265 ° 2 min 179 W/m² 11,4 °C 13,7 °C 3,2 km/h (1 Bft)
24.09.2023 10:38 22,6 °C 13,8 °C 58 % 87 % 1027,6 hPa 0,0 l/m² 2,9 km/h (1 Bft) W 265 ° 2 min 179 W/m² 11,7 °C 13,8 °C 4,8 km/h (1 Bft)
24.09.2023 10:40 22,6 °C 13,8 °C 58 % 86 % 1027,5 hPa 0,0 l/m² 3,5 km/h (1 Bft) W 265 ° 2 min 181 W/m² 11,5 °C 13,8 °C 4,8 km/h (1 Bft)
24.09.2023 10:41 22,6 °C 13,8 °C 58 % 86 % 1027,6 hPa 0,0 l/m² 2,5 km/h (1 Bft) W 265 ° 1 min 181 W/m² 11,5 °C 13,8 °C 4,8 km/h (1 Bft)
24.09.2023 10:42 22,6 °C 13,9 °C 58 % 86 % 1027,6 hPa 0,0 l/m² 2,8 km/h (1 Bft) W 265 ° 1 min 183 W/m² 11,6 °C 13,9 °C 4,8 km/h (1 Bft)
24.09.2023 10:43 22,6 °C 13,9 °C 58 % 87 % 1027,6 hPa 0,0 l/m² 3,0 km/h (1 Bft) W 265 ° 1 min 183 W/m² 11,8 °C 13,9 °C 4,8 km/h (1 Bft)
24.09.2023 10:45 22,6 °C 13,9 °C 58 % 87 % 1027,7 hPa 0,0 l/m² 3,1 km/h (1 Bft) W 264 ° 2 min 185 W/m² 11,8 °C 13,9 °C 4,8 km/h (1 Bft)
24.09.2023 10:47 22,6 °C 14,0 °C 58 % 86 % 1027,7 hPa 0,0 l/m² 2,8 km/h (1 Bft) W 264 ° 2 min 185 W/m² 11,7 °C 14,0 °C 4,8 km/h (1 Bft)
24.09.2023 10:49 22,6 °C 14,0 °C 58 % 86 % 1027,7 hPa 0,0 l/m² 1,1 km/h (1 Bft) W 264 ° 2 min 188 W/m² 11,7 °C 14,0 °C 3,2 km/h (1 Bft)
24.09.2023 10:51 22,6 °C 14,1 °C 58 % 86 % 1027,6 hPa 0,0 l/m² 2,8 km/h (1 Bft) W 259 ° 2 min 216 W/m² 11,8 °C 14,1 °C 4,8 km/h (1 Bft)
24.09.2023 10:52 22,6 °C 14,2 °C 58 % 86 % 1027,6 hPa 0,0 l/m² 1,4 km/h (1 Bft) W-SW 258 ° 1 min 225 W/m² 11,9 °C 14,2 °C 1,6 km/h (1 Bft)
24.09.2023 10:53 22,6 °C 14,2 °C 58 % 86 % 1027,6 hPa 0,0 l/m² 1,6 km/h (1 Bft) W-SW 258 ° 1 min 232 W/m² 11,9 °C 14,2 °C 3,2 km/h (1 Bft)
24.09.2023 10:54 22,6 °C 14,3 °C 58 % 87 % 1027,6 hPa 0,0 l/m² 0,8 km/h (0 Bft) W-SW 258 ° 1 min 237 W/m² 12,2 °C 14,3 °C 1,6 km/h (1 Bft)
24.09.2023 10:56 22,6 °C 14,3 °C 58 % 86 % 1027,6 hPa 0,0 l/m² 1,3 km/h (1 Bft) W-SW 258 ° 2 min 251 W/m² 12,0 °C 14,3 °C 3,2 km/h (1 Bft)
24.09.2023 10:58 22,6 °C 14,3 °C 58 % 85 % 1027,7 hPa 0,0 l/m² 1,0 km/h (0 Bft) W-SW 258 ° 2 min 264 W/m² 11,8 °C 14,3 °C 3,2 km/h (1 Bft)
24.09.2023 11:00 22,6 °C 14,4 °C 58 % 85 % 1027,7 hPa 0,0 l/m² 0,8 km/h (0 Bft) W-SW 258 ° 2 min 265 W/m² 11,9 °C 14,4 °C 3,2 km/h (1 Bft)
24.09.2023 11:01 22,6 °C 14,4 °C 58 % 85 % 1027,7 hPa 0,0 l/m² 1,6 km/h (1 Bft) W-SW 258 ° 1 min 264 W/m² 11,9 °C 14,4 °C 3,2 km/h (1 Bft)
24.09.2023 11:02 22,6 °C 14,5 °C 58 % 85 % 1027,7 hPa 0,0 l/m² 0,3 km/h (0 Bft) W-SW 258 ° 1 min 264 W/m² 12,0 °C 14,5 °C 1,6 km/h (1 Bft)
24.09.2023 11:03 22,6 °C 14,6 °C 58 % 85 % 1027,8 hPa 0,0 l/m² 1,5 km/h (1 Bft) W-SW 258 ° 1 min 264 W/m² 12,1 °C 14,6 °C 3,2 km/h (1 Bft)
24.09.2023 11:05 22,6 °C 14,6 °C 58 % 86 % 1027,7 hPa 0,0 l/m² 2,8 km/h (1 Bft) W-SW 258 ° 2 min 265 W/m² 12,3 °C 14,6 °C 4,8 km/h (1 Bft)
24.09.2023 11:07 22,6 °C 14,6 °C 58 % 84 % 1027,7 hPa 0,0 l/m² 2,7 km/h (1 Bft) W-SW 258 ° 2 min 269 W/m² 11,9 °C 14,6 °C 6,4 km/h (2 Bft)
24.09.2023 11:09 22,6 °C 14,6 °C 58 % 84 % 1027,7 hPa 0,0 l/m² 3,7 km/h (1 Bft) W-SW 258 ° 2 min 265 W/m² 11,9 °C 14,6 °C 6,4 km/h (2 Bft)
24.09.2023 11:11 22,7 °C 14,7 °C 58 % 84 % 1027,7 hPa 0,0 l/m² 4,3 km/h (1 Bft) S 175 ° 2 min 257 W/m² 12,0 °C 14,7 °C 6,4 km/h (2 Bft)
24.09.2023 11:12 22,6 °C 14,7 °C 58 % 84 % 1027,7 hPa 0,0 l/m² 4,1 km/h (1 Bft) S 175 ° 1 min 253 W/m² 12,0 °C 14,7 °C 4,8 km/h (1 Bft)
24.09.2023 11:13 22,6 °C 14,7 °C 58 % 84 % 1027,7 hPa 0,0 l/m² 3,1 km/h (1 Bft) S 175 ° 1 min 253 W/m² 12,0 °C 14,7 °C 4,8 km/h (1 Bft)
24.09.2023 11:14 22,6 °C 14,7 °C 58 % 84 % 1027,7 hPa 0,0 l/m² 5,2 km/h (1 Bft) S 176 ° 1 min 264 W/m² 12,0 °C 14,7 °C 6,4 km/h (2 Bft)
24.09.2023 11:16 22,6 °C 14,7 °C 58 % 85 % 1027,7 hPa 0,0 l/m² 1,8 km/h (1 Bft) S 176 ° 2 min 290 W/m² 12,2 °C 14,7 °C 6,4 km/h (2 Bft)
24.09.2023 11:18 22,6 °C 14,8 °C 58 % 85 % 1027,7 hPa 0,0 l/m² 2,2 km/h (1 Bft) S 176 ° 2 min 320 W/m² 12,3 °C 14,8 °C 4,8 km/h (1 Bft)
24.09.2023 11:20 22,7 °C 14,9 °C 58 % 85 % 1027,6 hPa 0,0 l/m² 2,9 km/h (1 Bft) S 176 ° 2 min 338 W/m² 12,4 °C 14,9 °C 4,8 km/h (1 Bft)
24.09.2023 11:21 22,7 °C 14,9 °C 58 % 84 % 1027,6 hPa 0,0 l/m² 4,1 km/h (1 Bft) S 176 ° 1 min 341 W/m² 12,2 °C 14,9 °C 4,8 km/h (1 Bft)
24.09.2023 11:22 22,7 °C 15,0 °C 58 % 83 % 1027,6 hPa 0,0 l/m² 1,2 km/h (1 Bft) S 176 ° 1 min 346 W/m² 12,1 °C 15,0 °C 3,2 km/h (1 Bft)
24.09.2023 11:23 22,7 °C 15,1 °C 58 % 84 % 1027,7 hPa 0,0 l/m² 3,5 km/h (1 Bft) S 176 ° 1 min 352 W/m² 12,4 °C 15,1 °C 4,8 km/h (1 Bft)
24.09.2023 11:25 22,7 °C 15,1 °C 58 % 83 % 1027,7 hPa 0,0 l/m² 4,4 km/h (1 Bft) S 176 ° 2 min 359 W/m² 12,2 °C 15,1 °C 6,4 km/h (2 Bft)
24.09.2023 11:27 22,7 °C 15,1 °C 58 % 83 % 1027,6 hPa 0,0 l/m² 2,8 km/h (1 Bft) S 176 ° 2 min 388 W/m² 12,2 °C 15,1 °C 4,8 km/h (1 Bft)
24.09.2023 11:29 22,7 °C 15,1 °C 58 % 84 % 1027,6 hPa 0,0 l/m² 2,6 km/h (1 Bft) S 177 ° 2 min 420 W/m² 12,4 °C 15,1 °C 4,8 km/h (1 Bft)
24.09.2023 11:31 22,7 °C 15,3 °C 58 % 84 % 1027,6 hPa 0,0 l/m² 4,4 km/h (1 Bft) S 182 ° 2 min 418 W/m² 12,6 °C 15,3 °C 6,4 km/h (2 Bft)
24.09.2023 11:32 22,7 °C 15,4 °C 58 % 83 % 1027,6 hPa 0,0 l/m² 2,6 km/h (1 Bft) S 182 ° 1 min 427 W/m² 12,5 °C 15,4 °C 4,8 km/h (1 Bft)
24.09.2023 11:33 22,7 °C 15,4 °C 58 % 83 % 1027,6 hPa 0,0 l/m² 0,2 km/h (0 Bft) S 182 ° 1 min 394 W/m² 12,5 °C 15,4 °C 1,6 km/h (1 Bft)
24.09.2023 11:34 22,7 °C 15,6 °C 58 % 84 % 1027,6 hPa 0,0 l/m² 2,9 km/h (1 Bft) S 182 ° 1 min 378 W/m² 12,9 °C 15,6 °C 4,8 km/h (1 Bft)
24.09.2023 11:36 22,7 °C 15,4 °C 58 % 80 % 1027,5 hPa 0,0 l/m² 1,9 km/h (1 Bft) S 182 ° 2 min 385 W/m² 12,0 °C 15,4 °C 3,2 km/h (1 Bft)
24.09.2023 11:38 22,7 °C 15,6 °C 58 % 81 % 1027,6 hPa 0,0 l/m² 1,1 km/h (1 Bft) S 182 ° 2 min 396 W/m² 12,3 °C 15,6 °C 3,2 km/h (1 Bft)
24.09.2023 11:40 22,7 °C 15,6 °C 58 % 80 % 1027,6 hPa 0,0 l/m² 1,3 km/h (1 Bft) S 182 ° 2 min 394 W/m² 12,2 °C 15,6 °C 3,2 km/h (1 Bft)
24.09.2023 11:41 22,7 °C 15,4 °C 58 % 80 % 1027,6 hPa 0,0 l/m² 0,5 km/h (0 Bft) S 182 ° 1 min 390 W/m² 12,0 °C 15,4 °C 1,6 km/h (1 Bft)
24.09.2023 11:42 22,7 °C 15,4 °C 58 % 81 % 1027,6 hPa 0,0 l/m² 0,5 km/h (0 Bft) S 182 ° 1 min 392 W/m² 12,2 °C 15,4 °C 1,6 km/h (1 Bft)
24.09.2023 11:43 22,8 °C 15,5 °C 58 % 82 % 1027,6 hPa 0,0 l/m² 0,2 km/h (0 Bft) S 182 ° 1 min 413 W/m² 12,4 °C 15,5 °C 1,6 km/h (1 Bft)
24.09.2023 11:45 22,8 °C 15,7 °C 58 % 82 % 1027,6 hPa 0,0 l/m² 1,2 km/h (1 Bft) S 182 ° 2 min 464 W/m² 12,6 °C 15,7 °C 3,2 km/h (1 Bft)
24.09.2023 11:47 22,8 °C 15,9 °C 58 % 78 % 1027,6 hPa 0,0 l/m² 0,8 km/h (0 Bft) S 182 ° 2 min 524 W/m² 12,1 °C 15,9 °C 1,6 km/h (1 Bft)
24.09.2023 11:49 22,8 °C 16,0 °C 58 % 81 % 1027,5 hPa 0,0 l/m² 1,1 km/h (1 Bft) S 182 ° 2 min 482 W/m² 12,7 °C 16,0 °C 3,2 km/h (1 Bft)
24.09.2023 11:51 22,8 °C 16,1 °C 58 % 78 % 1027,5 hPa 0,0 l/m² 0,6 km/h (0 Bft) S 182 ° 2 min 519 W/m² 12,3 °C 16,1 °C 3,2 km/h (1 Bft)
24.09.2023 11:52 22,8 °C 16,1 °C 58 % 77 % 1027,4 hPa 0,0 l/m² 1,7 km/h (1 Bft) S 182 ° 1 min 550 W/m² 12,1 °C 16,1 °C 3,2 km/h (1 Bft)
24.09.2023 11:53 22,8 °C 16,2 °C 58 % 78 % 1027,5 hPa 0,0 l/m² 1,1 km/h (1 Bft) S 182 ° 1 min 577 W/m² 12,4 °C 16,2 °C 1,6 km/h (1 Bft)
24.09.2023 11:54 22,8 °C 16,3 °C 58 % 77 % 1027,5 hPa 0,0 l/m² 0,4 km/h (0 Bft) S 182 ° 1 min 626 W/m² 12,3 °C 16,3 °C 1,6 km/h (1 Bft)
24.09.2023 11:56 22,9 °C 16,3 °C 58 % 77 % 1027,4 hPa 0,0 l/m² 3,0 km/h (1 Bft) S 182 ° 2 min 722 W/m² 12,3 °C 16,3 °C 4,8 km/h (1 Bft)
24.09.2023 11:58 22,9 °C 16,3 °C 58 % 78 % 1027,5 hPa 0,0 l/m² 3,1 km/h (1 Bft) S 182 ° 2 min 492 W/m² 12,5 °C 16,3 °C 4,8 km/h (1 Bft)
24.09.2023 12:00 22,9 °C 16,3 °C 58 % 77 % 1027,4 hPa 0,0 l/m² 2,2 km/h (1 Bft) S 182 ° 2 min 411 W/m² 12,3 °C 16,3 °C 3,2 km/h (1 Bft)
24.09.2023 12:01 22,9 °C 16,4 °C 58 % 78 % 1027,4 hPa 0,0 l/m² 4,2 km/h (1 Bft) S 182 ° 1 min 436 W/m² 12,6 °C 16,4 °C 6,4 km/h (2 Bft)
24.09.2023 12:02 22,9 °C 16,3 °C 58 % 76 % 1027,4 hPa 0,0 l/m² 3,8 km/h (1 Bft) S 182 ° 1 min 406 W/m² 12,1 °C 16,3 °C 4,8 km/h (1 Bft)
24.09.2023 12:03 22,9 °C 16,4 °C 58 % 77 % 1027,5 hPa 0,0 l/m² 4,4 km/h (1 Bft) S 190 ° 1 min 415 W/m² 12,4 °C 16,4 °C 8,0 km/h (2 Bft)
24.09.2023 12:05 22,9 °C 16,4 °C 58 % 75 % 1027,4 hPa 0,0 l/m² 3,8 km/h (1 Bft) S-SW 194 ° 2 min 385 W/m² 12,0 °C 16,4 °C 6,4 km/h (2 Bft)
24.09.2023 12:07 22,9 °C 16,4 °C 58 % 75 % 1027,3 hPa 0,0 l/m² 2,7 km/h (1 Bft) S-SW 194 ° 2 min 452 W/m² 12,0 °C 16,4 °C 4,8 km/h (1 Bft)
24.09.2023 12:09 23,0 °C 16,4 °C 58 % 77 % 1027,4 hPa 0,0 l/m² 1,1 km/h (1 Bft) S-SW 194 ° 2 min 469 W/m² 12,4 °C 16,4 °C 3,2 km/h (1 Bft)
24.09.2023 12:11 22,9 °C 16,4 °C 58 % 74 % 1027,3 hPa 0,0 l/m² 1,1 km/h (1 Bft) S-SW 194 ° 2 min 413 W/m² 11,8 °C 16,4 °C 3,2 km/h (1 Bft)
24.09.2023 12:12 23,0 °C 16,6 °C 58 % 78 % 1027,4 hPa 0,0 l/m² 2,5 km/h (1 Bft) S-SW 194 ° 1 min 710 W/m² 12,7 °C 16,6 °C 4,8 km/h (1 Bft)
24.09.2023 12:13 23,0 °C 16,7 °C 58 % 76 % 1027,4 hPa 0,0 l/m² 2,5 km/h (1 Bft) S-SW 194 ° 1 min 744 W/m² 12,4 °C 16,7 °C 3,2 km/h (1 Bft)
24.09.2023 12:14 23,0 °C 16,9 °C 58 % 78 % 1027,4 hPa 0,0 l/m² 0,3 km/h (0 Bft) S-SW 194 ° 1 min 738 W/m² 13,0 °C 16,9 °C 1,6 km/h (1 Bft)
24.09.2023 12:16 23,1 °C 17,3 °C 58 % 78 % 1027,3 hPa 0,0 l/m² 2,3 km/h (1 Bft) S-SW 196 ° 2 min 726 W/m² 13,4 °C 17,3 °C 6,4 km/h (2 Bft)
24.09.2023 12:18 23,1 °C 17,7 °C 58 % 73 % 1027,4 hPa 0,0 l/m² 1,5 km/h (1 Bft) S-SW 196 ° 2 min 705 W/m² 12,8 °C 17,7 °C 4,8 km/h (1 Bft)
24.09.2023 12:20 23,1 °C 17,8 °C 57 % 70 % 1027,5 hPa 0,0 l/m² 2,1 km/h (1 Bft) S-SW 196 ° 2 min 722 W/m² 12,3 °C 17,8 °C 4,8 km/h (1 Bft)
24.09.2023 12:22 23,2 °C 17,8 °C 57 % 72 % 1027,4 hPa 0,0 l/m² 2,3 km/h (1 Bft) S-SW 196 ° 2 min 721 W/m² 12,7 °C 17,8 °C 4,8 km/h (1 Bft)
24.09.2023 12:23 23,2 °C 17,9 °C 57 % 70 % 1027,4 hPa 0,0 l/m² 7,7 km/h (2 Bft) SW 217 ° 1 min 724 W/m² 12,3 °C 17,3 °C 9,7 km/h (2 Bft)
24.09.2023 12:24 23,2 °C 17,8 °C 57 % 71 % 1027,4 hPa 0,0 l/m² 7,9 km/h (2 Bft) SW 236 ° 1 min 728 W/m² 12,5 °C 17,1 °C 9,7 km/h (2 Bft)
24.09.2023 12:26 23,2 °C 17,8 °C 57 % 70 % 1027,4 hPa 0,0 l/m² 5,5 km/h (2 Bft) W-SW 237 ° 2 min 666 W/m² 12,3 °C 17,8 °C 8,0 km/h (2 Bft)
24.09.2023 12:28 23,2 °C 17,6 °C 57 % 68 % 1027,4 hPa 0,0 l/m² 6,6 km/h (2 Bft) SW 229 ° 2 min 666 W/m² 11,6 °C 17,5 °C 9,7 km/h (2 Bft)
24.09.2023 12:30 23,2 °C 17,3 °C 57 % 69 % 1027,4 hPa 0,0 l/m² 3,0 km/h (1 Bft) SW 229 ° 2 min 744 W/m² 11,6 °C 17,3 °C 8,0 km/h (2 Bft)
24.09.2023 12:33 23,3 °C 17,1 °C 57 % 70 % 1027,4 hPa 0,0 l/m² 3,3 km/h (1 Bft) SW 219 ° 3 min 744 W/m² 11,6 °C 17,1 °C 6,4 km/h (2 Bft)
24.09.2023 12:35 23,3 °C 17,3 °C 57 % 69 % 1027,4 hPa 0,0 l/m² 1,2 km/h (1 Bft) SW 219 ° 2 min 742 W/m² 11,6 °C 17,3 °C 3,2 km/h (1 Bft)
24.09.2023 12:37 23,3 °C 17,5 °C 57 % 71 % 1027,4 hPa 0,0 l/m² 1,0 km/h (0 Bft) SW 219 ° 2 min 726 W/m² 12,2 °C 17,5 °C 3,2 km/h (1 Bft)
24.09.2023 12:39 23,4 °C 17,6 °C 57 % 71 % 1027,3 hPa 0,0 l/m² 1,4 km/h (1 Bft) SW 219 ° 2 min 726 W/m² 12,3 °C 17,6 °C 4,8 km/h (1 Bft)
24.09.2023 12:41 23,4 °C 17,5 °C 57 % 68 % 1027,4 hPa 0,0 l/m² 4,5 km/h (1 Bft) SW 219 ° 2 min 740 W/m² 11,5 °C 17,5 °C 8,0 km/h (2 Bft)
24.09.2023 12:42 23,4 °C 17,5 °C 57 % 70 % 1027,4 hPa 0,0 l/m² 3,0 km/h (1 Bft) SW 219 ° 1 min 744 W/m² 12,0 °C 17,5 °C 4,8 km/h (1 Bft)
24.09.2023 12:43 23,4 °C 17,6 °C 57 % 67 % 1027,4 hPa 0,0 l/m² 2,1 km/h (1 Bft) SW 219 ° 1 min 745 W/m² 11,4 °C 17,6 °C 4,8 km/h (1 Bft)
24.09.2023 12:45 23,4 °C 17,7 °C 57 % 69 % 1027,4 hPa 0,0 l/m² 3,0 km/h (1 Bft) SW 219 ° 2 min 768 W/m² 11,9 °C 17,7 °C 6,4 km/h (2 Bft)
24.09.2023 12:46 23,4 °C 17,7 °C 57 % 71 % 1027,5 hPa 0,0 l/m² 6,2 km/h (2 Bft) SW 220 ° 1 min 772 W/m² 12,4 °C 17,7 °C 11,3 km/h (2 Bft)
24.09.2023 12:48 23,4 °C 17,8 °C 57 % 70 % 1027,4 hPa 0,0 l/m² 8,1 km/h (2 Bft) W-SW 250 ° 2 min 761 W/m² 12,3 °C 17,0 °C 11,3 km/h (2 Bft)
24.09.2023 12:50 23,4 °C 17,9 °C 57 % 68 % 1027,4 hPa 0,0 l/m² 8,0 km/h (2 Bft) S-SW 192 ° 2 min 756 W/m² 11,9 °C 17,1 °C 12,9 km/h (3 Bft)
24.09.2023 12:52 23,5 °C 17,8 °C 57 % 70 % 1027,5 hPa 0,0 l/m² 8,2 km/h (2 Bft) S-SW 204 ° 2 min 742 W/m² 12,3 °C 17,0 °C 12,9 km/h (3 Bft)
24.09.2023 12:53 23,5 °C 17,7 °C 57 % 67 % 1027,4 hPa 0,0 l/m² 0,7 km/h (0 Bft) S-SW 204 ° 1 min 737 W/m² 11,5 °C 17,7 °C 3,2 km/h (1 Bft)
24.09.2023 12:54 23,5 °C 17,7 °C 57 % 70 % 1027,4 hPa 0,0 l/m² 1,0 km/h (0 Bft) S-SW 204 ° 1 min 742 W/m² 12,2 °C 17,7 °C 3,2 km/h (1 Bft)
24.09.2023 12:56 23,6 °C 17,6 °C 57 % 68 % 1027,4 hPa 0,0 l/m² 0,8 km/h (0 Bft) S-SW 202 ° 2 min 742 W/m² 11,6 °C 17,6 °C 3,2 km/h (1 Bft)
24.09.2023 12:58 23,6 °C 17,6 °C 57 % 66 % 1027,4 hPa 0,0 l/m² 2,0 km/h (1 Bft) S-SW 202 ° 2 min 749 W/m² 11,2 °C 17,6 °C 3,2 km/h (1 Bft)
24.09.2023 13:00 23,6 °C 17,7 °C 57 % 69 % 1027,4 hPa 0,0 l/m² 2,6 km/h (1 Bft) S-SW 195 ° 2 min 744 W/m² 11,9 °C 17,7 °C 4,8 km/h (1 Bft)
24.09.2023 13:02 23,6 °C 17,8 °C 57 % 68 % 1027,4 hPa 0,0 l/m² 7,5 km/h (2 Bft) SO 126 ° 2 min 738 W/m² 11,8 °C 17,3 °C 14,5 km/h (3 Bft)
24.09.2023 13:03 23,6 °C 17,8 °C 57 % 70 % 1027,4 hPa 0,0 l/m² 5,1 km/h (1 Bft) SO 130 ° 1 min 735 W/m² 12,3 °C 17,8 °C 6,4 km/h (2 Bft)
24.09.2023 13:04 23,6 °C 17,9 °C 57 % 69 % 1027,4 hPa 0,0 l/m² 5,0 km/h (1 Bft) O-SO 118 ° 1 min 733 W/m² 12,1 °C 17,9 °C 6,4 km/h (2 Bft)
24.09.2023 13:06 23,6 °C 18,1 °C 57 % 73 % 1027,4 hPa 0,0 l/m² 6,2 km/h (2 Bft) S-SO 148 ° 2 min 763 W/m² 13,2 °C 18,1 °C 9,7 km/h (2 Bft)
24.09.2023 13:08 23,7 °C 18,2 °C 57 % 71 % 1027,5 hPa 0,0 l/m² 4,8 km/h (1 Bft) SO 145 ° 2 min 795 W/m² 12,9 °C 18,2 °C 8,0 km/h (2 Bft)
24.09.2023 13:10 23,7 °C 18,2 °C 57 % 71 % 1027,4 hPa 0,0 l/m² 6,7 km/h (2 Bft) S-SW 194 ° 2 min 800 W/m² 12,9 °C 18,1 °C 9,7 km/h (2 Bft)
24.09.2023 13:12 23,7 °C 18,3 °C 57 % 69 % 1027,5 hPa 0,0 l/m² 5,4 km/h (2 Bft) S-SW 198 ° 2 min 805 W/m² 12,5 °C 18,3 °C 11,3 km/h (2 Bft)
24.09.2023 13:13 23,7 °C 18,2 °C 56 % 67 % 1027,5 hPa 0,0 l/m² 11,2 km/h (2 Bft) S 172 ° 1 min 761 W/m² 12,0 °C 16,2 °C 14,5 km/h (3 Bft)
24.09.2023 13:14 23,7 °C 18,1 °C 56 % 69 % 1027,5 hPa 0,0 l/m² 9,0 km/h (2 Bft) S 170 ° 1 min 761 W/m² 12,3 °C 16,9 °C 12,9 km/h (3 Bft)
24.09.2023 13:16 23,7 °C 17,8 °C 56 % 66 % 1027,5 hPa 0,0 l/m² 7,5 km/h (2 Bft) S 180 ° 2 min 404 W/m² 11,4 °C 17,3 °C 12,9 km/h (3 Bft)
24.09.2023 13:18 23,7 °C 17,8 °C 56 % 69 % 1027,5 hPa 0,0 l/m² 7,3 km/h (2 Bft) SO 146 ° 2 min 745 W/m² 12,0 °C 17,4 °C 9,7 km/h (2 Bft)
24.09.2023 13:20 23,7 °C 17,9 °C 56 % 67 % 1027,5 hPa 0,0 l/m² 7,0 km/h (2 Bft) O-SO 123 ° 2 min 740 W/m² 11,7 °C 17,6 °C 9,7 km/h (2 Bft)
24.09.2023 13:22 23,7 °C 18,0 °C 56 % 70 % 1027,4 hPa 0,0 l/m² 3,2 km/h (1 Bft) SO 128 ° 2 min 758 W/m² 12,4 °C 18,0 °C 4,8 km/h (1 Bft)
24.09.2023 13:23 23,7 °C 18,1 °C 56 % 71 % 1027,5 hPa 0,0 l/m² 3,9 km/h (1 Bft) SO 128 ° 1 min 772 W/m² 12,8 °C 18,1 °C 6,4 km/h (2 Bft)
24.09.2023 13:24 23,7 °C 18,2 °C 56 % 68 % 1027,5 hPa 0,0 l/m² 1,0 km/h (0 Bft) SO 128 ° 1 min 779 W/m² 12,2 °C 18,2 °C 1,6 km/h (1 Bft)
24.09.2023 13:26 23,7 °C 18,4 °C 56 % 68 % 1027,5 hPa 0,0 l/m² 4,8 km/h (1 Bft) O-SO 102 ° 2 min 789 W/m² 12,4 °C 18,4 °C 14,5 km/h (3 Bft)
24.09.2023 13:28 23,7 °C 18,6 °C 56 % 67 % 1027,4 hPa 0,0 l/m² 9,5 km/h (2 Bft) S-SW 201 ° 2 min 789 W/m² 12,3 °C 17,3 °C 12,9 km/h (3 Bft)
24.09.2023 13:30 23,7 °C 18,3 °C 56 % 66 % 1027,5 hPa 0,0 l/m² 8,7 km/h (2 Bft) SW 225 ° 2 min 773 W/m² 11,8 °C 17,3 °C 12,9 km/h (3 Bft)
24.09.2023 13:32 23,8 °C 18,5 °C 56 % 69 % 1027,4 hPa 0,0 l/m² 8,2 km/h (2 Bft) W-SW 243 ° 2 min 775 W/m² 12,7 °C 17,7 °C 14,5 km/h (3 Bft)
24.09.2023 13:33 23,8 °C 18,5 °C 56 % 66 % 1027,4 hPa 0,0 l/m² 9,1 km/h (2 Bft) SW 236 ° 1 min 770 W/m² 12,0 °C 17,3 °C 12,9 km/h (3 Bft)
24.09.2023 13:34 23,8 °C 18,5 °C 56 % 64 % 1027,4 hPa 0,0 l/m² 8,7 km/h (2 Bft) W-SW 254 ° 1 min 745 W/m² 11,6 °C 17,5 °C 12,9 km/h (3 Bft)
24.09.2023 13:36 23,8 °C 18,4 °C 56 % 65 % 1027,5 hPa 0,0 l/m² 5,8 km/h (2 Bft) S-SW 198 ° 2 min 789 W/m² 11,7 °C 18,4 °C 9,7 km/h (2 Bft)
24.09.2023 13:38 23,8 °C 18,4 °C 56 % 69 % 1027,4 hPa 0,0 l/m² 1,0 km/h (0 Bft) S-SW 198 ° 2 min 789 W/m² 12,6 °C 18,4 °C 4,8 km/h (1 Bft)
24.09.2023 13:40 23,8 °C 18,6 °C 56 % 68 % 1027,4 hPa 0,0 l/m² 1,1 km/h (1 Bft) S-SW 198 ° 2 min 700 W/m² 12,6 °C 18,6 °C 4,8 km/h (1 Bft)
24.09.2023 13:42 23,8 °C 18,4 °C 56 % 64 % 1027,3 hPa 0,0 l/m² 2,1 km/h (1 Bft) S-SW 198 ° 2 min 756 W/m² 11,5 °C 18,4 °C 4,8 km/h (1 Bft)
24.09.2023 13:43 23,8 °C 18,4 °C 56 % 65 % 1027,3 hPa 0,0 l/m² 1,9 km/h (1 Bft) S-SW 197 ° 1 min 751 W/m² 11,7 °C 18,4 °C 3,2 km/h (1 Bft)
24.09.2023 13:44 23,8 °C 18,3 °C 56 % 64 % 1027,3 hPa 0,0 l/m² 0,8 km/h (0 Bft) S-SW 198 ° 1 min 747 W/m² 11,4 °C 18,3 °C 1,6 km/h (1 Bft)
24.09.2023 13:46 23,8 °C 18,7 °C 56 % 66 % 1027,2 hPa 0,0 l/m² 1,6 km/h (1 Bft) NW 313 ° 2 min 756 W/m² 12,2 °C 18,7 °C 6,4 km/h (2 Bft)
24.09.2023 13:48 23,8 °C 18,9 °C 56 % 64 % 1027,3 hPa 0,0 l/m² 2,2 km/h (1 Bft) N-NW 334 ° 2 min 747 W/m² 11,9 °C 18,9 °C 6,4 km/h (2 Bft)
24.09.2023 13:50 23,8 °C 19,2 °C 56 % 64 % 1027,3 hPa 0,0 l/m² 0,0 km/h (0 Bft) N-NW 334 ° 2 min 756 W/m² 12,2 °C 19,2 °C 0,0 km/h (0 Bft)
24.09.2023 13:52 23,9 °C 19,2 °C 56 % 66 % 1027,3 hPa 0,0 l/m² 1,9 km/h (1 Bft) N-NW 333 ° 2 min 782 W/m² 12,7 °C 19,2 °C 4,8 km/h (1 Bft)
24.09.2023 13:53 23,8 °C 19,3 °C 56 % 64 % 1027,3 hPa 0,0 l/m² 3,4 km/h (1 Bft) O-SO 111 ° 1 min 742 W/m² 12,3 °C 19,3 °C 4,8 km/h (1 Bft)
24.09.2023 13:54 23,8 °C 19,4 °C 56 % 65 % 1027,3 hPa 0,0 l/m² 4,0 km/h (1 Bft) S-SW 203 ° 1 min 742 W/m² 12,6 °C 19,4 °C 4,8 km/h (1 Bft)
24.09.2023 13:56 23,8 °C 19,0 °C 56 % 63 % 1027,2 hPa 0,0 l/m² 1,3 km/h (1 Bft) S-SW 203 ° 2 min 742 W/m² 11,8 °C 19,0 °C 3,2 km/h (1 Bft)
24.09.2023 13:58 23,9 °C 19,1 °C 56 % 65 % 1027,2 hPa 0,0 l/m² 0,4 km/h (0 Bft) S-SW 203 ° 2 min 747 W/m² 12,4 °C 19,1 °C 1,6 km/h (1 Bft)
24.09.2023 14:00 23,9 °C 18,9 °C 56 % 66 % 1027,2 hPa 0,0 l/m² 0,1 km/h (0 Bft) S-SW 203 ° 2 min 782 W/m² 12,4 °C 18,9 °C 1,6 km/h (1 Bft)
24.09.2023 14:02 23,9 °C 19,2 °C 56 % 65 % 1027,3 hPa 0,0 l/m² 1,7 km/h (1 Bft) W 275 ° 2 min 719 W/m² 12,5 °C 19,2 °C 4,8 km/h (1 Bft)
24.09.2023 14:03 23,9 °C 19,2 °C 56 % 63 % 1027,3 hPa 0,0 l/m² 4,6 km/h (1 Bft) NW 317 ° 1 min 719 W/m² 12,0 °C 19,2 °C 6,4 km/h (2 Bft)
24.09.2023 14:04 23,9 °C 19,2 °C 56 % 63 % 1027,3 hPa 0,0 l/m² 4,8 km/h (1 Bft) NW 311 ° 1 min 294 W/m² 12,0 °C 19,2 °C 6,4 km/h (2 Bft)
24.09.2023 14:06 23,8 °C 18,9 °C 56 % 62 % 1027,3 hPa 0,0 l/m² 5,0 km/h (1 Bft) NW 323 ° 2 min 246 W/m² 11,5 °C 18,9 °C 8,0 km/h (2 Bft)
24.09.2023 14:08 23,8 °C 18,6 °C 56 % 63 % 1027,3 hPa 0,0 l/m² 4,0 km/h (1 Bft) N 350 ° 2 min 244 W/m² 11,4 °C 18,6 °C 8,0 km/h (2 Bft)
24.09.2023 14:10 23,8 °C 18,6 °C 56 % 66 % 1027,3 hPa 0,0 l/m² 2,7 km/h (1 Bft) N-NW 336 ° 2 min 248 W/m² 12,1 °C 18,6 °C 4,8 km/h (1 Bft)
24.09.2023 14:12 23,8 °C 18,8 °C 56 % 64 % 1027,3 hPa 0,0 l/m² 2,6 km/h (1 Bft) W 269 ° 2 min 617 W/m² 11,8 °C 18,8 °C 6,4 km/h (2 Bft)
24.09.2023 14:13 23,8 °C 19,0 °C 56 % 65 % 1027,2 hPa 0,0 l/m² 4,5 km/h (1 Bft) W-SW 254 ° 1 min 796 W/m² 12,3 °C 19,0 °C 6,4 km/h (2 Bft)
24.09.2023 14:14 23,8 °C 19,2 °C 56 % 64 % 1027,2 hPa 0,0 l/m² 2,3 km/h (1 Bft) W-SW 253 ° 1 min 777 W/m² 12,2 °C 19,2 °C 6,4 km/h (2 Bft)
24.09.2023 14:16 23,8 °C 19,4 °C 56 % 62 % 1027,2 hPa 0,0 l/m² 4,7 km/h (1 Bft) W 273 ° 2 min 765 W/m² 11,9 °C 19,4 °C 8,0 km/h (2 Bft)
24.09.2023 14:18 23,8 °C 19,6 °C 56 % 61 % 1027,2 hPa 0,0 l/m² 1,7 km/h (1 Bft) W-SW 257 ° 2 min 759 W/m² 11,9 °C 19,6 °C 6,4 km/h (2 Bft)
24.09.2023 14:20 23,8 °C 20,0 °C 56 % 63 % 1027,2 hPa 0,0 l/m² 0,9 km/h (0 Bft) W 269 ° 2 min 752 W/m² 12,7 °C 20,0 °C 3,2 km/h (1 Bft)
24.09.2023 14:22 23,8 °C 19,5 °C 56 % 59 % 1027,2 hPa 0,0 l/m² 2,0 km/h (1 Bft) SW 234 ° 2 min 758 W/m² 11,3 °C 19,5 °C 3,2 km/h (1 Bft)
24.09.2023 14:23 23,9 °C 19,1 °C 56 % 61 % 1027,2 hPa 0,0 l/m² 3,6 km/h (1 Bft) S-SW 192 ° 1 min 759 W/m² 11,4 °C 19,1 °C 4,8 km/h (1 Bft)
24.09.2023 14:24 23,9 °C 18,9 °C 56 % 61 % 1027,2 hPa 0,0 l/m² 2,8 km/h (1 Bft) S 183 ° 1 min 761 W/m² 11,2 °C 18,9 °C 4,8 km/h (1 Bft)
24.09.2023 14:26 23,9 °C 18,9 °C 56 % 66 % 1027,2 hPa 0,0 l/m² 3,8 km/h (1 Bft) S-SW 198 ° 2 min 752 W/m² 12,4 °C 18,9 °C 6,4 km/h (2 Bft)
24.09.2023 14:28 23,9 °C 18,8 °C 56 % 65 % 1027,2 hPa 0,0 l/m² 3,9 km/h (1 Bft) S-SW 201 ° 2 min 726 W/m² 12,1 °C 18,8 °C 9,7 km/h (2 Bft)
24.09.2023 14:30 23,9 °C 18,8 °C 56 % 61 % 1027,2 hPa 0,0 l/m² 0,9 km/h (0 Bft) S-SW 201 ° 2 min 722 W/m² 11,1 °C 18,8 °C 3,2 km/h (1 Bft)
24.09.2023 14:32 23,9 °C 18,9 °C 56 % 63 % 1027,3 hPa 0,0 l/m² 2,7 km/h (1 Bft) S-SO 163 ° 2 min 698 W/m² 11,7 °C 18,9 °C 8,0 km/h (2 Bft)
24.09.2023 14:33 23,9 °C 18,9 °C 56 % 65 % 1027,2 hPa 0,0 l/m² 8,1 km/h (2 Bft) S-SW 198 ° 1 min 654 W/m² 12,2 °C 18,2 °C 11,3 km/h (2 Bft)
24.09.2023 14:34 23,9 °C 18,8 °C 56 % 63 % 1027,2 hPa 0,0 l/m² 5,6 km/h (2 Bft) S 190 ° 1 min 708 W/m² 11,6 °C 18,8 °C 9,7 km/h (2 Bft)
24.09.2023 14:36 23,9 °C 18,8 °C 56 % 67 % 1027,3 hPa 0,0 l/m² 8,8 km/h (2 Bft) S 191 ° 2 min 693 W/m² 12,5 °C 17,8 °C 11,3 km/h (2 Bft)
24.09.2023 14:38 23,9 °C 18,7 °C 56 % 65 % 1027,3 hPa 0,0 l/m² 7,9 km/h (2 Bft) S 188 ° 2 min 645 W/m² 12,0 °C 18,0 °C 9,7 km/h (2 Bft)
24.09.2023 14:40 23,9 °C 18,7 °C 56 % 65 % 1027,4 hPa 0,0 l/m² 6,4 km/h (2 Bft) S 175 ° 2 min 654 W/m² 12,0 °C 18,7 °C 11,3 km/h (2 Bft)
24.09.2023 14:42 23,9 °C 18,6 °C 56 % 63 % 1027,2 hPa 0,0 l/m² 5,1 km/h (1 Bft) SO 132 ° 2 min 559 W/m² 11,4 °C 18,6 °C 9,7 km/h (2 Bft)
24.09.2023 14:43 23,9 °C 18,6 °C 56 % 65 % 1027,3 hPa 0,0 l/m² 0,9 km/h (0 Bft) SO 132 ° 1 min 629 W/m² 11,9 °C 18,6 °C 3,2 km/h (1 Bft)
24.09.2023 14:44 23,9 °C 18,7 °C 56 % 65 % 1027,3 hPa 0,0 l/m² 0,0 km/h (0 Bft) SO 132 ° 1 min 649 W/m² 12,0 °C 18,7 °C 0,0 km/h (0 Bft)
24.09.2023 14:46 24,0 °C 19,4 °C 56 % 63 % 1027,3 hPa 0,0 l/m² 1,4 km/h (1 Bft) O-NO 64 ° 2 min 629 W/m² 12,2 °C 19,4 °C 3,2 km/h (1 Bft)
24.09.2023 14:48 23,9 °C 19,3 °C 56 % 62 % 1027,2 hPa 0,0 l/m² 3,8 km/h (1 Bft) S-SW 205 ° 2 min 657 W/m² 11,8 °C 19,3 °C 8,0 km/h (2 Bft)
24.09.2023 14:50 23,9 °C 19,2 °C 56 % 62 % 1027,2 hPa 0,0 l/m² 5,5 km/h (2 Bft) S 191 ° 2 min 643 W/m² 11,7 °C 19,2 °C 12,9 km/h (3 Bft)
24.09.2023 14:52 24,0 °C 18,9 °C 56 % 63 % 1027,2 hPa 0,0 l/m² 5,5 km/h (2 Bft) S 171 ° 2 min 545 W/m² 11,7 °C 18,9 °C 8,0 km/h (2 Bft)
24.09.2023 14:53 23,9 °C 18,9 °C 56 % 64 % 1027,2 hPa 0,0 l/m² 5,0 km/h (1 Bft) S 180 ° 1 min 603 W/m² 11,9 °C 18,9 °C 6,4 km/h (2 Bft)
24.09.2023 14:54 23,9 °C 18,9 °C 56 % 64 % 1027,2 hPa 0,0 l/m² 6,2 km/h (2 Bft) S 169 ° 1 min 636 W/m² 11,9 °C 18,9 °C 8,0 km/h (2 Bft)
24.09.2023 14:56 23,9 °C 18,8 °C 56 % 63 % 1027,3 hPa 0,0 l/m² 2,3 km/h (1 Bft) S 169 ° 2 min 626 W/m² 11,6 °C 18,8 °C 8,0 km/h (2 Bft)
24.09.2023 14:58 23,9 °C 18,9 °C 56 % 63 % 1027,3 hPa 0,0 l/m² 3,9 km/h (1 Bft) O 82 ° 2 min 608 W/m² 11,7 °C 18,9 °C 6,4 km/h (2 Bft)
24.09.2023 15:00 23,9 °C 19,3 °C 56 % 65 % 1027,2 hPa 0,0 l/m² 2,4 km/h (1 Bft) O-NO 71 ° 2 min 605 W/m² 12,6 °C 19,3 °C 8,0 km/h (2 Bft)
24.09.2023 15:02 24,0 °C 19,1 °C 56 % 63 % 1027,2 hPa 0,0 l/m² 5,0 km/h (1 Bft) O-SO 103 ° 2 min 610 W/m² 11,9 °C 19,1 °C 9,7 km/h (2 Bft)
24.09.2023 15:03 24,0 °C 19,0 °C 56 % 64 % 1027,2 hPa 0,0 l/m² 6,4 km/h (2 Bft) O-SO 105 ° 1 min 606 W/m² 12,0 °C 19,0 °C 9,7 km/h (2 Bft)
24.09.2023 15:04 24,0 °C 18,9 °C 56 % 62 % 1027,2 hPa 0,0 l/m² 4,8 km/h (1 Bft) O 89 ° 1 min 603 W/m² 11,5 °C 18,9 °C 6,4 km/h (2 Bft)
24.09.2023 15:06 23,9 °C 19,3 °C 56 % 64 % 1027,2 hPa 0,0 l/m² 2,2 km/h (1 Bft) O 84 ° 2 min 598 W/m² 12,3 °C 19,3 °C 6,4 km/h (2 Bft)
24.09.2023 15:08 24,0 °C 19,6 °C 56 % 60 % 1027,2 hPa 0,0 l/m² 0,1 km/h (0 Bft) O 84 ° 2 min 591 W/m² 11,6 °C 19,6 °C 1,6 km/h (1 Bft)
24.09.2023 15:10 24,0 °C 19,3 °C 56 % 58 % 1027,2 hPa 0,0 l/m² 0,5 km/h (0 Bft) O 80 ° 2 min 585 W/m² 10,8 °C 19,3 °C 1,6 km/h (1 Bft)
24.09.2023 15:12 24,0 °C 19,3 °C 56 % 64 % 1027,2 hPa 0,0 l/m² 0,8 km/h (0 Bft) O 83 ° 2 min 585 W/m² 12,3 °C 19,3 °C 3,2 km/h (1 Bft)
24.09.2023 15:13 24,0 °C 19,4 °C 56 % 64 % 1027,2 hPa 0,0 l/m² 0,9 km/h (0 Bft) O 83 ° 1 min 584 W/m² 12,4 °C 19,4 °C 3,2 km/h (1 Bft)
24.09.2023 15:14 24,0 °C 19,4 °C 56 % 61 % 1027,2 hPa 0,0 l/m² 4,0 km/h (1 Bft) O 85 ° 1 min 585 W/m² 11,7 °C 19,4 °C 4,8 km/h (1 Bft)
24.09.2023 15:16 24,0 °C 19,3 °C 56 % 64 % 1027,2 hPa 0,0 l/m² 3,7 km/h (1 Bft) O 86 ° 2 min 592 W/m² 12,3 °C 19,3 °C 6,4 km/h (2 Bft)
24.09.2023 15:18 24,0 °C 18,9 °C 56 % 64 % 1027,2 hPa 0,0 l/m² 6,1 km/h (2 Bft) O 90 ° 2 min 580 W/m² 11,9 °C 18,9 °C 9,7 km/h (2 Bft)
24.09.2023 15:20 24,0 °C 18,9 °C 56 % 67 % 1027,2 hPa 0,0 l/m² 5,9 km/h (2 Bft) O 89 ° 2 min 582 W/m² 12,6 °C 18,9 °C 9,7 km/h (2 Bft)
24.09.2023 15:22 24,0 °C 19,0 °C 56 % 67 % 1027,1 hPa 0,0 l/m² 6,2 km/h (2 Bft) O 81 ° 2 min 540 W/m² 12,7 °C 19,0 °C 8,0 km/h (2 Bft)
24.09.2023 15:23 24,0 °C 19,1 °C 56 % 64 % 1027,1 hPa 0,0 l/m² 5,4 km/h (2 Bft) O 90 ° 1 min 540 W/m² 12,1 °C 19,1 °C 6,4 km/h (2 Bft)
24.09.2023 15:24 24,0 °C 19,0 °C 56 % 63 % 1027,1 hPa 0,0 l/m² 5,2 km/h (1 Bft) O-SO 105 ° 1 min 111 W/m² 11,8 °C 19,0 °C 6,4 km/h (2 Bft)
24.09.2023 15:26 23,9 °C 18,7 °C 57 % 66 % 1027,1 hPa 0,0 l/m² 6,9 km/h (2 Bft) O 90 ° 2 min 120 W/m² 12,2 °C 18,5 °C 11,3 km/h (2 Bft)
24.09.2023 15:28 23,9 °C 18,6 °C 57 % 65 % 1027,1 hPa 0,0 l/m² 8,4 km/h (2 Bft) O 96 ° 2 min 570 W/m² 11,9 °C 17,7 °C 11,3 km/h (2 Bft)
24.09.2023 15:30 23,9 °C 18,8 °C 57 % 67 % 1027,0 hPa 0,0 l/m² 8,3 km/h (2 Bft) O 94 ° 2 min 545 W/m² 12,5 °C 18,0 °C 12,9 km/h (3 Bft)
24.09.2023 15:32 23,9 °C 18,8 °C 57 % 66 % 1027,0 hPa 0,0 l/m² 7,2 km/h (2 Bft) O 90 ° 2 min 461 W/m² 12,3 °C 18,4 °C 11,3 km/h (2 Bft)
24.09.2023 15:33 23,9 °C 19,0 °C 57 % 65 % 1027,1 hPa 0,0 l/m² 6,0 km/h (2 Bft) O 82 ° 1 min 512 W/m² 12,3 °C 19,0 °C 8,0 km/h (2 Bft)
24.09.2023 15:34 23,9 °C 19,1 °C 57 % 62 % 1027,1 hPa 0,0 l/m² 4,4 km/h (1 Bft) O 79 ° 1 min 506 W/m² 11,6 °C 19,1 °C 6,4 km/h (2 Bft)
24.09.2023 15:36 23,9 °C 19,1 °C 57 % 67 % 1027,0 hPa 0,0 l/m² 7,0 km/h (2 Bft) O 89 ° 2 min 557 W/m² 12,8 °C 18,8 °C 11,3 km/h (2 Bft)
24.09.2023 15:38 23,9 °C 19,0 °C 57 % 63 % 1026,9 hPa 0,0 l/m² 6,4 km/h (2 Bft) O 82 ° 2 min 441 W/m² 11,8 °C 19,0 °C 9,7 km/h (2 Bft)
24.09.2023 15:40 23,9 °C 18,9 °C 57 % 65 % 1027,0 hPa 0,0 l/m² 7,1 km/h (2 Bft) O 96 ° 2 min 425 W/m² 12,2 °C 18,6 °C 11,3 km/h (2 Bft)
24.09.2023 15:42 23,9 °C 18,9 °C 57 % 65 % 1027,0 hPa 0,0 l/m² 6,1 km/h (2 Bft) O 96 ° 2 min 485 W/m² 12,2 °C 18,9 °C 9,7 km/h (2 Bft)
24.09.2023 15:43 23,9 °C 19,0 °C 57 % 68 % 1027,0 hPa 0,0 l/m² 6,7 km/h (2 Bft) O 82 ° 1 min 548 W/m² 13,0 °C 18,9 °C 8,0 km/h (2 Bft)
24.09.2023 15:44 23,9 °C 19,0 °C 57 % 63 % 1026,9 hPa 0,0 l/m² 8,0 km/h (2 Bft) O 83 ° 1 min 552 W/m² 11,8 °C 18,3 °C 8,0 km/h (2 Bft)
24.09.2023 15:46 23,9 °C 19,1 °C 57 % 64 % 1027,0 hPa 0,0 l/m² 5,1 km/h (1 Bft) O-NO 69 ° 2 min 547 W/m² 12,1 °C 19,1 °C 8,0 km/h (2 Bft)
24.09.2023 15:48 23,9 °C 19,1 °C 57 % 64 % 1026,9 hPa 0,0 l/m² 5,9 km/h (2 Bft) O 90 ° 2 min 540 W/m² 12,1 °C 19,1 °C 11,3 km/h (2 Bft)
24.09.2023 15:50 23,9 °C 19,1 °C 57 % 62 % 1027,0 hPa 0,0 l/m² 5,2 km/h (1 Bft) O-NO 74 ° 2 min 538 W/m² 11,6 °C 19,1 °C 8,0 km/h (2 Bft)
24.09.2023 15:52 23,9 °C 19,2 °C 57 % 65 % 1027,0 hPa 0,0 l/m² 5,0 km/h (1 Bft) O 85 ° 2 min 533 W/m² 12,5 °C 19,2 °C 6,4 km/h (2 Bft)
24.09.2023 15:53 23,9 °C 19,2 °C 57 % 63 % 1026,9 hPa 0,0 l/m² 5,5 km/h (2 Bft) O-NO 72 ° 1 min 526 W/m² 12,0 °C 19,2 °C 8,0 km/h (2 Bft)
24.09.2023 15:54 23,9 °C 19,3 °C 57 % 64 % 1026,9 hPa 0,0 l/m² 2,8 km/h (1 Bft) O-NO 71 ° 1 min 524 W/m² 12,3 °C 19,3 °C 4,8 km/h (1 Bft)
24.09.2023 15:56 23,9 °C 19,5 °C 57 % 62 % 1026,9 hPa 0,0 l/m² 5,1 km/h (1 Bft) O 84 ° 2 min 524 W/m² 12,0 °C 19,5 °C 9,7 km/h (2 Bft)
24.09.2023 15:58 23,9 °C 19,4 °C 57 % 62 % 1026,9 hPa 0,0 l/m² 5,2 km/h (1 Bft) O 84 ° 2 min 524 W/m² 11,9 °C 19,4 °C 6,4 km/h (2 Bft)
24.09.2023 16:00 23,8 °C 19,2 °C 57 % 62 % 1027,0 hPa 0,0 l/m² 4,8 km/h (1 Bft) O-NO 74 ° 2 min 522 W/m² 11,7 °C 19,2 °C 6,4 km/h (2 Bft)
24.09.2023 16:02 23,8 °C 19,2 °C 57 % 63 % 1027,0 hPa 0,0 l/m² 4,6 km/h (1 Bft) O 98 ° 2 min 517 W/m² 12,0 °C 19,2 °C 9,7 km/h (2 Bft)
24.09.2023 16:03 23,8 °C 19,2 °C 57 % 62 % 1027,0 hPa 0,0 l/m² 5,5 km/h (2 Bft) O 81 ° 1 min 519 W/m² 11,7 °C 19,2 °C 6,4 km/h (2 Bft)
24.09.2023 16:04 23,8 °C 19,1 °C 57 % 61 % 1027,0 hPa 0,0 l/m² 1,3 km/h (1 Bft) O 83 ° 1 min 517 W/m² 11,4 °C 19,1 °C 4,8 km/h (1 Bft)
24.09.2023 16:06 23,8 °C 19,4 °C 57 % 61 % 1027,0 hPa 0,0 l/m² 0,4 km/h (0 Bft) O 82 ° 2 min 515 W/m² 11,7 °C 19,4 °C 1,6 km/h (1 Bft)
24.09.2023 16:08 23,8 °C 19,7 °C 57 % 65 % 1026,9 hPa 0,0 l/m² 2,6 km/h (1 Bft) S 187 ° 2 min 508 W/m² 12,9 °C 19,7 °C 4,8 km/h (1 Bft)
24.09.2023 16:10 23,8 °C 19,4 °C 57 % 61 % 1026,9 hPa 0,0 l/m² 4,4 km/h (1 Bft) S-SW 206 ° 2 min 504 W/m² 11,7 °C 19,4 °C 6,4 km/h (2 Bft)
24.09.2023 16:12 23,8 °C 19,2 °C 57 % 61 % 1026,9 hPa 0,0 l/m² 4,3 km/h (1 Bft) S-SW 209 ° 2 min 476 W/m² 11,5 °C 19,2 °C 8,0 km/h (2 Bft)
24.09.2023 16:13 23,8 °C 19,2 °C 57 % 60 % 1026,9 hPa 0,0 l/m² 4,5 km/h (1 Bft) SW 217 ° 1 min 406 W/m² 11,2 °C 19,2 °C 6,4 km/h (2 Bft)
24.09.2023 16:14 23,8 °C 19,2 °C 57 % 59 % 1026,9 hPa 0,0 l/m² 1,3 km/h (1 Bft) SW 217 ° 1 min 480 W/m² 11,0 °C 19,2 °C 3,2 km/h (1 Bft)
24.09.2023 16:15 23,7 °C 19,3 °C 57 % 61 % 1026,9 hPa 0,0 l/m² 0,8 km/h (0 Bft) SW 217 ° 1 min 475 W/m² 11,6 °C 19,3 °C 1,6 km/h (1 Bft)
24.09.2023 16:17 23,8 °C 19,4 °C 57 % 61 % 1026,8 hPa 0,0 l/m² 4,1 km/h (1 Bft) SW 217 ° 2 min 464 W/m² 11,7 °C 19,4 °C 8,0 km/h (2 Bft)
24.09.2023 16:19 23,7 °C 19,5 °C 57 % 60 % 1026,9 hPa 0,0 l/m² 2,4 km/h (1 Bft) SW 217 ° 2 min 206 W/m² 11,5 °C 19,5 °C 4,8 km/h (1 Bft)
24.09.2023 16:21 23,8 °C 19,1 °C 57 % 63 % 1026,9 hPa 0,0 l/m² 3,9 km/h (1 Bft) SW 217 ° 2 min 121 W/m² 11,9 °C 19,1 °C 6,4 km/h (2 Bft)
24.09.2023 16:22 23,7 °C 18,9 °C 57 % 62 % 1026,9 hPa 0,0 l/m² 0,6 km/h (0 Bft) SW 217 ° 1 min 121 W/m² 11,5 °C 18,9 °C 1,6 km/h (1 Bft)
24.09.2023 16:23 23,7 °C 18,8 °C 57 % 63 % 1026,9 hPa 0,0 l/m² 2,8 km/h (1 Bft) SW 217 ° 1 min 302 W/m² 11,6 °C 18,8 °C 4,8 km/h (1 Bft)
24.09.2023 16:25 23,7 °C 18,7 °C 57 % 65 % 1026,9 hPa 0,0 l/m² 1,3 km/h (1 Bft) SW 217 ° 2 min 316 W/m² 12,0 °C 18,7 °C 3,2 km/h (1 Bft)
24.09.2023 16:26 23,7 °C 18,6 °C 57 % 66 % 1026,9 hPa 0,0 l/m² 3,0 km/h (1 Bft) SW 217 ° 1 min 316 W/m² 12,1 °C 18,6 °C 4,8 km/h (1 Bft)
24.09.2023 16:27 23,7 °C 18,6 °C 57 % 62 % 1026,8 hPa 0,0 l/m² 3,3 km/h (1 Bft) SW 217 ° 1 min 316 W/m² 11,2 °C 18,6 °C 4,8 km/h (1 Bft)
24.09.2023 16:28 23,7 °C 18,6 °C 57 % 61 % 1026,8 hPa 0,0 l/m² 2,6 km/h (1 Bft) SW 217 ° 1 min 427 W/m² 10,9 °C 18,6 °C 3,2 km/h (1 Bft)
24.09.2023 16:30 23,7 °C 18,8 °C 57 % 67 % 1026,9 hPa 0,0 l/m² 2,9 km/h (1 Bft) SW 217 ° 2 min 422 W/m² 12,5 °C 18,8 °C 4,8 km/h (1 Bft)
24.09.2023 16:32 23,7 °C 18,8 °C 57 % 62 % 1026,9 hPa 0,0 l/m² 4,5 km/h (1 Bft) S-SW 198 ° 2 min 90 W/m² 11,4 °C 18,8 °C 6,4 km/h (2 Bft)
24.09.2023 16:33 23,7 °C 18,7 °C 57 % 60 % 1026,8 hPa 0,0 l/m² 2,7 km/h (1 Bft) S-SW 198 ° 1 min 90 W/m² 10,8 °C 18,7 °C 3,2 km/h (1 Bft)
24.09.2023 16:34 23,7 °C 18,6 °C 57 % 61 % 1026,8 hPa 0,0 l/m² 2,3 km/h (1 Bft) S-SW 198 ° 1 min 86 W/m² 10,9 °C 18,6 °C 3,2 km/h (1 Bft)
24.09.2023 16:36 23,7 °C 18,4 °C 57 % 62 % 1026,9 hPa 0,0 l/m² 2,6 km/h (1 Bft) S-SW 198 ° 2 min 171 W/m² 11,0 °C 18,4 °C 4,8 km/h (1 Bft)
24.09.2023 16:38 23,7 °C 18,5 °C 57 % 64 % 1026,8 hPa 0,0 l/m² 0,5 km/h (0 Bft) S-SW 198 ° 2 min 383 W/m² 11,6 °C 18,5 °C 1,6 km/h (1 Bft)
24.09.2023 16:40 23,7 °C 18,7 °C 57 % 61 % 1026,8 hPa 0,0 l/m² 0,1 km/h (0 Bft) S-SW 198 ° 2 min 380 W/m² 11,0 °C 18,7 °C 1,6 km/h (1 Bft)
24.09.2023 16:42 23,7 °C 18,8 °C 57 % 63 % 1026,8 hPa 0,0 l/m² 0,9 km/h (0 Bft) S-SW 198 ° 2 min 83 W/m² 11,6 °C 18,8 °C 3,2 km/h (1 Bft)
24.09.2023 16:43 23,6 °C 18,8 °C 57 % 62 % 1026,8 hPa 0,0 l/m² 0,2 km/h (0 Bft) S-SW 198 ° 1 min 83 W/m² 11,4 °C 18,8 °C 1,6 km/h (1 Bft)
24.09.2023 16:44 23,6 °C 18,8 °C 57 % 63 % 1026,8 hPa 0,0 l/m² 3,6 km/h (1 Bft) S 173 ° 1 min 352 W/m² 11,6 °C 18,8 °C 6,4 km/h (2 Bft)
24.09.2023 16:46 23,6 °C 18,7 °C 58 % 61 % 1026,8 hPa 0,0 l/m² 5,6 km/h (2 Bft) S-SO 163 ° 2 min 352 W/m² 11,0 °C 18,7 °C 8,0 km/h (2 Bft)
24.09.2023 16:47 23,6 °C 18,7 °C 58 % 63 % 1026,8 hPa 0,0 l/m² 2,7 km/h (1 Bft) S-SO 163 ° 1 min 81 W/m² 11,5 °C 18,7 °C 6,4 km/h (2 Bft)
24.09.2023 16:48 23,6 °C 18,6 °C 58 % 61 % 1026,8 hPa 0,0 l/m² 7,6 km/h (2 Bft) SO 131 ° 1 min 172 W/m² 10,9 °C 18,1 °C 11,3 km/h (2 Bft)
24.09.2023 16:50 23,7 °C 18,4 °C 58 % 62 % 1026,7 hPa 0,0 l/m² 6,0 km/h (2 Bft) SO 125 ° 2 min 334 W/m² 11,0 °C 18,4 °C 8,0 km/h (2 Bft)
24.09.2023 16:52 23,6 °C 18,5 °C 58 % 64 % 1026,8 hPa 0,0 l/m² 4,5 km/h (1 Bft) SO 129 ° 2 min 334 W/m² 11,6 °C 18,5 °C 6,4 km/h (2 Bft)
24.09.2023 16:53 23,6 °C 18,6 °C 57 % 66 % 1026,8 hPa 0,0 l/m² 3,9 km/h (1 Bft) SO 130 ° 1 min 325 W/m² 12,1 °C 18,6 °C 4,8 km/h (1 Bft)
24.09.2023 16:54 23,6 °C 18,7 °C 57 % 64 % 1026,8 hPa 0,0 l/m² 4,4 km/h (1 Bft) SO 134 ° 1 min 325 W/m² 11,7 °C 18,7 °C 6,4 km/h (2 Bft)
24.09.2023 16:55 23,6 °C 18,7 °C 58 % 62 % 1026,7 hPa 0,0 l/m² 3,6 km/h (1 Bft) SO 136 ° 1 min 325 W/m² 11,3 °C 18,7 °C 4,8 km/h (1 Bft)
24.09.2023 16:57 23,6 °C 18,8 °C 57 % 61 % 1026,8 hPa 0,0 l/m² 4,2 km/h (1 Bft) S 189 ° 2 min 323 W/m² 11,1 °C 18,8 °C 8,0 km/h (2 Bft)
24.09.2023 16:59 23,6 °C 18,8 °C 57 % 63 % 1026,8 hPa 0,0 l/m² 2,3 km/h (1 Bft) S 189 ° 2 min 320 W/m² 11,6 °C 18,8 °C 4,8 km/h (1 Bft)
24.09.2023 17:02 23,6 °C 18,9 °C 57 % 64 % 1026,7 hPa 0,0 l/m² 3,0 km/h (1 Bft) S 180 ° 3 min 309 W/m² 11,9 °C 18,9 °C 4,8 km/h (1 Bft)
24.09.2023 17:03 23,6 °C 18,9 °C 57 % 63 % 1026,7 hPa 0,0 l/m² 4,9 km/h (1 Bft) S 178 ° 1 min 306 W/m² 11,7 °C 18,9 °C 8,0 km/h (2 Bft)
24.09.2023 17:04 23,6 °C 18,9 °C 57 % 63 % 1026,7 hPa 0,0 l/m² 8,8 km/h (2 Bft) S-SW 192 ° 1 min 302 W/m² 11,7 °C 17,9 °C 11,3 km/h (2 Bft)
24.09.2023 17:05 23,6 °C 18,9 °C 57 % 62 % 1026,6 hPa 0,0 l/m² 7,6 km/h (2 Bft) S 171 ° 1 min 297 W/m² 11,5 °C 18,4 °C 9,7 km/h (2 Bft)
24.09.2023 17:07 23,6 °C 18,8 °C 56 % 62 % 1026,7 hPa 0,0 l/m² 7,7 km/h (2 Bft) S 177 ° 2 min 290 W/m² 11,4 °C 18,2 °C 11,3 km/h (2 Bft)
24.09.2023 17:09 23,6 °C 18,8 °C 56 % 63 % 1026,7 hPa 0,0 l/m² 5,7 km/h (2 Bft) S 178 ° 2 min 283 W/m² 11,6 °C 18,8 °C 8,0 km/h (2 Bft)
24.09.2023 17:12 23,5 °C 18,7 °C 56 % 61 % 1026,7 hPa 0,0 l/m² 5,6 km/h (2 Bft) S 179 ° 3 min 271 W/m² 11,0 °C 18,7 °C 8,0 km/h (2 Bft)
24.09.2023 17:13 23,5 °C 18,7 °C 56 % 62 % 1026,7 hPa 0,0 l/m² 5,4 km/h (2 Bft) S 179 ° 1 min 267 W/m² 11,3 °C 18,7 °C 6,4 km/h (2 Bft)
24.09.2023 17:14 23,5 °C 18,7 °C 56 % 61 % 1026,7 hPa 0,0 l/m² 3,8 km/h (1 Bft) S 179 ° 1 min 265 W/m² 11,0 °C 18,7 °C 4,8 km/h (1 Bft)
24.09.2023 17:15 23,5 °C 18,7 °C 56 % 64 % 1026,7 hPa 0,0 l/m² 3,6 km/h (1 Bft) S 179 ° 1 min 264 W/m² 11,7 °C 18,7 °C 4,8 km/h (1 Bft)
24.09.2023 17:17 23,5 °C 18,7 °C 56 % 62 % 1026,7 hPa 0,0 l/m² 5,4 km/h (2 Bft) S 177 ° 2 min 255 W/m² 11,3 °C 18,7 °C 6,4 km/h (2 Bft)
24.09.2023 17:19 23,5 °C 18,7 °C 55 % 65 % 1026,6 hPa 0,0 l/m² 2,7 km/h (1 Bft) S 177 ° 2 min 246 W/m² 12,0 °C 18,7 °C 4,8 km/h (1 Bft)
24.09.2023 17:22 23,4 °C 18,8 °C 55 % 60 % 1026,7 hPa 0,0 l/m² 2,6 km/h (1 Bft) S 178 ° 3 min 234 W/m² 10,9 °C 18,8 °C 4,8 km/h (1 Bft)
24.09.2023 17:23 23,4 °C 18,8 °C 55 % 59 % 1026,6 hPa 0,0 l/m² 1,9 km/h (1 Bft) S 178 ° 1 min 227 W/m² 10,6 °C 18,8 °C 3,2 km/h (1 Bft)
24.09.2023 17:24 23,4 °C 18,8 °C 55 % 60 % 1026,6 hPa 0,0 l/m² 0,8 km/h (0 Bft) S 178 ° 1 min 223 W/m² 10,9 °C 18,8 °C 1,6 km/h (1 Bft)
24.09.2023 17:25 23,4 °C 18,8 °C 55 % 62 % 1026,7 hPa 0,0 l/m² 2,1 km/h (1 Bft) S 178 ° 1 min 220 W/m² 11,4 °C 18,8 °C 3,2 km/h (1 Bft)
24.09.2023 17:27 23,4 °C 18,8 °C 55 % 60 % 1026,7 hPa 0,0 l/m² 1,6 km/h (1 Bft) S 178 ° 2 min 213 W/m² 10,9 °C 18,8 °C 3,2 km/h (1 Bft)
24.09.2023 17:29 23,4 °C 18,7 °C 54 % 60 % 1026,7 hPa 0,0 l/m² 1,8 km/h (1 Bft) S 178 ° 2 min 204 W/m² 10,8 °C 18,7 °C 4,8 km/h (1 Bft)
24.09.2023 17:31 23,4 °C 18,7 °C 54 % 59 % 1026,7 hPa 0,0 l/m² 3,5 km/h (1 Bft) S 174 ° 2 min 199 W/m² 10,5 °C 18,7 °C 6,4 km/h (2 Bft)
24.09.2023 17:32 23,4 °C 18,7 °C 54 % 58 % 1026,7 hPa 0,0 l/m² 2,5 km/h (1 Bft) S 174 ° 1 min 195 W/m² 10,3 °C 18,7 °C 3,2 km/h (1 Bft)
24.09.2023 17:33 23,4 °C 18,7 °C 54 % 58 % 1026,7 hPa 0,0 l/m² 2,1 km/h (1 Bft) S 174 ° 1 min 192 W/m² 10,3 °C 18,7 °C 3,2 km/h (1 Bft)
24.09.2023 17:35 23,4 °C 18,7 °C 53 % 60 % 1026,7 hPa 0,0 l/m² 1,6 km/h (1 Bft) S 174 ° 2 min 183 W/m² 10,8 °C 18,7 °C 3,2 km/h (1 Bft)
24.09.2023 17:37 23,3 °C 18,7 °C 53 % 61 % 1026,7 hPa 0,0 l/m² 0,0 km/h (0 Bft) S 174 ° 2 min 176 W/m² 11,0 °C 18,7 °C 1,6 km/h (1 Bft)
24.09.2023 17:39 23,3 °C 18,7 °C 53 % 57 % 1026,8 hPa 0,0 l/m² 0,0 km/h (0 Bft) S 174 ° 2 min 171 W/m² 10,0 °C 18,7 °C 0,0 km/h (0 Bft)
24.09.2023 17:41 23,4 °C 18,7 °C 53 % 60 % 1026,8 hPa 0,0 l/m² 0,0 km/h (0 Bft) S 174 ° 2 min 160 W/m² 10,8 °C 18,7 °C 0,0 km/h (0 Bft)
24.09.2023 17:44 23,3 °C 18,7 °C 53 % 63 % 1026,7 hPa 0,0 l/m² 1,9 km/h (1 Bft) S 173 ° 3 min 153 W/m² 11,5 °C 18,7 °C 8,0 km/h (2 Bft)
24.09.2023 17:46 23,3 °C 18,6 °C 52 % 59 % 1026,8 hPa 0,0 l/m² 3,5 km/h (1 Bft) S 172 ° 2 min 144 W/m² 10,4 °C 18,6 °C 4,8 km/h (1 Bft)
24.09.2023 17:48 23,3 °C 18,4 °C 50 % 63 % 1026,7 hPa 0,0 l/m² 2,1 km/h (1 Bft) S 172 ° 2 min 139 W/m² 11,2 °C 18,4 °C 3,2 km/h (1 Bft)
24.09.2023 17:50 23,2 °C 18,4 °C 49 % 59 % 1026,7 hPa 0,0 l/m² 0,5 km/h (0 Bft) S 172 ° 2 min 134 W/m² 10,2 °C 18,4 °C 1,6 km/h (1 Bft)
24.09.2023 17:52 23,2 °C 18,6 °C 49 % 61 % 1026,7 hPa 0,0 l/m² 1,6 km/h (1 Bft) S 172 ° 2 min 127 W/m² 10,9 °C 18,6 °C 3,2 km/h (1 Bft)
24.09.2023 17:53 23,1 °C 18,5 °C 48 % 61 % 1026,6 hPa 0,0 l/m² 1,0 km/h (0 Bft) S 172 ° 1 min 121 W/m² 10,8 °C 18,5 °C 3,2 km/h (1 Bft)
24.09.2023 17:54 23,1 °C 18,5 °C 48 % 59 % 1026,6 hPa 0,0 l/m² 2,7 km/h (1 Bft) S 172 ° 1 min 120 W/m² 10,3 °C 18,5 °C 3,2 km/h (1 Bft)
24.09.2023 17:56 23,1 °C 18,4 °C 48 % 64 % 1026,6 hPa 0,0 l/m² 1,6 km/h (1 Bft) S 172 ° 2 min 114 W/m² 11,5 °C 18,4 °C 3,2 km/h (1 Bft)
24.09.2023 17:58 23,1 °C 18,4 °C 48 % 60 % 1026,6 hPa 0,0 l/m² 0,1 km/h (0 Bft) S 172 ° 2 min 105 W/m² 10,5 °C 18,4 °C 1,6 km/h (1 Bft)
24.09.2023 18:00 23,1 °C 18,3 °C 48 % 64 % 1026,7 hPa 0,0 l/m² 0,7 km/h (0 Bft) S 172 ° 2 min 100 W/m² 11,4 °C 18,3 °C 3,2 km/h (1 Bft)
24.09.2023 18:02 23,0 °C 18,3 °C 49 % 66 % 1026,7 hPa 0,0 l/m² 1,7 km/h (1 Bft) S 172 ° 2 min 95 W/m² 11,8 °C 18,3 °C 3,2 km/h (1 Bft)
24.09.2023 18:03 23,0 °C 18,2 °C 49 % 64 % 1026,7 hPa 0,0 l/m² 1,6 km/h (1 Bft) S 172 ° 1 min 91 W/m² 11,3 °C 18,2 °C 3,2 km/h (1 Bft)
24.09.2023 18:04 23,0 °C 18,2 °C 49 % 64 % 1026,7 hPa 0,0 l/m² 3,1 km/h (1 Bft) S 172 ° 1 min 90 W/m² 11,3 °C 18,2 °C 4,8 km/h (1 Bft)
24.09.2023 18:06 23,0 °C 18,2 °C 49 % 65 % 1026,7 hPa 0,0 l/m² 2,3 km/h (1 Bft) S 172 ° 2 min 84 W/m² 11,5 °C 18,2 °C 3,2 km/h (1 Bft)
24.09.2023 18:08 23,0 °C 18,1 °C 49 % 62 % 1026,7 hPa 0,0 l/m² 1,3 km/h (1 Bft) S 172 ° 2 min 79 W/m² 10,7 °C 18,1 °C 3,2 km/h (1 Bft)
24.09.2023 18:10 23,0 °C 18,3 °C 50 % 63 % 1026,7 hPa 0,0 l/m² 0,0 km/h (0 Bft) S 172 ° 2 min 72 W/m² 11,1 °C 18,3 °C 0,0 km/h (0 Bft)
24.09.2023 18:12 23,0 °C 18,2 °C 50 % 63 % 1026,8 hPa 0,0 l/m² 1,3 km/h (1 Bft) S 172 ° 2 min 69 W/m² 11,0 °C 18,2 °C 3,2 km/h (1 Bft)
24.09.2023 18:14 23,0 °C 18,2 °C 50 % 63 % 1026,7 hPa 0,0 l/m² 2,5 km/h (1 Bft) S 172 ° 2 min 63 W/m² 11,0 °C 18,2 °C 4,8 km/h (1 Bft)
24.09.2023 18:16 23,0 °C 18,1 °C 49 % 63 % 1026,7 hPa 0,0 l/m² 3,1 km/h (1 Bft) S 172 ° 2 min 58 W/m² 10,9 °C 18,1 °C 4,8 km/h (1 Bft)
24.09.2023 18:18 23,0 °C 17,9 °C 49 % 65 % 1026,7 hPa 0,0 l/m² 1,2 km/h (1 Bft) S 172 ° 2 min 53 W/m² 11,2 °C 17,9 °C 1,6 km/h (1 Bft)
24.09.2023 18:20 23,0 °C 17,9 °C 49 % 63 % 1026,7 hPa 0,0 l/m² 0,3 km/h (0 Bft) S 172 ° 0 min 51 W/m² 10,8 °C 17,9 °C 1,6 km/h (1 Bft)
24.09.2023 18:22 23,0 °C 18,0 °C 49 % 64 % 1026,7 hPa 0,0 l/m² 0,6 km/h (0 Bft) S 172 ° 0 min 46 W/m² 11,1 °C 18,0 °C 1,6 km/h (1 Bft)
24.09.2023 18:23 23,0 °C 17,9 °C 49 % 63 % 1026,7 hPa 0,0 l/m² 0,4 km/h (0 Bft) S 172 ° 0 min 44 W/m² 10,8 °C 17,9 °C 1,6 km/h (1 Bft)
24.09.2023 18:24 23,0 °C 17,9 °C 49 % 64 % 1026,7 hPa 0,0 l/m² 1,3 km/h (1 Bft) S 172 ° 0 min 42 W/m² 11,0 °C 17,9 °C 1,6 km/h (1 Bft)
24.09.2023 18:26 22,9 °C 17,9 °C 49 % 63 % 1026,7 hPa 0,0 l/m² 1,4 km/h (1 Bft) S 172 ° 0 min 39 W/m² 10,8 °C 17,9 °C 3,2 km/h (1 Bft)
24.09.2023 18:28 22,9 °C 17,8 °C 50 % 65 % 1026,7 hPa 0,0 l/m² 0,8 km/h (0 Bft) S 172 ° 0 min 33 W/m² 11,1 °C 17,8 °C 1,6 km/h (1 Bft)
24.09.2023 18:30 22,9 °C 17,7 °C 50 % 66 % 1026,6 hPa 0,0 l/m² 0,5 km/h (0 Bft) S 172 ° 0 min 32 W/m² 11,3 °C 17,7 °C 1,6 km/h (1 Bft)
24.09.2023 18:32 22,9 °C 17,6 °C 50 % 65 % 1026,7 hPa 0,0 l/m² 1,1 km/h (1 Bft) S 172 ° 0 min 28 W/m² 10,9 °C 17,6 °C 1,6 km/h (1 Bft)
24.09.2023 18:33 23,0 °C 17,6 °C 51 % 66 % 1026,6 hPa 0,0 l/m² 1,4 km/h (1 Bft) S 172 ° 0 min 26 W/m² 11,2 °C 17,6 °C 3,2 km/h (1 Bft)
24.09.2023 18:35 23,0 °C 17,4 °C 51 % 67 % 1026,6 hPa 0,0 l/m² 1,0 km/h (0 Bft) S 172 ° 0 min 25 W/m² 11,2 °C 17,4 °C 1,6 km/h (1 Bft)
24.09.2023 18:37 23,0 °C 17,3 °C 51 % 67 % 1026,6 hPa 0,0 l/m² 0,3 km/h (0 Bft) S 172 ° 0 min 23 W/m² 11,1 °C 17,3 °C 1,6 km/h (1 Bft)
24.09.2023 18:39 23,0 °C 17,3 °C 51 % 67 % 1026,7 hPa 0,0 l/m² 0,4 km/h (0 Bft) S 172 ° 0 min 19 W/m² 11,1 °C 17,3 °C 1,6 km/h (1 Bft)
24.09.2023 18:42 23,0 °C 17,2 °C 51 % 67 % 1026,7 hPa 0,0 l/m² 0,4 km/h (0 Bft) S 172 ° 0 min 19 W/m² 11,0 °C 17,2 °C 1,6 km/h (1 Bft)
24.09.2023 18:43 23,0 °C 17,1 °C 51 % 67 % 1026,6 hPa 0,0 l/m² 0,0 km/h (0 Bft) S 172 ° 0 min 18 W/m² 10,9 °C 17,1 °C 0,0 km/h (0 Bft)
24.09.2023 18:44 23,1 °C 17,0 °C 51 % 68 % 1026,7 hPa 0,0 l/m² 0,0 km/h (0 Bft) S 172 ° 0 min 18 W/m² 11,0 °C 17,0 °C 0,0 km/h (0 Bft)
24.09.2023 18:46 23,1 °C 16,8 °C 52 % 70 % 1026,8 hPa 0,0 l/m² 0,0 km/h (0 Bft) S 172 ° 0 min 16 W/m² 11,3 °C 16,8 °C 0,0 km/h (0 Bft)
24.09.2023 18:47 23,1 °C 16,8 °C 52 % 70 % 1026,7 hPa 0,0 l/m² 1,0 km/h (0 Bft) S 172 ° 0 min 16 W/m² 11,3 °C 16,8 °C 1,6 km/h (1 Bft)
24.09.2023 18:49 23,1 °C 16,5 °C 52 % 71 % 1026,7 hPa 0,0 l/m² 1,1 km/h (1 Bft) S 172 ° 0 min 14 W/m² 11,2 °C 16,5 °C 1,6 km/h (1 Bft)
24.09.2023 18:51 23,1 °C 16,3 °C 52 % 72 % 1026,8 hPa 0,0 l/m² 1,1 km/h (1 Bft) S 172 ° 0 min 12 W/m² 11,2 °C 16,3 °C 1,6 km/h (1 Bft)
24.09.2023 18:52 23,1 °C 16,2 °C 52 % 73 % 1026,8 hPa 0,0 l/m² 1,4 km/h (1 Bft) S 172 ° 0 min 12 W/m² 11,4 °C 16,2 °C 1,6 km/h (1 Bft)
24.09.2023 18:53 23,1 °C 16,1 °C 52 % 73 % 1026,8 hPa 0,0 l/m² 1,6 km/h (1 Bft) S 172 ° 0 min 12 W/m² 11,3 °C 16,1 °C 1,6 km/h (1 Bft)
24.09.2023 18:55 23,1 °C 15,9 °C 52 % 74 % 1026,8 hPa 0,0 l/m² 1,7 km/h (1 Bft) S 172 ° 0 min 11 W/m² 11,3 °C 15,9 °C 3,2 km/h (1 Bft)
24.09.2023 18:57 23,1 °C 15,8 °C 52 % 75 % 1026,9 hPa 0,0 l/m² 1,2 km/h (1 Bft) S 172 ° 0 min 11 W/m² 11,4 °C 15,8 °C 1,6 km/h (1 Bft)
24.09.2023 18:59 23,1 °C 15,6 °C 52 % 75 % 1026,9 hPa 0,0 l/m² 1,1 km/h (1 Bft) S 172 ° 0 min 9 W/m² 11,2 °C 15,6 °C 3,2 km/h (1 Bft)
24.09.2023 19:02 23,1 °C 15,5 °C 52 % 75 % 1026,8 hPa 0,0 l/m² 0,8 km/h (0 Bft) S 172 ° 0 min 7 W/m² 11,1 °C 15,5 °C 1,6 km/h (1 Bft)
24.09.2023 19:03 23,1 °C 15,4 °C 52 % 75 % 1026,9 hPa 0,0 l/m² 0,7 km/h (0 Bft) S 172 ° 0 min 7 W/m² 11,0 °C 15,4 °C 1,6 km/h (1 Bft)
24.09.2023 19:04 23,1 °C 15,4 °C 52 % 75 % 1026,9 hPa 0,0 l/m² 0,5 km/h (0 Bft) S 172 ° 0 min 7 W/m² 11,0 °C 15,4 °C 1,6 km/h (1 Bft)
24.09.2023 19:05 23,1 °C 15,3 °C 52 % 75 % 1026,9 hPa 0,0 l/m² 0,0 km/h (0 Bft) S 172 ° 0 min 5 W/m² 10,9 °C 15,3 °C 0,0 km/h (0 Bft)
24.09.2023 19:07 23,1 °C 15,2 °C 53 % 75 % 1026,9 hPa 0,0 l/m² 0,0 km/h (0 Bft) S 172 ° 0 min 5 W/m² 10,8 °C 15,2 °C 0,0 km/h (0 Bft)
24.09.2023 19:09 23,1 °C 15,1 °C 53 % 76 % 1026,9 hPa 0,0 l/m² 0,0 km/h (0 Bft) S 172 ° 0 min 0 W/m² 10,9 °C 15,1 °C 0,0 km/h (0 Bft)
24.09.2023 19:12 23,1 °C 14,9 °C 53 % 78 % 1026,9 hPa 0,0 l/m² 0,0 km/h (0 Bft) S 172 ° 0 min 0 W/m² 11,1 °C 14,9 °C 0,0 km/h (0 Bft)
24.09.2023 19:13 23,1 °C 14,8 °C 53 % 78 % 1026,9 hPa 0,0 l/m² 0,0 km/h (0 Bft) S 172 ° 0 min 0 W/m² 11,0 °C 14,8 °C 0,0 km/h (0 Bft)
24.09.2023 19:14 23,1 °C 14,8 °C 53 % 79 % 1026,9 hPa 0,0 l/m² 0,0 km/h (0 Bft) S 172 ° 0 min 0 W/m² 11,2 °C 14,8 °C 0,0 km/h (0 Bft)
24.09.2023 19:15 23,1 °C 14,8 °C 53 % 79 % 1026,9 hPa 0,0 l/m² 0,0 km/h (0 Bft) S 172 ° 0 min 0 W/m² 11,2 °C 14,8 °C 0,0 km/h (0 Bft)
24.09.2023 19:17 23,1 °C 14,7 °C 53 % 79 % 1026,9 hPa 0,0 l/m² 0,0 km/h (0 Bft) S 172 ° 0 min 0 W/m² 11,1 °C 14,7 °C 0,0 km/h (0 Bft)
24.09.2023 19:19 23,1 °C 14,6 °C 53 % 80 % 1026,9 hPa 0,0 l/m² 0,0 km/h (0 Bft) S 172 ° 0 min 0 W/m² 11,2 °C 14,6 °C 0,0 km/h (0 Bft)
24.09.2023 19:22 23,0 °C 14,4 °C 53 % 79 % 1027,0 hPa 0,0 l/m² 0,0 km/h (0 Bft) S 172 ° 0 min 0 W/m² 10,8 °C 14,4 °C 0,0 km/h (0 Bft)
24.09.2023 19:23 23,0 °C 14,3 °C 53 % 79 % 1027,0 hPa 0,0 l/m² 0,0 km/h (0 Bft) S 172 ° 0 min 0 W/m² 10,7 °C 14,3 °C 0,0 km/h (0 Bft)
24.09.2023 19:24 23,0 °C 14,3 °C 53 % 79 % 1027,0 hPa 0,0 l/m² 0,0 km/h (0 Bft) S 172 ° 0 min 0 W/m² 10,7 °C 14,3 °C 0,0 km/h (0 Bft)
24.09.2023 19:25 23,0 °C 14,3 °C 53 % 79 % 1026,9 hPa 0,0 l/m² 0,0 km/h (0 Bft) S 172 ° 0 min 0 W/m² 10,7 °C 14,3 °C 0,0 km/h (0 Bft)
24.09.2023 19:27 23,0 °C 14,2 °C 53 % 79 % 1026,9 hPa 0,0 l/m² 0,3 km/h (0 Bft) S 172 ° 0 min 0 W/m² 10,6 °C 14,2 °C 1,6 km/h (1 Bft)
24.09.2023 19:29 23,0 °C 13,9 °C 53 % 79 % 1027,0 hPa 0,0 l/m² 0,2 km/h (0 Bft) S 172 ° 0 min 0 W/m² 10,3 °C 13,9 °C 1,6 km/h (1 Bft)
24.09.2023 19:32 23,0 °C 13,8 °C 54 % 80 % 1026,9 hPa 0,0 l/m² 0,3 km/h (0 Bft) S 172 ° 0 min 0 W/m² 10,4 °C 13,8 °C 1,6 km/h (1 Bft)
24.09.2023 19:33 23,0 °C 13,8 °C 54 % 80 % 1026,9 hPa 0,0 l/m² 0,3 km/h (0 Bft) S 172 ° 0 min 0 W/m² 10,4 °C 13,8 °C 1,6 km/h (1 Bft)
24.09.2023 19:34 23,0 °C 13,7 °C 54 % 80 % 1026,9 hPa 0,0 l/m² 1,3 km/h (1 Bft) S 172 ° 0 min 0 W/m² 10,3 °C 13,7 °C 1,6 km/h (1 Bft)
24.09.2023 19:35 23,0 °C 13,8 °C 54 % 80 % 1026,9 hPa 0,0 l/m² 0,7 km/h (0 Bft) S 172 ° 0 min 0 W/m² 10,4 °C 13,8 °C 3,2 km/h (1 Bft)
24.09.2023 19:37 23,0 °C 13,9 °C 54 % 80 % 1026,9 hPa 0,0 l/m² 1,3 km/h (1 Bft) S 172 ° 0 min 0 W/m² 10,5 °C 13,9 °C 3,2 km/h (1 Bft)
24.09.2023 19:39 23,0 °C 13,8 °C 54 % 80 % 1027,0 hPa 0,0 l/m² 0,3 km/h (0 Bft) S 172 ° 0 min 0 W/m² 10,4 °C 13,8 °C 1,6 km/h (1 Bft)
24.09.2023 19:42 23,1 °C 13,5 °C 54 % 81 % 1027,0 hPa 0,0 l/m² 0,7 km/h (0 Bft) S 172 ° 0 min 0 W/m² 10,3 °C 13,5 °C 3,2 km/h (1 Bft)
24.09.2023 19:43 23,0 °C 13,4 °C 54 % 81 % 1027,0 hPa 0,0 l/m² 0,3 km/h (0 Bft) S 172 ° 0 min 0 W/m² 10,2 °C 13,4 °C 1,6 km/h (1 Bft)
24.09.2023 19:44 23,0 °C 13,3 °C 54 % 81 % 1027,0 hPa 0,0 l/m² 0,7 km/h (0 Bft) S 172 ° 0 min 0 W/m² 10,1 °C 13,3 °C 1,6 km/h (1 Bft)
24.09.2023 19:45 23,0 °C 13,2 °C 54 % 82 % 1027,0 hPa 0,0 l/m² 0,4 km/h (0 Bft) S 172 ° 0 min 0 W/m² 10,2 °C 13,2 °C 1,6 km/h (1 Bft)
24.09.2023 19:47 23,0 °C 13,2 °C 54 % 82 % 1027,0 hPa 0,0 l/m² 0,6 km/h (0 Bft) S 172 ° 0 min 0 W/m² 10,2 °C 13,2 °C 1,6 km/h (1 Bft)
24.09.2023 19:49 23,0 °C 13,2 °C 54 % 82 % 1027,0 hPa 0,0 l/m² 0,0 km/h (0 Bft) S 172 ° 0 min 0 W/m² 10,2 °C 13,2 °C 1,6 km/h (1 Bft)
24.09.2023 19:52 23,0 °C 13,2 °C 55 % 82 % 1027,1 hPa 0,0 l/m² 0,1 km/h (0 Bft) S 172 ° 0 min 0 W/m² 10,2 °C 13,2 °C 1,6 km/h (1 Bft)
24.09.2023 19:53 23,1 °C 13,3 °C 55 % 82 % 1027,0 hPa 0,0 l/m² 0,0 km/h (0 Bft) S 172 ° 0 min 0 W/m² 10,3 °C 13,3 °C 0,0 km/h (0 Bft)
24.09.2023 19:54 23,1 °C 13,2 °C 55 % 81 % 1027,0 hPa 0,0 l/m² 0,2 km/h (0 Bft) S 172 ° 0 min 0 W/m² 10,0 °C 13,2 °C 1,6 km/h (1 Bft)
24.09.2023 19:55 23,1 °C 13,1 °C 55 % 82 % 1027,1 hPa 0,0 l/m² 0,0 km/h (0 Bft) S 172 ° 0 min 0 W/m² 10,1 °C 13,1 °C 0,0 km/h (0 Bft)
24.09.2023 19:57 23,1 °C 13,0 °C 55 % 82 % 1027,1 hPa 0,0 l/m² 0,0 km/h (0 Bft) S 172 ° 0 min 0 W/m² 10,0 °C 13,0 °C 1,6 km/h (1 Bft)
24.09.2023 19:59 23,1 °C 12,9 °C 55 % 83 % 1027,1 hPa 0,0 l/m² 0,0 km/h (0 Bft) S 172 ° 0 min 0 W/m² 10,1 °C 12,9 °C 0,0 km/h (0 Bft)
24.09.2023 20:01 23,1 °C 12,8 °C 55 % 83 % 1027,1 hPa 0,0 l/m² 0,0 km/h (0 Bft) S 172 ° 0 min 0 W/m² 10,0 °C 12,8 °C 1,6 km/h (1 Bft)
24.09.2023 20:02 23,1 °C 12,8 °C 55 % 83 % 1027,1 hPa 0,0 l/m² 0,4 km/h (0 Bft) S 172 ° 0 min 0 W/m² 10,0 °C 12,8 °C 1,6 km/h (1 Bft)
24.09.2023 20:03 23,1 °C 12,8 °C 55 % 83 % 1027,1 hPa 0,0 l/m² 0,7 km/h (0 Bft) S 172 ° 0 min 0 W/m² 10,0 °C 12,8 °C 1,6 km/h (1 Bft)
24.09.2023 20:05 23,1 °C 12,7 °C 55 % 84 % 1027,2 hPa 0,0 l/m² 0,2 km/h (0 Bft) S 172 ° 0 min 0 W/m² 10,1 °C 12,7 °C 1,6 km/h (1 Bft)
24.09.2023 20:06 23,1 °C 12,6 °C 55 % 84 % 1027,1 hPa 0,0 l/m² 0,0 km/h (0 Bft) S 172 ° 0 min 0 W/m² 10,0 °C 12,6 °C 0,0 km/h (0 Bft)
24.09.2023 20:07 23,1 °C 12,6 °C 55 % 84 % 1027,2 hPa 0,0 l/m² 0,0 km/h (0 Bft) S 172 ° 0 min 0 W/m² 10,0 °C 12,6 °C 0,0 km/h (0 Bft)
24.09.2023 20:08 23,1 °C 12,5 °C 55 % 84 % 1027,2 hPa 0,0 l/m² 0,0 km/h (0 Bft) S 172 ° 0 min 0 W/m² 9,9 °C 12,5 °C 0,0 km/h (0 Bft)
24.09.2023 20:10 23,1 °C 12,3 °C 55 % 85 % 1027,1 hPa 0,0 l/m² 0,0 km/h (0 Bft) S 172 ° 0 min 0 W/m² 9,9 °C 12,3 °C 0,0 km/h (0 Bft)
24.09.2023 20:12 23,1 °C 12,3 °C 55 % 85 % 1027,2 hPa 0,0 l/m² 0,0 km/h (0 Bft) S 172 ° 0 min 0 W/m² 9,9 °C 12,3 °C 0,0 km/h (0 Bft)
24.09.2023 20:13 23,1 °C 12,3 °C 55 % 85 % 1027,1 hPa 0,0 l/m² 0,0 km/h (0 Bft) S 172 ° 0 min 0 W/m² 9,9 °C 12,3 °C 0,0 km/h (0 Bft)
24.09.2023 20:14 23,1 °C 12,3 °C 55 % 85 % 1027,1 hPa 0,0 l/m² 0,0 km/h (0 Bft) S 172 ° 0 min 0 W/m² 9,9 °C 12,3 °C 0,0 km/h (0 Bft)
24.09.2023 20:15 23,1 °C 12,3 °C 55 % 85 % 1027,1 hPa 0,0 l/m² 0,0 km/h (0 Bft) S 172 ° 0 min 0 W/m² 9,9 °C 12,3 °C 0,0 km/h (0 Bft)
24.09.2023 20:17 23,1 °C 12,2 °C 55 % 85 % 1027,1 hPa 0,0 l/m² 0,0 km/h (0 Bft) S 172 ° 0 min 0 W/m² 9,8 °C 12,2 °C 0,0 km/h (0 Bft)
24.09.2023 20:19 23,1 °C 12,2 °C 55 % 85 % 1027,2 hPa 0,0 l/m² 0,0 km/h (0 Bft) S 172 ° 0 min 0 W/m² 9,8 °C 12,2 °C 0,0 km/h (0 Bft)
24.09.2023 20:21 23,1 °C 12,2 °C 55 % 86 % 1027,2 hPa 0,0 l/m² 0,0 km/h (0 Bft) S 172 ° 0 min 0 W/m² 9,9 °C 12,2 °C 0,0 km/h (0 Bft)
24.09.2023 20:22 23,1 °C 12,1 °C 55 % 86 % 1027,2 hPa 0,0 l/m² 0,0 km/h (0 Bft) S 172 ° 0 min 0 W/m² 9,8 °C 12,1 °C 0,0 km/h (0 Bft)
24.09.2023 20:23 23,1 °C 12,1 °C 55 % 86 % 1027,2 hPa 0,0 l/m² 0,0 km/h (0 Bft) S 172 ° 0 min 0 W/m² 9,8 °C 12,1 °C 0,0 km/h (0 Bft)
24.09.2023 20:25 23,1 °C 12,1 °C 55 % 86 % 1027,2 hPa 0,0 l/m² 0,0 km/h (0 Bft) S 172 ° 0 min 0 W/m² 9,8 °C 12,1 °C 0,0 km/h (0 Bft)
24.09.2023 20:27 23,1 °C 12,1 °C 55 % 86 % 1027,2 hPa 0,0 l/m² 0,0 km/h (0 Bft) S 172 ° 0 min 0 W/m² 9,8 °C 12,1 °C 0,0 km/h (0 Bft)
24.09.2023 20:29 23,1 °C 12,1 °C 55 % 86 % 1027,2 hPa 0,0 l/m² 0,0 km/h (0 Bft) S 172 ° 0 min 0 W/m² 9,8 °C 12,1 °C 0,0 km/h (0 Bft)
24.09.2023 20:32 23,1 °C 12,1 °C 55 % 86 % 1027,3 hPa 0,0 l/m² 0,0 km/h (0 Bft) S 172 ° 0 min 0 W/m² 9,8 °C 12,1 °C 1,6 km/h (1 Bft)
24.09.2023 20:33 23,1 °C 12,1 °C 55 % 86 % 1027,2 hPa 0,0 l/m² 0,5 km/h (0 Bft) S 172 ° 0 min 0 W/m² 9,8 °C 12,1 °C 1,6 km/h (1 Bft)
24.09.2023 20:34 23,1 °C 12,0 °C 55 % 86 % 1027,2 hPa 0,0 l/m² 0,0 km/h (0 Bft) S 172 ° 0 min 0 W/m² 9,7 °C 12,0 °C 0,0 km/h (0 Bft)
24.09.2023 20:35 23,1 °C 11,9 °C 55 % 86 % 1027,3 hPa 0,0 l/m² 0,0 km/h (0 Bft) S 172 ° 0 min 0 W/m² 9,6 °C 11,9 °C 0,0 km/h (0 Bft)
24.09.2023 20:37 23,1 °C 11,9 °C 55 % 86 % 1027,2 hPa 0,0 l/m² 0,0 km/h (0 Bft) S 172 ° 0 min 0 W/m² 9,6 °C 11,9 °C 0,0 km/h (0 Bft)
24.09.2023 20:39 23,1 °C 12,0 °C 55 % 86 % 1027,3 hPa 0,0 l/m² 0,0 km/h (0 Bft) S 172 ° 0 min 0 W/m² 9,7 °C 12,0 °C 0,0 km/h (0 Bft)
24.09.2023 20:42 23,1 °C 11,9 °C 55 % 86 % 1027,3 hPa 0,0 l/m² 0,1 km/h (0 Bft) S 172 ° 0 min 0 W/m² 9,6 °C 11,9 °C 1,6 km/h (1 Bft)
24.09.2023 20:43 23,1 °C 11,8 °C 55 % 86 % 1027,3 hPa 0,0 l/m² 0,0 km/h (0 Bft) S 172 ° 0 min 0 W/m² 9,5 °C 11,8 °C 0,0 km/h (0 Bft)
24.09.2023 20:44 23,1 °C 11,8 °C 55 % 86 % 1027,3 hPa 0,0 l/m² 0,1 km/h (0 Bft) S 172 ° 0 min 0 W/m² 9,5 °C 11,8 °C 1,6 km/h (1 Bft)
24.09.2023 20:45 23,1 °C 11,8 °C 56 % 86 % 1027,3 hPa 0,0 l/m² 1,0 km/h (0 Bft) S 172 ° 0 min 0 W/m² 9,5 °C 11,8 °C 1,6 km/h (1 Bft)
24.09.2023 20:47 23,1 °C 11,7 °C 56 % 86 % 1027,3 hPa 0,0 l/m² 1,1 km/h (1 Bft) S 172 ° 0 min 0 W/m² 9,4 °C 11,7 °C 1,6 km/h (1 Bft)
24.09.2023 20:49 23,1 °C 11,6 °C 56 % 86 % 1027,3 hPa 0,0 l/m² 0,0 km/h (0 Bft) S 172 ° 0 min 0 W/m² 9,3 °C 11,6 °C 0,0 km/h (0 Bft)
24.09.2023 20:52 23,1 °C 11,5 °C 56 % 87 % 1027,3 hPa 0,0 l/m² 0,0 km/h (0 Bft) S 172 ° 0 min 0 W/m² 9,4 °C 11,5 °C 0,0 km/h (0 Bft)
24.09.2023 20:53 23,1 °C 11,4 °C 56 % 87 % 1027,3 hPa 0,0 l/m² 0,0 km/h (0 Bft) S 172 ° 0 min 0 W/m² 9,3 °C 11,4 °C 0,0 km/h (0 Bft)
24.09.2023 20:54 23,1 °C 11,4 °C 56 % 87 % 1027,3 hPa 0,0 l/m² 0,0 km/h (0 Bft) S 172 ° 0 min 0 W/m² 9,3 °C 11,4 °C 0,0 km/h (0 Bft)
24.09.2023 20:55 23,1 °C 11,4 °C 56 % 87 % 1027,4 hPa 0,0 l/m² 0,0 km/h (0 Bft) S 172 ° 0 min 0 W/m² 9,3 °C 11,4 °C 0,0 km/h (0 Bft)
24.09.2023 20:57 23,1 °C 11,4 °C 56 % 87 % 1027,3 hPa 0,0 l/m² 0,0 km/h (0 Bft) S 172 ° 0 min 0 W/m² 9,3 °C 11,4 °C 0,0 km/h (0 Bft)
24.09.2023 20:59 23,1 °C 11,4 °C 56 % 87 % 1027,4 hPa 0,0 l/m² 0,0 km/h (0 Bft) S 172 ° 0 min 0 W/m² 9,3 °C 11,4 °C 0,0 km/h (0 Bft)
24.09.2023 21:02 23,1 °C 11,4 °C 56 % 87 % 1027,4 hPa 0,0 l/m² 0,0 km/h (0 Bft) S 172 ° 0 min 0 W/m² 9,3 °C 11,4 °C 0,0 km/h (0 Bft)
24.09.2023 21:03 23,1 °C 11,4 °C 56 % 87 % 1027,4 hPa 0,0 l/m² 0,0 km/h (0 Bft) S 172 ° 0 min 0 W/m² 9,3 °C 11,4 °C 0,0 km/h (0 Bft)
24.09.2023 21:04 23,1 °C 11,4 °C 56 % 87 % 1027,4 hPa 0,0 l/m² 0,0 km/h (0 Bft) S 172 ° 0 min 0 W/m² 9,3 °C 11,4 °C 0,0 km/h (0 Bft)
24.09.2023 21:05 23,1 °C 11,4 °C 56 % 87 % 1027,4 hPa 0,0 l/m² 0,0 km/h (0 Bft) S 172 ° 0 min 0 W/m² 9,3 °C 11,4 °C 0,0 km/h (0 Bft)
24.09.2023 21:07 23,1 °C 11,3 °C 56 % 87 % 1027,4 hPa 0,0 l/m² 0,0 km/h (0 Bft) S 172 ° 0 min 0 W/m² 9,2 °C 11,3 °C 0,0 km/h (0 Bft)
24.09.2023 21:09 23,1 °C 11,3 °C 56 % 87 % 1027,5 hPa 0,0 l/m² 0,0 km/h (0 Bft) S 172 ° 0 min 0 W/m² 9,2 °C 11,3 °C 0,0 km/h (0 Bft)
24.09.2023 21:11 23,1 °C 11,3 °C 56 % 88 % 1027,4 hPa 0,0 l/m² 0,0 km/h (0 Bft) S 172 ° 0 min 0 W/m² 9,4 °C 11,3 °C 0,0 km/h (0 Bft)
24.09.2023 21:12 23,1 °C 11,3 °C 56 % 88 % 1027,4 hPa 0,0 l/m² 0,0 km/h (0 Bft) S 172 ° 0 min 0 W/m² 9,4 °C 11,3 °C 0,0 km/h (0 Bft)
24.09.2023 21:13 23,1 °C 11,2 °C 56 % 88 % 1027,5 hPa 0,0 l/m² 0,0 km/h (0 Bft) S 172 ° 0 min 0 W/m² 9,3 °C 11,2 °C 0,0 km/h (0 Bft)
24.09.2023 21:14 23,1 °C 11,3 °C 56 % 88 % 1027,5 hPa 0,0 l/m² 0,0 km/h (0 Bft) S 172 ° 0 min 0 W/m² 9,4 °C 11,3 °C 0,0 km/h (0 Bft)
24.09.2023 21:15 23,1 °C 11,2 °C 56 % 88 % 1027,5 hPa 0,0 l/m² 0,0 km/h (0 Bft) S 172 ° 0 min 0 W/m² 9,3 °C 11,2 °C 0,0 km/h (0 Bft)
24.09.2023 21:16 23,1 °C 11,2 °C 56 % 88 % 1027,4 hPa 0,0 l/m² 0,0 km/h (0 Bft) S 172 ° 0 min 0 W/m² 9,3 °C 11,2 °C 0,0 km/h (0 Bft)
24.09.2023 21:17 23,1 °C 11,2 °C 56 % 88 % 1027,4 hPa 0,0 l/m² 0,0 km/h (0 Bft) S 172 ° 0 min 0 W/m² 9,3 °C 11,2 °C 0,0 km/h (0 Bft)
24.09.2023 21:18 23,1 °C 11,2 °C 56 % 88 % 1027,4 hPa 0,0 l/m² 0,0 km/h (0 Bft) S 172 ° 0 min 0 W/m² 9,3 °C 11,2 °C 0,0 km/h (0 Bft)
24.09.2023 21:19 23,1 °C 11,2 °C 56 % 89 % 1027,4 hPa 0,0 l/m² 0,0 km/h (0 Bft) S 172 ° 0 min 0 W/m² 9,5 °C 11,2 °C 0,0 km/h (0 Bft)
24.09.2023 21:21 23,1 °C 11,2 °C 56 % 89 % 1027,4 hPa 0,0 l/m² 0,0 km/h (0 Bft) S 172 ° 0 min 0 W/m² 9,5 °C 11,2 °C 0,0 km/h (0 Bft)
24.09.2023 21:23 23,1 °C 11,1 °C 56 % 89 % 1027,4 hPa 0,0 l/m² 0,0 km/h (0 Bft) S 172 ° 0 min 0 W/m² 9,4 °C 11,1 °C 0,0 km/h (0 Bft)
24.09.2023 21:24 23,1 °C 11,1 °C 56 % 89 % 1027,5 hPa 0,0 l/m² 0,0 km/h (0 Bft) S 172 ° 0 min 0 W/m² 9,4 °C 11,1 °C 0,0 km/h (0 Bft)
24.09.2023 21:25 23,1 °C 11,1 °C 56 % 89 % 1027,4 hPa 0,0 l/m² 0,0 km/h (0 Bft) S 172 ° 0 min 0 W/m² 9,4 °C 11,1 °C 0,0 km/h (0 Bft)
24.09.2023 21:26 23,1 °C 11,0 °C 56 % 89 % 1027,4 hPa 0,0 l/m² 0,0 km/h (0 Bft) S 172 ° 0 min 0 W/m² 9,3 °C 11,0 °C 0,0 km/h (0 Bft)
24.09.2023 21:27 23,1 °C 11,0 °C 56 % 89 % 1027,4 hPa 0,0 l/m² 0,0 km/h (0 Bft) S 172 ° 0 min 0 W/m² 9,3 °C 11,0 °C 0,0 km/h (0 Bft)
24.09.2023 21:28 23,1 °C 10,9 °C 56 % 89 % 1027,4 hPa 0,0 l/m² 0,0 km/h (0 Bft) S 172 ° 0 min 0 W/m² 9,2 °C 10,9 °C 0,0 km/h (0 Bft)
24.09.2023 21:29 23,1 °C 10,9 °C 56 % 89 % 1027,4 hPa 0,0 l/m² 0,0 km/h (0 Bft) S 172 ° 0 min 0 W/m² 9,2 °C 10,9 °C 0,0 km/h (0 Bft)
24.09.2023 21:31 23,1 °C 10,9 °C 56 % 90 % 1027,4 hPa 0,0 l/m² 0,0 km/h (0 Bft) S 172 ° 0 min 0 W/m² 9,3 °C 10,9 °C 0,0 km/h (0 Bft)
24.09.2023 21:33 23,1 °C 10,8 °C 56 % 90 % 1027,5 hPa 0,0 l/m² 0,0 km/h (0 Bft) S 172 ° 0 min 0 W/m² 9,2 °C 10,8 °C 0,0 km/h (0 Bft)
24.09.2023 21:34 23,1 °C 10,8 °C 56 % 90 % 1027,4 hPa 0,0 l/m² 0,0 km/h (0 Bft) S 172 ° 0 min 0 W/m² 9,2 °C 10,8 °C 0,0 km/h (0 Bft)
24.09.2023 21:35 23,1 °C 10,8 °C 56 % 90 % 1027,5 hPa 0,0 l/m² 0,0 km/h (0 Bft) S 172 ° 0 min 0 W/m² 9,2 °C 10,8 °C 0,0 km/h (0 Bft)
24.09.2023 21:36 23,1 °C 10,8 °C 56 % 90 % 1027,5 hPa 0,0 l/m² 0,0 km/h (0 Bft) S 172 ° 0 min 0 W/m² 9,2 °C 10,8 °C 0,0 km/h (0 Bft)
24.09.2023 21:37 23,1 °C 10,8 °C 56 % 90 % 1027,5 hPa 0,0 l/m² 0,0 km/h (0 Bft) S 172 ° 0 min 0 W/m² 9,2 °C 10,8 °C 0,0 km/h (0 Bft)
24.09.2023 21:38 23,1 °C 10,8 °C 56 % 90 % 1027,5 hPa 0,0 l/m² 0,0 km/h (0 Bft) S 172 ° 0 min 0 W/m² 9,2 °C 10,8 °C 0,0 km/h (0 Bft)
24.09.2023 21:39 23,1 °C 10,8 °C 56 % 90 % 1027,5 hPa 0,0 l/m² 0,0 km/h (0 Bft) S 172 ° 0 min 0 W/m² 9,2 °C 10,8 °C 0,0 km/h (0 Bft)
24.09.2023 21:41 23,1 °C 10,8 °C 56 % 90 % 1027,5 hPa 0,0 l/m² 0,0 km/h (0 Bft) S 172 ° 0 min 0 W/m² 9,2 °C 10,8 °C 0,0 km/h (0 Bft)
24.09.2023 21:43 23,1 °C 10,7 °C 56 % 90 % 1027,4 hPa 0,0 l/m² 0,0 km/h (0 Bft) S 172 ° 0 min 0 W/m² 9,1 °C 10,7 °C 0,0 km/h (0 Bft)
24.09.2023 21:44 23,1 °C 10,7 °C 56 % 91 % 1027,5 hPa 0,0 l/m² 0,0 km/h (0 Bft) S 172 ° 0 min 0 W/m² 9,3 °C 10,7 °C 0,0 km/h (0 Bft)
24.09.2023 21:46 23,1 °C 10,7 °C 56 % 91 % 1027,5 hPa 0,0 l/m² 0,0 km/h (0 Bft) S 172 ° 0 min 0 W/m² 9,3 °C 10,7 °C 0,0 km/h (0 Bft)
24.09.2023 21:47 23,1 °C 10,7 °C 56 % 91 % 1027,5 hPa 0,0 l/m² 0,0 km/h (0 Bft) S 172 ° 0 min 0 W/m² 9,3 °C 10,7 °C 0,0 km/h (0 Bft)
24.09.2023 21:48 23,1 °C 10,7 °C 56 % 91 % 1027,5 hPa 0,0 l/m² 0,0 km/h (0 Bft) S 172 ° 0 min 0 W/m² 9,3 °C 10,7 °C 0,0 km/h (0 Bft)
24.09.2023 21:49 23,1 °C 10,7 °C 56 % 91 % 1027,6 hPa 0,0 l/m² 0,0 km/h (0 Bft) S 172 ° 0 min 0 W/m² 9,3 °C 10,7 °C 0,0 km/h (0 Bft)
24.09.2023 21:51 23,1 °C 10,7 °C 56 % 91 % 1027,5 hPa 0,0 l/m² 0,0 km/h (0 Bft) S 172 ° 0 min 0 W/m² 9,3 °C 10,7 °C 0,0 km/h (0 Bft)
24.09.2023 21:53 23,1 °C 10,6 °C 56 % 91 % 1027,6 hPa 0,0 l/m² 0,0 km/h (0 Bft) S 172 ° 0 min 0 W/m² 9,2 °C 10,6 °C 0,0 km/h (0 Bft)
24.09.2023 21:54 23,1 °C 10,6 °C 56 % 91 % 1027,6 hPa 0,0 l/m² 0,0 km/h (0 Bft) S 172 ° 0 min 0 W/m² 9,2 °C 10,6 °C 0,0 km/h (0 Bft)
24.09.2023 21:55 23,1 °C 10,6 °C 56 % 91 % 1027,6 hPa 0,0 l/m² 0,0 km/h (0 Bft) S 172 ° 0 min 0 W/m² 9,2 °C 10,6 °C 0,0 km/h (0 Bft)
24.09.2023 21:56 23,1 °C 10,6 °C 56 % 91 % 1027,6 hPa 0,0 l/m² 0,0 km/h (0 Bft) S 172 ° 0 min 0 W/m² 9,2 °C 10,6 °C 0,0 km/h (0 Bft)
24.09.2023 21:57 23,1 °C 10,6 °C 56 % 91 % 1027,6 hPa 0,0 l/m² 0,0 km/h (0 Bft) S 172 ° 0 min 0 W/m² 9,2 °C 10,6 °C 0,0 km/h (0 Bft)
24.09.2023 21:58 23,1 °C 10,5 °C 56 % 92 % 1027,5 hPa 0,0 l/m² 0,0 km/h (0 Bft) S 172 ° 0 min 0 W/m² 9,3 °C 10,5 °C 0,0 km/h (0 Bft)
24.09.2023 21:59 23,1 °C 10,5 °C 56 % 92 % 1027,6 hPa 0,0 l/m² 0,0 km/h (0 Bft) S 172 ° 0 min 0 W/m² 9,3 °C 10,5 °C 0,0 km/h (0 Bft)
24.09.2023 22:01 23,1 °C 10,4 °C 56 % 92 % 1027,6 hPa 0,0 l/m² 0,0 km/h (0 Bft) S 172 ° 0 min 0 W/m² 9,2 °C 10,4 °C 0,0 km/h (0 Bft)
24.09.2023 22:03 23,1 °C 10,4 °C 56 % 91 % 1027,6 hPa 0,0 l/m² 0,0 km/h (0 Bft) S 172 ° 0 min 0 W/m² 9,0 °C 10,4 °C 0,0 km/h (0 Bft)
24.09.2023 22:04 23,1 °C 10,3 °C 56 % 91 % 1027,6 hPa 0,0 l/m² 0,0 km/h (0 Bft) S 172 ° 0 min 0 W/m² 8,9 °C 10,3 °C 0,0 km/h (0 Bft)
24.09.2023 22:05 23,1 °C 10,3 °C 56 % 91 % 1027,5 hPa 0,0 l/m² 0,0 km/h (0 Bft) S 172 ° 0 min 0 W/m² 8,9 °C 10,3 °C 0,0 km/h (0 Bft)
24.09.2023 22:06 23,1 °C 10,3 °C 56 % 92 % 1027,5 hPa 0,0 l/m² 0,0 km/h (0 Bft) S 172 ° 0 min 0 W/m² 9,1 °C 10,3 °C 0,0 km/h (0 Bft)
24.09.2023 22:07 23,1 °C 10,2 °C 56 % 92 % 1027,5 hPa 0,0 l/m² 0,0 km/h (0 Bft) S 172 ° 0 min 0 W/m² 9,0 °C 10,2 °C 0,0 km/h (0 Bft)
24.09.2023 22:08 23,1 °C 10,2 °C 56 % 92 % 1027,5 hPa 0,0 l/m² 0,0 km/h (0 Bft) S 172 ° 0 min 0 W/m² 9,0 °C 10,2 °C 0,0 km/h (0 Bft)
24.09.2023 22:09 23,1 °C 10,2 °C 56 % 92 % 1027,5 hPa 0,0 l/m² 0,0 km/h (0 Bft) S 172 ° 0 min 0 W/m² 9,0 °C 10,2 °C 0,0 km/h (0 Bft)
24.09.2023 22:10 23,1 °C 10,2 °C 56 % 92 % 1027,6 hPa 0,0 l/m² 0,0 km/h (0 Bft) S 172 ° 0 min 0 W/m² 9,0 °C 10,2 °C 0,0 km/h (0 Bft)
24.09.2023 22:12 23,1 °C 10,1 °C 56 % 92 % 1027,5 hPa 0,0 l/m² 0,0 km/h (0 Bft) S 172 ° 0 min 0 W/m² 8,9 °C 10,1 °C 0,0 km/h (0 Bft)
24.09.2023 22:13 23,1 °C 10,1 °C 57 % 92 % 1027,6 hPa 0,0 l/m² 0,0 km/h (0 Bft) S 172 ° 0 min 0 W/m² 8,9 °C 10,1 °C 0,0 km/h (0 Bft)
24.09.2023 22:14 23,1 °C 10,1 °C 57 % 92 % 1027,6 hPa 0,0 l/m² 0,0 km/h (0 Bft) S 172 ° 0 min 0 W/m² 8,9 °C 10,1 °C 0,0 km/h (0 Bft)
24.09.2023 22:15 23,1 °C 10,1 °C 56 % 92 % 1027,6 hPa 0,0 l/m² 0,0 km/h (0 Bft) S 172 ° 0 min 0 W/m² 8,9 °C 10,1 °C 0,0 km/h (0 Bft)
24.09.2023 22:16 23,1 °C 10,1 °C 57 % 92 % 1027,6 hPa 0,0 l/m² 0,0 km/h (0 Bft) S 172 ° 0 min 0 W/m² 8,9 °C 10,1 °C 0,0 km/h (0 Bft)
24.09.2023 22:17 23,1 °C 10,1 °C 57 % 92 % 1027,6 hPa 0,0 l/m² 0,0 km/h (0 Bft) S 172 ° 0 min 0 W/m² 8,9 °C 10,1 °C 0,0 km/h (0 Bft)
24.09.2023 22:18 23,1 °C 10,1 °C 57 % 92 % 1027,6 hPa 0,0 l/m² 0,0 km/h (0 Bft) S 172 ° 0 min 0 W/m² 8,9 °C 10,1 °C 0,0 km/h (0 Bft)
24.09.2023 22:19 23,1 °C 10,1 °C 57 % 92 % 1027,7 hPa 0,0 l/m² 0,0 km/h (0 Bft) S 172 ° 0 min 0 W/m² 8,9 °C 10,1 °C 0,0 km/h (0 Bft)
24.09.2023 22:20 23,1 °C 10,1 °C 57 % 92 % 1027,7 hPa 0,0 l/m² 0,0 km/h (0 Bft) S 172 ° 0 min 0 W/m² 8,9 °C 10,1 °C 0,0 km/h (0 Bft)
24.09.2023 22:22 23,1 °C 10,0 °C 57 % 92 % 1027,7 hPa 0,0 l/m² 0,0 km/h (0 Bft) S 172 ° 0 min 0 W/m² 8,8 °C 10,0 °C 0,0 km/h (0 Bft)
24.09.2023 22:23 23,1 °C 10,0 °C 57 % 92 % 1027,6 hPa 0,0 l/m² 0,0 km/h (0 Bft) S 172 ° 0 min 0 W/m² 8,8 °C 10,0 °C 0,0 km/h (0 Bft)
24.09.2023 22:24 23,1 °C 9,9 °C 57 % 92 % 1027,6 hPa 0,0 l/m² 0,0 km/h (0 Bft) S 172 ° 0 min 0 W/m² 8,7 °C 9,9 °C 0,0 km/h (0 Bft)
24.09.2023 22:25 23,1 °C 9,9 °C 57 % 92 % 1027,6 hPa 0,0 l/m² 0,0 km/h (0 Bft) S 172 ° 0 min 0 W/m² 8,7 °C 9,9 °C 0,0 km/h (0 Bft)
24.09.2023 22:26 23,1 °C 9,9 °C 57 % 92 % 1027,6 hPa 0,0 l/m² 0,0 km/h (0 Bft) S 172 ° 0 min 0 W/m² 8,7 °C 9,9 °C 0,0 km/h (0 Bft)
24.09.2023 22:27 23,1 °C 9,9 °C 57 % 92 % 1027,7 hPa 0,0 l/m² 0,0 km/h (0 Bft) S 172 ° 0 min 0 W/m² 8,7 °C 9,9 °C 0,0 km/h (0 Bft)
24.09.2023 22:28 23,1 °C 9,9 °C 57 % 92 % 1027,7 hPa 0,0 l/m² 0,0 km/h (0 Bft) S 172 ° 0 min 0 W/m² 8,7 °C 9,9 °C 0,0 km/h (0 Bft)
24.09.2023 22:29 23,1 °C 9,9 °C 57 % 93 % 1027,7 hPa 0,0 l/m² 0,0 km/h (0 Bft) S 172 ° 0 min 0 W/m² 8,8 °C 9,9 °C 0,0 km/h (0 Bft)
24.09.2023 22:31 23,0 °C 9,8 °C 57 % 92 % 1027,8 hPa 0,0 l/m² 0,0 km/h (0 Bft) S 172 ° 0 min 0 W/m² 8,6 °C 9,8 °C 0,0 km/h (0 Bft)
24.09.2023 22:33 23,1 °C 9,8 °C 57 % 93 % 1027,8 hPa 0,0 l/m² 0,0 km/h (0 Bft) S 172 ° 0 min 0 W/m² 8,7 °C 9,8 °C 0,0 km/h (0 Bft)
24.09.2023 22:34 23,0 °C 9,8 °C 57 % 93 % 1027,7 hPa 0,0 l/m² 0,0 km/h (0 Bft) S 172 ° 0 min 0 W/m² 8,7 °C 9,8 °C 0,0 km/h (0 Bft)
24.09.2023 22:35 23,0 °C 9,8 °C 57 % 92 % 1027,7 hPa 0,0 l/m² 0,0 km/h (0 Bft) S 172 ° 0 min 0 W/m² 8,6 °C 9,8 °C 0,0 km/h (0 Bft)
24.09.2023 22:36 23,0 °C 9,8 °C 57 % 92 % 1027,7 hPa 0,0 l/m² 0,0 km/h (0 Bft) S 172 ° 0 min 0 W/m² 8,6 °C 9,8 °C 0,0 km/h (0 Bft)
24.09.2023 22:37 23,0 °C 9,9 °C 57 % 93 % 1027,8 hPa 0,0 l/m² 0,0 km/h (0 Bft) S 172 ° 0 min 0 W/m² 8,8 °C 9,9 °C 0,0 km/h (0 Bft)
24.09.2023 22:38 22,9 °C 9,9 °C 57 % 93 % 1027,8 hPa 0,0 l/m² 0,0 km/h (0 Bft) S 172 ° 0 min 0 W/m² 8,8 °C 9,9 °C 0,0 km/h (0 Bft)
24.09.2023 22:39 23,0 °C 9,8 °C 57 % 93 % 1027,8 hPa 0,0 l/m² 0,0 km/h (0 Bft) S 172 ° 0 min 0 W/m² 8,7 °C 9,8 °C 0,0 km/h (0 Bft)
24.09.2023 22:41 22,9 °C 9,8 °C 57 % 93 % 1027,8 hPa 0,0 l/m² 0,0 km/h (0 Bft) S 172 ° 0 min 0 W/m² 8,7 °C 9,8 °C 0,0 km/h (0 Bft)
24.09.2023 22:43 22,9 °C 9,8 °C 57 % 93 % 1027,8 hPa 0,0 l/m² 0,0 km/h (0 Bft) S 172 ° 0 min 0 W/m² 8,7 °C 9,8 °C 0,0 km/h (0 Bft)
24.09.2023 22:44 22,9 °C 9,8 °C 57 % 93 % 1027,9 hPa 0,0 l/m² 0,0 km/h (0 Bft) S 172 ° 0 min 0 W/m² 8,7 °C 9,8 °C 0,0 km/h (0 Bft)
24.09.2023 22:45 22,9 °C 9,8 °C 57 % 93 % 1027,9 hPa 0,0 l/m² 0,0 km/h (0 Bft) S 172 ° 0 min 0 W/m² 8,7 °C 9,8 °C 0,0 km/h (0 Bft)
24.09.2023 22:46 22,9 °C 9,7 °C 57 % 93 % 1027,9 hPa 0,0 l/m² 0,0 km/h (0 Bft) S 172 ° 0 min 0 W/m² 8,6 °C 9,7 °C 0,0 km/h (0 Bft)
24.09.2023 22:47 22,9 °C 9,7 °C 57 % 93 % 1027,9 hPa 0,0 l/m² 0,0 km/h (0 Bft) S 172 ° 0 min 0 W/m² 8,6 °C 9,7 °C 0,0 km/h (0 Bft)
24.09.2023 22:48 22,9 °C 9,7 °C 57 % 93 % 1027,9 hPa 0,0 l/m² 0,0 km/h (0 Bft) S 172 ° 0 min 0 W/m² 8,6 °C 9,7 °C 0,0 km/h (0 Bft)
24.09.2023 22:49 22,9 °C 9,6 °C 57 % 93 % 1027,9 hPa 0,0 l/m² 0,0 km/h (0 Bft) S 172 ° 0 min 0 W/m² 8,5 °C 9,6 °C 0,0 km/h (0 Bft)
24.09.2023 22:50 22,9 °C 9,6 °C 57 % 93 % 1027,9 hPa 0,0 l/m² 0,0 km/h (0 Bft) S 172 ° 0 min 0 W/m² 8,5 °C 9,6 °C 0,0 km/h (0 Bft)
24.09.2023 22:52 22,9 °C 9,6 °C 57 % 93 % 1027,8 hPa 0,0 l/m² 0,0 km/h (0 Bft) S 172 ° 0 min 0 W/m² 8,5 °C 9,6 °C 0,0 km/h (0 Bft)
24.09.2023 22:53 22,9 °C 9,6 °C 57 % 93 % 1027,9 hPa 0,0 l/m² 0,0 km/h (0 Bft) S 172 ° 0 min 0 W/m² 8,5 °C 9,6 °C 0,0 km/h (0 Bft)
24.09.2023 22:54 22,9 °C 9,5 °C 57 % 93 % 1027,9 hPa 0,0 l/m² 0,0 km/h (0 Bft) S 172 ° 0 min 0 W/m² 8,4 °C 9,5 °C 0,0 km/h (0 Bft)
24.09.2023 22:55 22,9 °C 9,4 °C 57 % 93 % 1027,9 hPa 0,0 l/m² 0,0 km/h (0 Bft) S 172 ° 0 min 0 W/m² 8,3 °C 9,4 °C 0,0 km/h (0 Bft)
24.09.2023 22:56 22,9 °C 9,4 °C 57 % 93 % 1027,9 hPa 0,0 l/m² 0,0 km/h (0 Bft) S 172 ° 0 min 0 W/m² 8,3 °C 9,4 °C 0,0 km/h (0 Bft)
24.09.2023 22:57 22,9 °C 9,4 °C 57 % 93 % 1027,9 hPa 0,0 l/m² 0,2 km/h (0 Bft) S 172 ° 0 min 0 W/m² 8,3 °C 9,4 °C 1,6 km/h (1 Bft)
24.09.2023 22:58 22,9 °C 9,4 °C 57 % 93 % 1027,9 hPa 0,0 l/m² 0,1 km/h (0 Bft) S 172 ° 0 min 0 W/m² 8,3 °C 9,4 °C 1,6 km/h (1 Bft)
24.09.2023 22:59 22,9 °C 9,3 °C 57 % 93 % 1027,9 hPa 0,0 l/m² 0,0 km/h (0 Bft) S 172 ° 0 min 0 W/m² 8,2 °C 9,3 °C 0,0 km/h (0 Bft)
24.09.2023 23:00 22,9 °C 9,3 °C 57 % 93 % 1027,8 hPa 0,0 l/m² 0,0 km/h (0 Bft) S 172 ° 0 min 0 W/m² 8,2 °C 9,3 °C 0,0 km/h (0 Bft)
24.09.2023 23:02 22,9 °C 9,4 °C 57 % 93 % 1027,8 hPa 0,0 l/m² 0,0 km/h (0 Bft) S 172 ° 0 min 0 W/m² 8,3 °C 9,4 °C 0,0 km/h (0 Bft)
24.09.2023 23:03 22,9 °C 9,4 °C 57 % 93 % 1027,8 hPa 0,0 l/m² 0,0 km/h (0 Bft) S 172 ° 0 min 0 W/m² 8,3 °C 9,4 °C 0,0 km/h (0 Bft)
24.09.2023 23:04 22,8 °C 9,4 °C 57 % 93 % 1027,9 hPa 0,0 l/m² 0,0 km/h (0 Bft) S 172 ° 0 min 0 W/m² 8,3 °C 9,4 °C 0,0 km/h (0 Bft)
24.09.2023 23:05 22,9 °C 9,4 °C 57 % 93 % 1027,9 hPa 0,0 l/m² 0,0 km/h (0 Bft) S 172 ° 0 min 0 W/m² 8,3 °C 9,4 °C 0,0 km/h (0 Bft)
24.09.2023 23:06 22,9 °C 9,4 °C 57 % 93 % 1027,8 hPa 0,0 l/m² 0,0 km/h (0 Bft) S 172 ° 0 min 0 W/m² 8,3 °C 9,4 °C 0,0 km/h (0 Bft)
24.09.2023 23:07 22,9 °C 9,4 °C 57 % 93 % 1027,9 hPa 0,0 l/m² 0,0 km/h (0 Bft) S 172 ° 0 min 0 W/m² 8,3 °C 9,4 °C 0,0 km/h (0 Bft)
24.09.2023 23:08 22,9 °C 9,5 °C 57 % 93 % 1027,9 hPa 0,0 l/m² 0,0 km/h (0 Bft) S 172 ° 0 min 0 W/m² 8,4 °C 9,5 °C 0,0 km/h (0 Bft)
24.09.2023 23:09 22,9 °C 9,4 °C 57 % 93 % 1028,0 hPa 0,0 l/m² 0,0 km/h (0 Bft) S 172 ° 0 min 0 W/m² 8,3 °C 9,4 °C 0,0 km/h (0 Bft)
24.09.2023 23:11 22,8 °C 9,4 °C 57 % 93 % 1027,9 hPa 0,0 l/m² 0,0 km/h (0 Bft) S 172 ° 0 min 0 W/m² 8,3 °C 9,4 °C 0,0 km/h (0 Bft)
24.09.2023 23:13 22,8 °C 9,4 °C 57 % 93 % 1027,8 hPa 0,0 l/m² 0,0 km/h (0 Bft) S 172 ° 0 min 0 W/m² 8,3 °C 9,4 °C 0,0 km/h (0 Bft)
24.09.2023 23:14 22,9 °C 9,4 °C 57 % 93 % 1027,9 hPa 0,0 l/m² 0,0 km/h (0 Bft) S 172 ° 0 min 0 W/m² 8,3 °C 9,4 °C 0,0 km/h (0 Bft)
24.09.2023 23:15 22,8 °C 9,4 °C 57 % 93 % 1027,8 hPa 0,0 l/m² 0,0 km/h (0 Bft) S 172 ° 0 min 0 W/m² 8,3 °C 9,4 °C 0,0 km/h (0 Bft)
24.09.2023 23:16 22,8 °C 9,4 °C 57 % 94 % 1027,8 hPa 0,0 l/m² 0,0 km/h (0 Bft) N 0 ° 0 min 0 W/m² 8,5 °C 9,4 °C 0,0 km/h (0 Bft)
24.09.2023 23:17 22,9 °C 9,4 °C 57 % 94 % 1027,9 hPa 0,0 l/m² 0,0 km/h (0 Bft) N 0 ° 0 min 0 W/m² 8,5 °C 9,4 °C 0,0 km/h (0 Bft)
24.09.2023 23:23 22,8 °C 9,3 °C 57 % 93 % 1027,8 hPa 0,0 l/m² 0,0 km/h (0 Bft) S 172 ° 0 min 0 W/m² 8,2 °C 9,3 °C 0,0 km/h (0 Bft)
24.09.2023 23:25 22,8 °C 9,3 °C 57 % 93 % 1027,8 hPa 0,0 l/m² 0,0 km/h (0 Bft) S 172 ° 0 min 0 W/m² 8,2 °C 9,3 °C 0,0 km/h (0 Bft)
24.09.2023 23:26 22,8 °C 9,2 °C 57 % 93 % 1027,8 hPa 0,0 l/m² 0,0 km/h (0 Bft) S 172 ° 0 min 0 W/m² 8,1 °C 9,2 °C 0,0 km/h (0 Bft)
24.09.2023 23:27 22,8 °C 9,3 °C 57 % 94 % 1027,8 hPa 0,0 l/m² 0,0 km/h (0 Bft) S 172 ° 0 min 0 W/m² 8,4 °C 9,3 °C 0,0 km/h (0 Bft)
24.09.2023 23:28 22,8 °C 9,3 °C 57 % 94 % 1027,8 hPa 0,0 l/m² 0,0 km/h (0 Bft) S 172 ° 0 min 0 W/m² 8,4 °C 9,3 °C 0,0 km/h (0 Bft)
24.09.2023 23:29 22,8 °C 9,2 °C 57 % 94 % 1027,9 hPa 0,0 l/m² 0,0 km/h (0 Bft) S 172 ° 0 min 0 W/m² 8,3 °C 9,2 °C 0,0 km/h (0 Bft)
24.09.2023 23:32 22,8 °C 9,3 °C 57 % 94 % 1027,8 hPa 0,0 l/m² 0,0 km/h (0 Bft) S 172 ° 0 min 0 W/m² 8,4 °C 9,3 °C 0,0 km/h (0 Bft)
24.09.2023 23:33 22,8 °C 9,2 °C 57 % 93 % 1027,8 hPa 0,0 l/m² 0,0 km/h (0 Bft) S 172 ° 0 min 0 W/m² 8,1 °C 9,2 °C 0,0 km/h (0 Bft)
24.09.2023 23:34 22,8 °C 9,2 °C 57 % 94 % 1027,8 hPa 0,0 l/m² 0,0 km/h (0 Bft) S 172 ° 0 min 0 W/m² 8,3 °C 9,2 °C 0,0 km/h (0 Bft)
24.09.2023 23:35 22,8 °C 9,2 °C 57 % 94 % 1027,8 hPa 0,0 l/m² 0,0 km/h (0 Bft) S 172 ° 0 min 0 W/m² 8,3 °C 9,2 °C 0,0 km/h (0 Bft)
24.09.2023 23:36 22,8 °C 9,2 °C 57 % 94 % 1027,8 hPa 0,0 l/m² 0,0 km/h (0 Bft) S 172 ° 0 min 0 W/m² 8,3 °C 9,2 °C 0,0 km/h (0 Bft)
24.09.2023 23:37 22,8 °C 9,2 °C 57 % 94 % 1027,9 hPa 0,0 l/m² 0,0 km/h (0 Bft) S 172 ° 0 min 0 W/m² 8,3 °C 9,2 °C 0,0 km/h (0 Bft)
24.09.2023 23:38 22,8 °C 9,2 °C 57 % 94 % 1027,8 hPa 0,0 l/m² 0,0 km/h (0 Bft) S 172 ° 0 min 0 W/m² 8,3 °C 9,2 °C 0,0 km/h (0 Bft)
24.09.2023 23:39 22,8 °C 9,1 °C 57 % 94 % 1027,8 hPa 0,0 l/m² 0,0 km/h (0 Bft) S 172 ° 0 min 0 W/m² 8,2 °C 9,1 °C 0,0 km/h (0 Bft)
24.09.2023 23:41 22,8 °C 9,1 °C 57 % 94 % 1027,8 hPa 0,0 l/m² 0,0 km/h (0 Bft) S 172 ° 0 min 0 W/m² 8,2 °C 9,1 °C 0,0 km/h (0 Bft)
24.09.2023 23:43 22,8 °C 9,1 °C 57 % 94 % 1027,8 hPa 0,0 l/m² 0,0 km/h (0 Bft) S 172 ° 0 min 0 W/m² 8,2 °C 9,1 °C 0,0 km/h (0 Bft)
24.09.2023 23:44 22,8 °C 9,1 °C 57 % 94 % 1027,8 hPa 0,0 l/m² 0,0 km/h (0 Bft) S 172 ° 0 min 0 W/m² 8,2 °C 9,1 °C 0,0 km/h (0 Bft)
24.09.2023 23:45 22,8 °C 9,0 °C 57 % 94 % 1027,7 hPa 0,0 l/m² 0,0 km/h (0 Bft) S 172 ° 0 min 0 W/m² 8,1 °C 9,0 °C 0,0 km/h (0 Bft)
24.09.2023 23:46 22,8 °C 9,0 °C 57 % 94 % 1027,8 hPa 0,0 l/m² 0,0 km/h (0 Bft) S 172 ° 0 min 0 W/m² 8,1 °C 9,0 °C 0,0 km/h (0 Bft)
24.09.2023 23:47 22,8 °C 8,9 °C 57 % 94 % 1027,8 hPa 0,0 l/m² 0,0 km/h (0 Bft) S 172 ° 0 min 0 W/m² 8,0 °C 8,9 °C 0,0 km/h (0 Bft)
24.09.2023 23:48 22,8 °C 8,9 °C 57 % 94 % 1027,8 hPa 0,0 l/m² 0,0 km/h (0 Bft) S 172 ° 0 min 0 W/m² 8,0 °C 8,9 °C 0,0 km/h (0 Bft)
24.09.2023 23:49 22,8 °C 8,9 °C 57 % 94 % 1027,7 hPa 0,0 l/m² 0,0 km/h (0 Bft) S 172 ° 0 min 0 W/m² 8,0 °C 8,9 °C 0,0 km/h (0 Bft)
24.09.2023 23:51 22,8 °C 8,9 °C 57 % 94 % 1027,8 hPa 0,0 l/m² 0,0 km/h (0 Bft) S 172 ° 0 min 0 W/m² 8,0 °C 8,9 °C 0,0 km/h (0 Bft)
24.09.2023 23:53 22,8 °C 8,9 °C 57 % 94 % 1027,9 hPa 0,0 l/m² 0,0 km/h (0 Bft) S 172 ° 0 min 0 W/m² 8,0 °C 8,9 °C 0,0 km/h (0 Bft)
24.09.2023 23:54 22,8 °C 8,9 °C 57 % 94 % 1027,9 hPa 0,0 l/m² 0,0 km/h (0 Bft) S 172 ° 0 min 0 W/m² 8,0 °C 8,9 °C 0,0 km/h (0 Bft)
24.09.2023 23:55 22,8 °C 8,8 °C 57 % 94 % 1027,8 hPa 0,0 l/m² 0,0 km/h (0 Bft) S 172 ° 0 min 0 W/m² 7,9 °C 8,8 °C 0,0 km/h (0 Bft)
24.09.2023 23:56 22,8 °C 8,8 °C 57 % 94 % 1027,8 hPa 0,0 l/m² 0,0 km/h (0 Bft) S 172 ° 0 min 0 W/m² 7,9 °C 8,8 °C 0,0 km/h (0 Bft)
24.09.2023 23:57 22,8 °C 8,8 °C 57 % 94 % 1027,8 hPa 0,0 l/m² 0,0 km/h (0 Bft) S 172 ° 0 min 0 W/m² 7,9 °C 8,8 °C 0,0 km/h (0 Bft)
24.09.2023 23:58 22,8 °C 8,8 °C 57 % 94 % 1027,7 hPa 0,0 l/m² 0,0 km/h (0 Bft) S 172 ° 0 min 0 W/m² 7,9 °C 8,8 °C 0,0 km/h (0 Bft)
24.09.2023 23:59 22,8 °C 8,7 °C 57 % 94 % 1027,8 hPa 0,0 l/m² 0,0 km/h (0 Bft) S 172 ° 0 min 0 W/m² 7,8 °C 8,7 °C 0,0 km/h (0 Bft)
_ Min-Zeit 07:59 07:17 18:00 17:39 00:15 - 23:59 - - - - 07:10 07:17 23:59
Minimum _ 22,4 °C 8,6 °C 48 % 57 % 1021,4 hPa - 0,0 km/h (0 Bft) - - - - 7,5 °C 8,6 °C 0,0 km/h (0 Bft)
_ Max-Zeit 15:24 14:20 09:33 23:59 23:09 23:59 13:13 - - 17:44 13:12 12:16 14:20 13:32
Maximum _ 24,0 °C 20,0 °C 59 % 94 % 1028,0 hPa 0,0 l/m² 11,2 km/h
S (2 Bft)
- - 3 min 805 W/m² 13,4 °C 20,0 °C 14,5 km/h
W-SW (3 Bft)
Durchschnitt _ 23,0 °C 13,5 °C 57 % 82 % 1025,9 hPa #0,0 l/m² 1,8 km/h (1 Bft) S - #9:12 h 161 W/m² 10,2 °C 13,4 °C 3,3 km/h (1 Bft)
© 2009 Mathias Hoßbach